Current Subject Filter Phrases

New Emails whose subjects which contain these 3246 phrases in any part of the subject will be quarantined.
If the filter begins Regex= then the filter is a special regular expression
Contact CyberStrategies, Inc support here to add or remove filters.

We continuously add and remove filters based on our observations and these reports.
Sort Order By Filter By Number of Hits By Most Recent By Today's Hits
Filter [hits today's:yesterday's:total]Last Seen on
get hard [2:none: 3187] Nov 29, 2020 11:35AM
iPhone [1:3: 50580] Nov 29, 2020 11:35AM
Meds [1:1: 37247] Nov 29, 2020 11:35AM
RegEX=$^ [1:4: 10316] Nov 29, 2020 11:34AM
S ex [1:none: 251] Nov 29, 2020 11:33AM
Tinnitus [34:43: 71897] Nov 29, 2020 11:32AM
SUPER DISCOUNT [1:none: 1496] Nov 29, 2020 11:28AM
perfect holiday gift [2:2: 116] Nov 29, 2020 11:28AM
With These Giftable [5:2: 29] Nov 29, 2020 11:24AM
Gifts for All Your Loved Ones [1:none: 23] Nov 29, 2020 11:23AM
hilf mir zu finden [2:3: 587] Nov 29, 2020 11:23AM
Gadgets And Gizmos You Or Someone You Know [1:1: 188] Nov 29, 2020 11:23AM
gutaussehend mit einem fassungslosen [2:4: 544] Nov 29, 2020 11:21AM
70% off [1:6: 6478] Nov 29, 2020 11:19AM
Visceral Fat Pushes [14:27: 103] Nov 29, 2020 11:17AM
RegEX=^Greetings.?$ [1:1: 851] Nov 29, 2020 11:13AM
Why men leave [4:none: 998] Nov 29, 2020 11:08AM
RegEX=^\s*\d+\s*$ [2:none: 9042] Nov 29, 2020 11:07AM
INVESTMENT [5:23: 15617] Nov 29, 2020 11:07AM
RegEX=\p{Block=CJK_Unified_Ideographs} [35:68: 402048] Nov 29, 2020 11:06AM
Black Friday [42:83: 14952] Nov 29, 2020 11:00AM
Are You Prepared [1:1: 1599] Nov 29, 2020 11:00AM
Santa let This Ornament [2:2: 94] Nov 29, 2020 11:00AM
personalized Christmas ornament [7:1: 167] Nov 29, 2020 11:00AM
Your Personal Ornament Is Waiting [2:4: 51] Nov 29, 2020 10:55AM
50% OFF! [4:6: 425] Nov 29, 2020 10:53AM
RegEX=^hello$ [1:none: 42711] Nov 29, 2020 10:51AM
Flash Sale [4:none: 7545] Nov 29, 2020 10:46AM
RE: Delivery For You [1:none: 946] Nov 29, 2020 10:45AM
Your Order is Ready [2:none: 590] Nov 29, 2020 10:41AM
RegEX=(?:\\x\w\w){4} [8:1: 63452] Nov 29, 2020 10:38AM
Bauleras cerradas Alquiler de espacios temporarios [1:none: 153] Nov 29, 2020 10:35AM
Free Shipping [6:24: 19239] Nov 29, 2020 10:35AM
Save BIG [3:none: 4980] Nov 29, 2020 10:35AM
RegEX=^Looking\ for\ [1:2: 8890] Nov 29, 2020 10:30AM
CASINO WELCOME [17:none: 391] Nov 29, 2020 10:28AM
Ich bin jetzt frei f\xFCr dich;) [2:1: 571] Nov 29, 2020 10:27AM
Genau das, was ich wollte [1:1: 369] Nov 29, 2020 10:26AM
Kannst du morgen frei sein? [1:2: 558] Nov 29, 2020 10:24AM
flashlight [1:none: 83564] Nov 29, 2020 10:23AM
erectile [1:none: 5602] Nov 29, 2020 10:22AM
dich morgen treffen [1:3: 564] Nov 29, 2020 10:20AM
Du kannst deine St\xE4rke an mir testen [2:4: 597] Nov 29, 2020 10:18AM
Helping Millions With Pain [1:none: 469] Nov 29, 2020 10:16AM
Aber hier bist du und ich bin bereit, es dir zu enth\xFCllen [3:2: 544] Nov 29, 2020 10:15AM
RegEX=^get a [5:5: 19523] Nov 29, 2020 10:12AM
Ends tomorrow [7:1: 2691] Nov 29, 2020 10:12AM
READ THIS FIRST [1:none: 18] Nov 29, 2020 10:11AM
Gutter Cleaning [3:2: 2287] Nov 29, 2020 10:11AM
Curious Finds That You Need to Check Out This Cyber Monday [3:1: 57] Nov 29, 2020 10:08AM
$50 [9:26: 164732] Nov 29, 2020 10:03AM
save up to [2:6: 12473] Nov 29, 2020 10:03AM
Ich bin bereit, dir ein paar vulg\xE4re Geheimnisse zu erz\xE4hlen; [2:5: 553] Nov 29, 2020 09:52AM
Ich m\xF6chte Sie treffen [1:2: 416] Nov 29, 2020 09:51AM
bist du morgen frei [1:3: 671] Nov 29, 2020 09:50AM
du mich am Wochenende treffen [2:4: 1692] Nov 29, 2020 09:48AM
Interessanterweise bist du im Gespr\xE4ch genauso cool wie auf dem Foto? [1:3: 536] Nov 29, 2020 09:48AM
NOTIFICATION Storage Full [1:none: 361] Nov 29, 2020 09:46AM
This Immune Booster Floods [2:none: 199] Nov 29, 2020 09:46AM
Healthcare plans under [4:10: 495] Nov 29, 2020 09:46AM
Welcome to Health Coverage in Und [4:7: 70] Nov 29, 2020 09:46AM
Do you qualify for [1:1: 188] Nov 29, 2020 09:45AM
Did you get [1:none: 3327] Nov 29, 2020 09:37AM
fat burning [1:3: 5522] Nov 29, 2020 09:35AM
RE: Follow up [6:20: 3090] Nov 29, 2020 09:31AM
nicht zu sp\xE4t [1:none: 491] Nov 29, 2020 09:29AM
wir ein Treffen planen [1:1: 1100] Nov 29, 2020 09:22AM
Life Insurance [8:17: 62899] Nov 29, 2020 09:22AM
RegEX=^Open Immediately!$ [1:5: 99] Nov 29, 2020 09:19AM
du mich morgen treffen [4:8: 2058] Nov 29, 2020 09:19AM
Last chance [7:6: 2972] Nov 29, 2020 09:16AM
morgen ist auch m\xF6glich [4:2: 523] Nov 29, 2020 09:15AM
Sie scheinen zu wissen, wie man ein M\xE4dchen zum Einschalten bringt ... [1:3: 456] Nov 29, 2020 09:14AM
Limited Time Only [2:none: 1475] Nov 29, 2020 09:13AM
Renewal by Andersen [3:6: 67] Nov 29, 2020 09:12AM
Consulta [1:none: 7114] Nov 29, 2020 09:11AM
new window [1:2: 6355] Nov 29, 2020 09:11AM
K\xF6nntest du mich treffen? [1:2: 608] Nov 29, 2020 09:10AM
Ich w\xFCrde dich gerne testen;) [1:1: 517] Nov 29, 2020 09:09AM
{{ [1:none: 59] Nov 29, 2020 09:09AM
RegEX=offer \d+ [1:none: 1135] Nov 29, 2020 09:07AM
Confirmed: Your Fifty Dollar CVS Offer [1:2: 88] Nov 29, 2020 09:05AM
kannst du mich treffen [1:none: 573] Nov 29, 2020 09:02AM
Wenn du willst, werde ich dir sagen, was wir gemacht haben [2:2: 587] Nov 29, 2020 09:02AM
Power Bank [2:1: 2511] Nov 29, 2020 09:01AM
ausgezeichneter Tag [1:2: 577] Nov 29, 2020 09:01AM
Save Thousands [1:none: 1075] Nov 29, 2020 08:53AM
How much is your Credit Card Processing costing you [1:none: 7] Nov 29, 2020 08:53AM
Dont [1:1: 7313] Nov 29, 2020 08:52AM
Killing You [1:none: 3588] Nov 29, 2020 08:50AM
Upgrade Your [5:5: 2552] Nov 29, 2020 08:46AM
Viaggra [1:none: 437] Nov 29, 2020 08:43AM
Canvas Prints [13:25: 9015] Nov 29, 2020 08:39AM
this before bed [1:none: 2010] Nov 29, 2020 08:36AM
Ich glaube ich habe dich in meinen Tr\xE4umen gesehen ... [3:2: 553] Nov 29, 2020 08:27AM
werden wir einen Termin f\xFCr morgen vereinbaren [2:none: 504] Nov 29, 2020 08:25AM
Up To 50% Off [2:10: 999] Nov 29, 2020 08:25AM
We have been trying to reach you Please respond [1:3: 141] Nov 29, 2020 08:21AM
Your Participation is Needed! [1:none: 88] Nov 29, 2020 08:21AM
FREE Samples [1:1: 1147] Nov 29, 2020 08:18AM
Who Said It's Too Early For Christmas? [1:2: 60] Nov 29, 2020 08:11AM
This Ornament Takes The Cake For [1:2: 51] Nov 29, 2020 08:11AM
Unlock your [1:none: 2713] Nov 29, 2020 08:06AM
Health Insurance [1:none: 8050] Nov 29, 2020 08:02AM
don't miss out [2:1: 6645] Nov 29, 2020 08:00AM
Text To Speech? You ain [2:1: 49] Nov 29, 2020 07:56AM
Voice Over Artists Just Got Worried [1:1: 83] Nov 29, 2020 07:56AM
At Last! Human Sounding Text To Speech 2020 (NEW) [1:2: 88] Nov 29, 2020 07:56AM
Your Voice Over Problems Solved [1:3: 60] Nov 29, 2020 07:56AM
flight sim [3:19: 9073] Nov 29, 2020 07:47AM
Hast du es noch nicht gesehen? Oh, zum Teufel, und warum ich es noch nie gefunden habe [1:6: 472] Nov 29, 2020 07:44AM
wir einen Termin f\xFCr heute vereinbaren? [1:4: 1160] Nov 29, 2020 07:42AM
you NEED to see this [1:none: 1888] Nov 29, 2020 07:40AM
RegEX=^Find\b [5:10: 40747] Nov 29, 2020 07:38AM
Und alle sind hei\xDF und geil [1:3: 373] Nov 29, 2020 07:36AM
hast du frei heute [1:1: 513] Nov 29, 2020 07:36AM
Christmas Came Early! Get Your Personalized Ornament Now [1:none: 25] Nov 29, 2020 07:34AM
Ich brauche Hilfe [3:4: 606] Nov 29, 2020 07:30AM
einen Termin f\xFCr das Wochenende vereinbaren? [4:2: 1060] Nov 29, 2020 07:29AM
ED [2:2: 58665] Nov 29, 2020 07:19AM
KN95 Mask Stock [1:2: 100] Nov 29, 2020 07:12AM
KN95 Masks [12:6: 591] Nov 29, 2020 07:11AM
Ich und diese Flasche Rotwein [1:1: 608] Nov 29, 2020 07:11AM
Don't miss these [1:none: 394] Nov 29, 2020 07:11AM
RegEX=^Extra\ \d+\%\ off [1:2: 518] Nov 29, 2020 07:08AM
If you pee in THIS direction [4:none: 72] Nov 29, 2020 07:07AM
Lass es uns heute tun [2:4: 607] Nov 29, 2020 07:06AM
male enhanc [2:none: 2627] Nov 29, 2020 07:05AM
Welche sind deine Pl\xE4ne f\xFCr morgen_ [2:4: 550] Nov 29, 2020 07:02AM
Special Offer [1:1: 7212] Nov 29, 2020 07:00AM
ich kann nicht finden [2:1: 490] Nov 29, 2020 06:59AM
Jet Card [1:1: 453] Nov 29, 2020 06:53AM
Tired of [2:4: 8504] Nov 29, 2020 06:49AM
Business Proposal [2:none: 1971] Nov 29, 2020 06:48AM
Kommst du am Wochenende zu mir [1:1: 663] Nov 29, 2020 06:47AM
komm morgen zu mir [1:1: 515] Nov 29, 2020 06:42AM
Erlauben Sie mir, Ihr Dessert f\xFCr das heutige Abendessen zu sein? [1:1: 602] Nov 29, 2020 06:40AM
was hast Du am Wochenende vor [2:3: 370] Nov 29, 2020 06:40AM
Oh, es sieht so aus, als w\xE4rst du ein Athlet [2:2: 568] Nov 29, 2020 06:38AM
Was sind Ihre Pl\xE4ne f\xFCr heute [1:2: 228] Nov 29, 2020 06:36AM
Wie w\xE4re es mit einem hei\xDFen M\xE4dchen? [3:2: 523] Nov 29, 2020 06:32AM
starts now! [4:none: 1587] Nov 29, 2020 06:32AM
Cure High Cholesterol [9:none: 1561] Nov 29, 2020 06:32AM
Pharmacy [5:1: 9118] Nov 29, 2020 06:29AM
Hilfe wird dringend ben\xF6tigt [2:2: 568] Nov 29, 2020 06:27AM
kannst du mir helfen [1:2: 694] Nov 29, 2020 06:27AM
was machen wir [1:6: 2034] Nov 29, 2020 06:22AM
Auf jeden Fall bin ich froh, dass wir uns getroffen haben [2:4: 532] Nov 29, 2020 06:12AM
kannst du heute frei sein [1:1: 663] Nov 29, 2020 06:12AM
ys. [1:2: 4805] Nov 29, 2020 06:11AM
Entrenamiento Gerencial [6:3: 25] Nov 29, 2020 06:08AM
Cheap [1:12: 16117] Nov 29, 2020 06:03AM
RegEX=^stop spending [1:none: 385] Nov 29, 2020 06:02AM
Viagra [3:59: 230341] Nov 29, 2020 05:59AM
The best price for Cialis [5:47: 2779] Nov 29, 2020 05:59AM
RegEX=^Confirm Your Order$ [1:1: 460] Nov 29, 2020 05:53AM
RegEX=\p{Script=Cyrillic} [2:1: 12932] Nov 29, 2020 05:48AM
Home Warranty [1:none: 24228] Nov 29, 2020 05:44AM
Daily Deals [1:none: 175] Nov 29, 2020 05:36AM
Herpes [5:18: 18992] Nov 29, 2020 05:31AM
was werden wir machen? [1:none: 570] Nov 29, 2020 05:30AM
Shed Plans [2:3: 9020] Nov 29, 2020 05:06AM
hese revolutionary glasses [1:none: 280] Nov 29, 2020 05:04AM
RegEX=\$\d+ off\b [1:none: 20807] Nov 29, 2020 05:03AM
Time's Running Out [1:1: 170] Nov 29, 2020 05:01AM
Ich wette, du bist ein toller Kerl. Warum triffst du dich nicht mit einem M\xE4dchen wie mir? [1:3: 611] Nov 29, 2020 04:58AM
Woodworking [2:none: 42503] Nov 29, 2020 04:52AM
dich heute treffe [1:1: 655] Nov 29, 2020 04:51AM
Pain [9:1: 91728] Nov 29, 2020 04:41AM
Komm zu mir [1:2: 522] Nov 29, 2020 04:40AM
Ich werde dich fragen [1:2: 612] Nov 29, 2020 04:40AM
If you take Statins, read this warning [10:none: 182] Nov 29, 2020 04:40AM
Bluetooth Speaker [2:none: 831] Nov 29, 2020 04:34AM
Blood Sugar [12:13: 17461] Nov 29, 2020 04:30AM
Ist dein Charakter so hart wie deine Muskeln [1:1: 449] Nov 29, 2020 04:24AM
bist du ein alter Gott [2:1: 575] Nov 29, 2020 04:23AM
I have a beneficial deal for you. [1:none: 4] Nov 29, 2020 04:23AM
Hey, erinnerst du dich, ich habe versprochen, das Video zu zeigen? Genie\xDFen ;) [2:2: 552] Nov 29, 2020 04:22AM
No Prostate Pills [8:none: 108] Nov 29, 2020 04:22AM
New Technology [1:none: 43] Nov 29, 2020 04:17AM
Fall Savings Are Here [1:none: 50] Nov 29, 2020 04:11AM
The Biggest Sale of The Year [1:none: 65] Nov 29, 2020 04:07AM
Kommst du heute zu mir [1:3: 578] Nov 29, 2020 04:03AM
ich bin verloren [2:2: 577] Nov 29, 2020 04:03AM
Vielleicht wirst du w\xFCtend, aber es ist besser [2:1: 313] Nov 29, 2020 04:02AM
Medicare Plan [3:3: 9784] Nov 29, 2020 03:59AM
Mature Singles [1:none: 6991] Nov 29, 2020 03:53AM
I think such a beauty like [1:none: 394] Nov 29, 2020 03:52AM
Date Easy With [2:none: 1180] Nov 29, 2020 03:52AM
New Private Message from [1:none: 240] Nov 29, 2020 03:52AM
DroneX Pr [1:1: 921] Nov 29, 2020 03:49AM
Single women [1:none: 564] Nov 29, 2020 03:48AM
foldable lightweight drone [1:none: 157] Nov 29, 2020 03:47AM
Das ist der Mann meiner Tr\xE4ume! [1:none: 534] Nov 29, 2020 03:46AM
F6nnen wir einen Termin f\xFCr morgen vereinbaren? [1:5: 561] Nov 29, 2020 03:46AM
special request [1:none: 295] Nov 29, 2020 03:29AM
How to build sheds like lego bricks [2:3: 63] Nov 29, 2020 03:23AM
Accelerates Alzheimer [6:4: 611] Nov 29, 2020 03:22AM
Solar [3:1: 44822] Nov 29, 2020 03:21AM
Dear Beneficiary [1:none: 411] Nov 29, 2020 03:20AM
Brilliant Products You Should Get [1:2: 191] Nov 29, 2020 03:11AM
Perfect Vision [2:none: 83] Nov 29, 2020 02:51AM
Belly Fat [9:30: 18639] Nov 29, 2020 02:47AM
Drink this before breakfast burns [2:2: 217] Nov 29, 2020 02:46AM
20/20 vision [3:none: 10086] Nov 29, 2020 02:43AM
RE: [Important] Confirm your 2020 Best of Business Award [1:none: 15] Nov 29, 2020 02:42AM
Massage [1:1: 4305] Nov 29, 2020 02:40AM
Letters From Santa [1:none: 228] Nov 29, 2020 02:38AM
japanese tonic [2:none: 14] Nov 29, 2020 02:36AM
Regarding Zoom Conference call [3:45: 918] Nov 29, 2020 02:35AM
type 2 diabetes [5:4: 4905] Nov 29, 2020 02:29AM
RegEX=^Mixture\ Melts\ \d+\ pound [1:none: 186] Nov 29, 2020 02:24AM
pharma [1:2: 5330] Nov 29, 2020 02:23AM
LinkedIn Leads at [4:none: 995] Nov 29, 2020 02:19AM
und ich dachte, ich werde keinen Mann treffen [1:none: 608] Nov 29, 2020 02:13AM
She lost a Massive [4:3: 20] Nov 29, 2020 02:12AM
Massive Mistake Melts [3:4: 625] Nov 29, 2020 02:12AM
Tree Every Prepper [1:none: 374] Nov 29, 2020 02:06AM
Ich m\xF6chte dich am Wochenende treffen [2:2: 452] Nov 29, 2020 02:06AM
Machen wir das [1:none: 515] Nov 29, 2020 01:47AM
Es ist unglaublich verwirrend und treibt mich gleichzeitig an. Beobachten Sie, bis ich es aus dem Zugang entfernt habe. [1:2: 566] Nov 29, 2020 01:37AM
RegEX=weight.\s*loss [7:17: 50234] Nov 29, 2020 01:37AM
Doctors give kidney sufferers the wrong diet [3:4: 29] Nov 29, 2020 01:35AM
Sogar deine Augen k\xF6nnen mir sagen, wie sicher du bist. [1:2: 504] Nov 29, 2020 01:30AM
timeshare [6:none: 61550] Nov 29, 2020 01:22AM
Was macht so ein wundersch\xF6ner Mann hier [1:1: 422] Nov 29, 2020 01:22AM
Kommen wir heute Abend etwas n\xE4her [1:5: 408] Nov 29, 2020 01:18AM
ht) [4:none: 187] Nov 29, 2020 01:16AM
Lass es uns am Wochenende machen [2:2: 612] Nov 29, 2020 01:16AM
Loan Pay Back in [2:none: 78] Nov 29, 2020 01:14AM
Up to $ [2:7: 29896] Nov 29, 2020 01:14AM
Personal loan [1:1: 2755] Nov 29, 2020 01:13AM
The latest generation Smart Watch [1:none: 201] Nov 29, 2020 01:13AM
oponopono Certification [1:1: 3065] Nov 29, 2020 01:10AM
While Supplies Last [8:1: 2823] Nov 29, 2020 01:08AM
smartwatch [1:21: 4505] Nov 29, 2020 01:07AM
RegEX=^\W?Hey\W?$ [1:none: 60106] Nov 29, 2020 01:03AM
Erinnerst du dich an das Wochenende [1:2: 279] Nov 29, 2020 12:57AM
ve Been Nominated [5:15: 8578] Nov 29, 2020 12:48AM
Ukrainian beauties [2:2: 770] Nov 29, 2020 12:38AM
Chat with [1:1: 9127] Nov 29, 2020 12:38AM
s she your Ukrainian fortune [1:none: 153] Nov 29, 2020 12:38AM
Hot Ukraine girls [1:none: 146] Nov 29, 2020 12:38AM
deals are here [2:3: 580] Nov 29, 2020 12:36AM
k\xF6nnen Sie mir helfen? [1:none: 533] Nov 29, 2020 12:29AM
Was wirst du heute tun? [1:1: 579] Nov 29, 2020 12:18AM
Ich habe das lange vorbereitet, aber es hat sich gelohnt, Ihre Reaktion zu sehen ... Schauen Sie! [1:1: 582] Nov 29, 2020 12:09AM
Deshalb liebe ich unsere Partys! Schau einfach hier [none:5: 604] Nov 28, 2020 11:36PM
Alter, am wichtigsten, setzen Sie sich zuerst und klicken Sie dann auf den Link. Und sei auf einen Schock vorbereitet! [none:3: 531] Nov 28, 2020 11:25PM
brain [none:10: 35736] Nov 28, 2020 11:19PM
Breaking News: [none:1: 3468] Nov 28, 2020 11:10PM
Was machst du am Wochenende [none:2: 571] Nov 28, 2020 11:00PM
Your Book [none:3: 454] Nov 28, 2020 10:50PM
SilverSingles [none:6: 4963] Nov 28, 2020 10:46PM
Mich selbst erinnern [none:1: 440] Nov 28, 2020 10:34PM
Read your message before it gets deleted [none:11: 444] Nov 28, 2020 09:50PM
es scheint mir [none:3: 393] Nov 28, 2020 09:49PM
Kann ich dich fragen [none:3: 614] Nov 28, 2020 09:46PM
RegEX=^\p{Block: Miscellaneous Symbols} [none:2: 5277] Nov 28, 2020 09:32PM
laser [none:3: 9925] Nov 28, 2020 09:29PM
Was machst du morgen [none:2: 554] Nov 28, 2020 09:06PM
RegEX=^\W*Hello\W*$ [none:1: 3279] Nov 28, 2020 09:00PM
RegEX=^what you [none:6: 2536] Nov 28, 2020 08:55PM
Ich brauche wirklich Hilfe [none:1: 563] Nov 28, 2020 08:55PM
a? [none:3: 7674] Nov 28, 2020 08:55PM
mit schlaffen Kiefern durch die Stra\xDFen gehen! [none:2: 611] Nov 28, 2020 08:34PM
es scheint, ich bin bereit, heute dein zu sein. [none:3: 525] Nov 28, 2020 08:27PM
Du bist frei [none:2: 659] Nov 28, 2020 08:11PM
Fat Cells [none:17: 979] Nov 28, 2020 08:06PM
RegEX=^Good Day\W*$ [none:1: 14015] Nov 28, 2020 08:04PM
wants you to [none:1: 553] Nov 28, 2020 08:01PM
Wei\xDFt du, wie man ein M\xE4dchen anmacht [none:2: 394] Nov 28, 2020 07:48PM
Oh Gooood, es ist das hei [none:2: 522] Nov 28, 2020 07:48PM
Dear Beloved [none:1: 316] Nov 28, 2020 07:32PM
Email Marketing [none:2: 2216] Nov 28, 2020 07:30PM
Schau, ich verstehe alles, aber das ist eine offene B\xFCste ... Schau hier und sag mir deine Meinung [none:2: 547] Nov 28, 2020 07:18PM
ich m\xF6chte Sie fragen [none:3: 527] Nov 28, 2020 07:10PM
exciting [none:8: 2410] Nov 28, 2020 06:59PM
Inflammation [none:3: 1873] Nov 28, 2020 06:46PM
RegEX=^Explore\b [none:4: 4966] Nov 28, 2020 06:44PM
Just for you [none:3: 3256] Nov 28, 2020 06:30PM
Vergiss morgen nicht [none:1: 560] Nov 28, 2020 06:21PM
Hilfe wird ben [none:3: 619] Nov 28, 2020 05:32PM
Free Gift [none:1: 5152] Nov 28, 2020 05:02PM
CVS reward Open immediately! [none:3: 114] Nov 28, 2020 05:00PM
Lbs Of Fat [none:4: 2064] Nov 28, 2020 04:52PM
Kannst du mich heute treffen [none:3: 1249] Nov 28, 2020 04:45PM
Claim Your Fifty Dollar CVS Reward [none:3: 157] Nov 28, 2020 04:37PM
Claim Your Fifty Dollar CVS Offer [none:3: 62] Nov 28, 2020 04:35PM
RegEX=^don.?t\slet\b [none:4: 3218] Nov 28, 2020 04:17PM
You are eligible! [none:1: 103] Nov 28, 2020 03:55PM
Wenn alle M\xE4nner gleich w\xE4ren wie du [none:3: 507] Nov 28, 2020 03:55PM
you could win [none:4: 2063] Nov 28, 2020 03:45PM
the perfect gift [none:2: 267] Nov 28, 2020 03:43PM
Days left to [none:2: 636] Nov 28, 2020 03:34PM
penis [none:25: 44714] Nov 28, 2020 03:19PM
for longer [none:4: 17] Nov 28, 2020 03:19PM
youre [none:1: 542] Nov 28, 2020 03:17PM
shipped just over the border [none:1: 8] Nov 28, 2020 03:14PM
Pharmaceutical companies in the USA win, you lose [none:1: 7] Nov 28, 2020 03:13PM
While Trump seeks to improve medication prices in the USA [none:3: 11] Nov 28, 2020 03:13PM
burns fat [none:3: 3293] Nov 28, 2020 03:01PM
RegEX=Burn.FAT [none:2: 8830] Nov 28, 2020 02:58PM
Stubborn Fat [none:3: 1016] Nov 28, 2020 02:56PM
Your debt [none:6: 5179] Nov 28, 2020 02:51PM
Congrats! You've received an CVS reward [none:1: 73] Nov 28, 2020 02:50PM
RegEX=^Hi$ [none:2: 249408] Nov 28, 2020 02:34PM
Ich frage dich [none:3: 621] Nov 28, 2020 02:32PM
manhood [none:13: 3828] Nov 28, 2020 02:31PM
am Wochenende kannst du [none:1: 556] Nov 28, 2020 02:21PM
cinnamon tea [none:6: 75] Nov 28, 2020 02:19PM
Cinnamon spice tea [none:9: 44] Nov 28, 2020 02:19PM
clean your ears [none:1: 853] Nov 28, 2020 01:52PM
Oh, wo warst du mein ganzes Leben lang? [none:4: 431] Nov 28, 2020 01:47PM
Your Family Will Love Finding These Gadgets Under the Tree ? [none:2: 4] Nov 28, 2020 01:45PM
Gadget And Gizmos [none:1: 71] Nov 28, 2020 01:42PM
defend yourself [none:1: 234] Nov 28, 2020 01:17PM
Just 1 sip before bed and you're set [none:1: 87] Nov 28, 2020 01:11PM
presupuesto [none:2: 271] Nov 28, 2020 12:45PM
SEO [none:3: 4009] Nov 28, 2020 12:41PM
Amazing Gadgets [none:1: 68] Nov 28, 2020 12:39PM
Stock to Buy [none:1: 224] Nov 28, 2020 12:38PM
Best drink after dinner [none:3: 233] Nov 28, 2020 12:28PM
Best drink before bed [none:5: 197] Nov 28, 2020 12:27PM
Your Belly [none:12: 7427] Nov 28, 2020 12:19PM
Weekly Wrap Up [none:2: 136] Nov 28, 2020 12:06PM
Say goodbye to [none:8: 5184] Nov 28, 2020 12:05PM
Versuchen wir uns kennenzulernen [none:1: 547] Nov 28, 2020 11:51AM
One half glass of water plus THIS [none:10: 54] Nov 28, 2020 11:33AM
???? [none:1: 782] Nov 28, 2020 11:18AM
Swells Your Prostate [none:3: 16] Nov 28, 2020 11:16AM
Try This [none:7: 20498] Nov 28, 2020 11:15AM
Mudrooms are disappearing [none:1: 2] Nov 28, 2020 11:14AM
Health Online Order [none:1: 421] Nov 28, 2020 11:11AM
if you have an enlarged prostate [none:3: 18] Nov 28, 2020 11:09AM
great deals [none:1: 703] Nov 28, 2020 11:04AM
Bring Your Doorbell Into the 21st Century [none:5: 725] Nov 28, 2020 10:57AM
Video Doorbell [none:8: 1891] Nov 28, 2020 10:56AM
Cannabis [none:2: 22833] Nov 28, 2020 10:55AM
credit score [none:16: 7389] Nov 28, 2020 10:34AM
The Ultimate How To Guide to Building a Shipping Container Home [none:10: 14] Nov 28, 2020 10:24AM
Lasik [none:1: 2232] Nov 28, 2020 10:23AM
savings for the bedroom [none:1: 18] Nov 28, 2020 10:22AM
"Magical" [none:7: 4208] Nov 28, 2020 10:22AM
Off Site wide [none:1: 223] Nov 28, 2020 10:18AM
Clogged Gutters [none:1: 984] Nov 28, 2020 10:13AM
Gutter Guard [none:1: 1147] Nov 28, 2020 10:12AM
Exclusive Offer [none:3: 1350] Nov 28, 2020 10:12AM
teeth whitening [none:14: 1476] Nov 28, 2020 10:12AM
Protect Your [none:3: 66243] Nov 28, 2020 10:11AM
Trump is [none:1: 2375] Nov 28, 2020 10:06AM
Bottles of Wine [none:1: 2314] Nov 28, 2020 10:04AM
Ready To Impress Your Guests [none:1: 46] Nov 28, 2020 10:03AM
Your Cat [none:6: 5122] Nov 28, 2020 10:03AM
We're Making a List... Of the Hottest Gadget Gifts of the Season! [none:1: 23] Nov 28, 2020 09:54AM
[NEW] Text To Speech for 2020 [none:4: 46] Nov 28, 2020 09:53AM
add me to your professional network [none:3: 400] Nov 28, 2020 09:26AM
RegEX=\bketo\b [none:9: 21776] Nov 28, 2020 09:16AM
3D Printing Pen With LED Screen For Kids Design/Model Drawing [none:1: 10] Nov 28, 2020 09:14AM
Wordpress Website Design at [none:1: 17] Nov 28, 2020 09:13AM
wie viele Fantasien erwachst du in meinem Kopf! [none:1: 540] Nov 28, 2020 09:08AM
RegEX=^\ Guest\ Payment\ Confirmation\ Reference\ \#\ \d+\ \d+$ [none:1: 1162] Nov 28, 2020 09:02AM
Order now [none:2: 8291] Nov 28, 2020 08:59AM
snoring [none:14: 12059] Nov 28, 2020 08:57AM
drugs online [none:1: 580] Nov 28, 2020 08:56AM
Walmart [none:5: 25200] Nov 28, 2020 08:54AM
ATTN: Mistakes on Your Account [none:6: 184] Nov 28, 2020 08:54AM
Ich wei\xDF nicht wo ich bin [none:1: 543] Nov 28, 2020 08:53AM
Green Veggie INFLAMES Diabetes Type 2 (Avoid) [none:9: 607] Nov 28, 2020 08:49AM
ATTN: Verify Your Records [none:7: 155] Nov 28, 2020 08:48AM
Your Account May Have Changed [none:9: 206] Nov 28, 2020 08:47AM
Amazing Invention [none:3: 565] Nov 28, 2020 08:43AM
Virtually Indestructible Drone [none:1: 36] Nov 28, 2020 08:40AM
You'll Never see a drone like this [none:2: 65] Nov 28, 2020 08:40AM
your next drone [none:1: 105] Nov 28, 2020 08:38AM
perfect for you [none:1: 689] Nov 28, 2020 08:38AM
affordable drone [none:1: 1984] Nov 28, 2020 08:36AM
Wow, was f\xFCr ein h\xFCbscher ... [none:2: 537] Nov 28, 2020 08:30AM
Check out these [none:1: 3872] Nov 28, 2020 08:25AM
:) [none:2: 370] Nov 28, 2020 08:22AM
The final [none:2: 357] Nov 28, 2020 08:19AM
ATTN: Check For Unknown Transactions [none:4: 150] Nov 28, 2020 08:18AM
time to save on [none:2: 116] Nov 28, 2020 08:11AM
RegEX=^Start\b [none:6: 13089] Nov 28, 2020 08:09AM
Heart Attack [none:12: 25251] Nov 28, 2020 08:07AM
exclusive savings [none:1: 355] Nov 28, 2020 07:34AM
Price Drops: we thought you'd want a heads up on these deals [none:1: 7] Nov 28, 2020 07:32AM
K\xF6nntest du mich heute treffen [none:2: 576] Nov 28, 2020 07:31AM
Ich sehe dich an und kann nicht widerstehen! [none:2: 506] Nov 28, 2020 07:25AM
BREXIT [none:1: 2334] Nov 28, 2020 07:02AM
Lose Weight [none:7: 16185] Nov 28, 2020 06:57AM
Career [none:5: 51267] Nov 28, 2020 06:35AM
ATTN: Your Account Information May Have Changed [none:3: 114] Nov 28, 2020 06:29AM
Superfood [none:1: 1034] Nov 28, 2020 06:08AM
Add this to your water ASAP [none:6: 317] Nov 28, 2020 06:04AM
Fly a real airline route on autopilot [none:1: 620] Nov 28, 2020 05:51AM
your health [none:1: 14401] Nov 28, 2020 05:49AM
Propieades de lujo en Buenos Aires [none:1: 10] Nov 28, 2020 05:42AM
Tasty drink Helps you Get Thin Fast! [none:5: 39] Nov 28, 2020 05:41AM
Odd ???breakfast drink??? melts 23 LBS, sip before 9am [none:2: 22] Nov 28, 2020 05:41AM
end obesity [none:1: 4009] Nov 28, 2020 05:39AM
Car Insurance [none:9: 5088] Nov 28, 2020 05:31AM
erection [none:3: 23348] Nov 28, 2020 05:15AM
Reward! [none:1: 2759] Nov 28, 2020 05:15AM
Hurry up! [none:8: 161] Nov 28, 2020 05:14AM
RegEX=S\WX [none:3: 7171] Nov 28, 2020 05:13AM
Never pay for [none:4: 4649] Nov 28, 2020 05:08AM
Flat Belly [none:6: 1557] Nov 28, 2020 05:04AM
Nouveaux biens pour vous sur JUSTIMMO [none:1: 175] Nov 28, 2020 05:02AM
RegEX=^do this to\b [none:3: 1034] Nov 28, 2020 05:01AM
RegEX=^Delivery address for your shipment$ [none:3: 433] Nov 28, 2020 04:50AM
RegEX=^Shipping address required for delivery$ [none:1: 284] Nov 28, 2020 04:50AM
background check [none:1: 2836] Nov 28, 2020 04:48AM
New Survival/defense tool [none:1: 478] Nov 28, 2020 04:48AM
Ich konnte nicht widerstehen und vorbeigehen! [none:2: 585] Nov 28, 2020 04:33AM
WORST Food You Can Possibly Eat [none:4: 110] Nov 28, 2020 04:29AM
The closest thing to flying a REAL plane! [none:2: 3434] Nov 28, 2020 04:28AM
Your Eyes [none:12: 11512] Nov 28, 2020 04:25AM
Enjoyable Flying Game [none:1: 628] Nov 28, 2020 04:18AM
RegEX=^Get this [none:2: 3301] Nov 28, 2020 04:05AM
disposable mask [none:1: 479] Nov 28, 2020 04:05AM
Learn more piano chords using amazing memory tricks [none:1: 104] Nov 28, 2020 04:03AM
DIY Hack [none:4: 2784] Nov 28, 2020 03:56AM
year disaster looms over America... [none:5: 1139] Nov 28, 2020 03:55AM
Your Fifty Dollar CVS Offer Is Waiting [none:1: 28] Nov 28, 2020 03:54AM
Work at home [none:4: 1112] Nov 28, 2020 03:47AM
Learn Piano [none:2: 4044] Nov 28, 2020 03:43AM
Working from home [none:2: 1002] Nov 28, 2020 03:26AM
boost your [none:5: 6181] Nov 28, 2020 03:26AM
Doctors Speechless [none:1: 411] Nov 28, 2020 03:24AM
is what you need [none:2: 217] Nov 28, 2020 03:23AM
For FREE [none:7: 17346] Nov 28, 2020 03:23AM
Get 300mbps wifi connection [none:2: 707] Nov 28, 2020 03:23AM
Secret WiFi Boosting Device [none:1: 444] Nov 28, 2020 03:23AM
WifiBoost [none:1: 1401] Nov 28, 2020 03:21AM
Lightweight Face Masks Protect Against Bacteria [none:6: 16] Nov 28, 2020 03:21AM
Try on Glasses Wherever, Whenever [none:1: 86] Nov 28, 2020 03:18AM
Kidney Disease Solution [none:5: 64] Nov 28, 2020 03:12AM
Please complete your application money could be [none:1: 40] Nov 28, 2020 03:12AM
Available by tomorrow [none:1: 40] Nov 28, 2020 03:11AM
RegEX=^\$\d+\,\d+\ Deposited\ in\ Your\ Account\ Next\ Day\.\ See\ Details$ [none:1: 93] Nov 28, 2020 03:10AM
Costco reward Open immediately [none:11: 35] Nov 28, 2020 03:09AM
An Easier Way To Buy Glasses [none:1: 23] Nov 28, 2020 03:06AM
An CVS reward has arrived [none:1: 70] Nov 28, 2020 03:03AM
Reverses Diabetes [none:1: 3682] Nov 28, 2020 02:52AM
BarXStop [none:2: 61] Nov 28, 2020 02:44AM
Moisturizer That Removes The Signs Of Aging [none:2: 76] Nov 28, 2020 02:42AM
year old skin secret [none:4: 45] Nov 28, 2020 02:41AM
your skin [none:6: 2687] Nov 28, 2020 02:41AM
El arte de hablar [none:2: 214] Nov 28, 2020 02:39AM
oung looking skin [none:1: 68] Nov 28, 2020 02:39AM
back pain [none:5: 10703] Nov 28, 2020 02:36AM
RegEX=Loses \d+lbs With [none:2: 246] Nov 28, 2020 02:32AM
Important Message for you [none:4: 271] Nov 28, 2020 02:31AM
now she looks like THIS [none:4: 359] Nov 28, 2020 02:29AM
crush food cravings [none:6: 383] Nov 28, 2020 02:15AM
Schau mal, wer hier bei uns ist [none:1: 561] Nov 28, 2020 01:53AM
Days to Combat Handgun Accurac [none:10: 62] Nov 28, 2020 01:52AM
Control your dog's bad habits [none:1: 123] Nov 28, 2020 01:44AM
Looking For Love [none:4: 859] Nov 28, 2020 01:38AM
LEARN HOW [none:1: 6679] Nov 28, 2020 01:23AM
find out [none:4: 19873] Nov 28, 2020 01:19AM
on any mole [none:13: 1667] Nov 28, 2020 01:14AM
Impotence and ED [none:1: 40] Nov 28, 2020 01:12AM
Suffer From [none:1: 781] Nov 28, 2020 01:10AM
Ich bin mir nicht sicher, ob es im Netzwerk verbreitet werden musste, aber es ist etwas sp\xE4t. Hier bewerten [none:1: 541] Nov 28, 2020 01:05AM
This Device Boosts Your Home Wifi [none:1: 577] Nov 28, 2020 12:53AM
Get the Recognition you Deserve and Get Ahead [none:1: 1142] Nov 28, 2020 12:40AM
Like it or not this just happened [none:1: 43] Nov 28, 2020 12:04AM
Think your safe... Think again [none:2: 31] Nov 28, 2020 12:03AM
Get the #1 Multi State Gun Permit [none:none: 751] Nov 27, 2020 11:59PM
Grandfather In Your Multi State [none:none: 555] Nov 27, 2020 11:59PM
Did you hear about this [none:none: 193] Nov 27, 2020 11:59PM
milfs [none:none: 267] Nov 27, 2020 11:49PM
from your waist [none:none: 238] Nov 27, 2020 11:42PM
shred fat [none:none: 523] Nov 27, 2020 11:41PM
Pure fat in a week [none:none: 26] Nov 27, 2020 11:38PM
There's Still Time! [none:none: 69] Nov 27, 2020 11:33PM
pièces à Lausanne disponible à la vente sur acheter [none:none: 194] Nov 27, 2020 10:52PM
Stop Snoring [none:none: 1564] Nov 27, 2020 10:51PM
your snoring [none:none: 2323] Nov 27, 2020 10:51PM
Attn: Beneficiary [none:none: 98] Nov 27, 2020 10:05PM
Branded Masks [none:none: 23] Nov 27, 2020 09:21PM
rock hard [none:none: 4320] Nov 27, 2020 08:39PM
50.00 [none:none: 2082] Nov 27, 2020 08:03PM
MIT Device Cuts Power Bills By [none:none: 1107] Nov 27, 2020 07:55PM
This New Energy Method is taking the World by Storm [none:none: 151] Nov 27, 2020 07:55PM
Save $975 a Year on Power Using This No Brainer MIT Discovery [none:none: 1496] Nov 27, 2020 07:55PM
RegEX=Saves\ \$\d+\ a\ Year [none:none: 1054] Nov 27, 2020 07:53PM
One Trick To Save On Electrcitity [none:none: 140] Nov 27, 2020 07:51PM
energy efficient [none:none: 3890] Nov 27, 2020 07:49PM
Baldness [none:none: 3042] Nov 27, 2020 07:14PM
Your Hair [none:none: 13131] Nov 27, 2020 07:14PM
We Can Help [none:none: 4753] Nov 27, 2020 07:14PM
hair growth [none:none: 4795] Nov 27, 2020 07:10PM
CRAZY CAP & BEANIE PRICE [none:none: 340] Nov 27, 2020 07:01PM
Dear Friend [none:none: 429] Nov 27, 2020 06:41PM
Big Drone Companies Are Terrified [none:none: 950] Nov 27, 2020 06:26PM
Drone for $ [none:none: 1052] Nov 27, 2020 06:25PM
RegEX=^urgent$ [none:none: 55] Nov 27, 2020 06:19PM
Cybersecurity [none:none: 247] Nov 27, 2020 04:32PM
% off everything [none:none: 1170] Nov 27, 2020 04:00PM
Suites modernas y de primer nivel [none:none: 7] Nov 27, 2020 03:37PM
for Sharper Eyesight [none:none: 43] Nov 27, 2020 03:12PM
Anti theft Magic Waterproof Gun Bag [none:none: none] Nov 27, 2020 03:02PM
RegEX=\bin bed\b [none:none: 15273] Nov 27, 2020 02:26PM
lbs in [none:none: 31521] Nov 27, 2020 02:16PM
Non Stick [none:none: 2768] Nov 27, 2020 01:56PM
Claim your $ [none:none: 22417] Nov 27, 2020 01:31PM
we're messaging you about a loan with [none:none: 100] Nov 27, 2020 01:16PM
get certified to carry a gun [none:none: 836] Nov 27, 2020 12:46PM
Gutter Protector [none:none: 763] Nov 27, 2020 12:22PM
Skip the ladder this Summer [none:none: 4] Nov 27, 2020 12:22PM
Summer $250 [none:none: 15] Nov 27, 2020 12:16PM
Cops say brutal new tool is too powerful for most men (get yours here) [none:none: 725] Nov 27, 2020 12:14PM
Time is running out [none:none: 1799] Nov 27, 2020 12:05PM
a new car [none:none: 4474] Nov 27, 2020 11:58AM
Memory Loss [none:none: 4569] Nov 27, 2020 11:52AM
Simple and sensible loans [none:none: 70] Nov 27, 2020 11:21AM
Enjoy Our Flexible Re Payment Plans [none:none: 62] Nov 27, 2020 11:20AM
Yoga [none:none: 1816] Nov 27, 2020 10:58AM
burn more fat [none:none: 147] Nov 27, 2020 10:58AM
the Secret to [none:none: 6213] Nov 27, 2020 10:53AM
Prepping to Become ILLEGAL [none:none: 121] Nov 27, 2020 10:29AM
Libere espacio en su empresa oficina u hogar [none:none: 116] Nov 27, 2020 10:25AM
large capacity backpack [none:none: none] Nov 27, 2020 10:10AM
Personal Finance and Business News [none:none: 144] Nov 27, 2020 10:10AM
Unlock Massive Growth [none:none: 1216] Nov 27, 2020 09:46AM
earbuds [none:none: 189] Nov 27, 2020 09:43AM
Hit This Pressure Point To Increase Your Size [none:none: 99] Nov 27, 2020 09:42AM
Please Accept Your $ [none:none: 92] Nov 27, 2020 09:41AM
Grow Your Business [none:none: 556] Nov 27, 2020 09:31AM
At a Loss for What Holiday Gifts [none:none: none] Nov 27, 2020 09:26AM
CYBER SALE Still Time to Book [none:none: none] Nov 27, 2020 09:26AM
Hottest Gifts That You Need [none:none: 165] Nov 27, 2020 09:22AM
Porn Star [none:none: 405] Nov 27, 2020 09:20AM
Best Holiday Ever [none:none: 28] Nov 27, 2020 09:20AM
RegEX=^save on [none:none: 5067] Nov 27, 2020 09:09AM
CBD [none:none: 38113] Nov 27, 2020 09:02AM
Advanced Television.com's Daily News [none:none: 835] Nov 27, 2020 08:57AM
PromoCorner Specials Your Daily Digest [none:none: 781] Nov 27, 2020 08:49AM
Hair regrowth [none:none: 927] Nov 27, 2020 08:41AM
RegEX=\bregr.*hair\b [none:none: 5139] Nov 27, 2020 08:40AM
Testosterone [none:none: 20215] Nov 27, 2020 08:13AM
All the Medicinal Plants of North America [none:none: 752] Nov 27, 2020 08:11AM
RegEX=(house|home).*(worth|value) [none:none: 1291] Nov 27, 2020 08:04AM
Trump says [none:none: 319] Nov 27, 2020 07:43AM
RegEX=^Invoice \w+$ [none:none: 2796] Nov 27, 2020 07:20AM
Enter to win [none:none: 660] Nov 27, 2020 07:07AM
FRESH Start [none:none: 1994] Nov 27, 2020 07:02AM
Mind Blowing [none:none: 1781] Nov 27, 2020 06:43AM
pre approved [none:none: 1158] Nov 27, 2020 06:22AM
RegEX=^you (?:ca|wo)n [none:none: 27469] Nov 27, 2020 06:21AM
gutter protection [none:none: 1425] Nov 27, 2020 06:12AM
Weekly Travel Updates [none:none: 21] Nov 27, 2020 06:07AM
Tesla [none:none: 15127] Nov 27, 2020 06:04AM
a must have [none:none: 1236] Nov 27, 2020 06:04AM
Free Trial [none:none: 6083] Nov 27, 2020 06:03AM
Essential Oils [none:none: 87] Nov 27, 2020 06:01AM
powerful Wi Fi [none:none: 520] Nov 27, 2020 05:47AM
WiFi booster [none:none: 574] Nov 27, 2020 05:45AM
do this instead [none:none: 864] Nov 27, 2020 05:29AM
Are you still single [none:none: 1087] Nov 27, 2020 04:52AM
Beautiful Women [none:none: 1966] Nov 27, 2020 04:50AM
be able to resist [none:none: 215] Nov 27, 2020 04:50AM
RegEX=^Checking In$ [none:none: 458] Nov 27, 2020 04:45AM
Change your life [none:none: 3089] Nov 27, 2020 04:43AM
Nail Fungus [none:none: 50684] Nov 27, 2020 04:37AM
MUST SEE [none:none: 3921] Nov 27, 2020 04:37AM
gets you a girl [none:none: 1290] Nov 27, 2020 04:32AM
Hours Left [none:none: 3464] Nov 27, 2020 04:29AM
Strange device gets [none:none: 418] Nov 27, 2020 04:19AM
This strange device will start a huge scandal [none:none: 49] Nov 27, 2020 04:14AM
Do this hack to drop [none:none: 305] Nov 27, 2020 03:09AM
RegEX=^You\ have\ \(\d+\)\ Messages\ Pending\ Delivery\ On\ Your\ e\ Mail\ Portal$ [none:none: 15] Nov 27, 2020 02:49AM
Oregano oil [none:none: 165] Nov 27, 2020 02:35AM
Protect Against 95% of Harmful Particles [none:none: 34] Nov 27, 2020 02:34AM
juicy pussy [none:none: 281] Nov 27, 2020 02:27AM
magic of Christmas [none:none: 53] Nov 27, 2020 02:21AM
letter from Santa [none:none: 416] Nov 27, 2020 02:19AM
Credit Card Processing for [none:none: 129] Nov 27, 2020 02:15AM
hello Dear [none:none: 86] Nov 27, 2020 01:56AM
diabetic [none:none: 17530] Nov 27, 2020 01:41AM
Compressa Sock [none:none: 414] Nov 27, 2020 01:39AM
Re: Free Comprehensive Report [none:none: 43] Nov 27, 2020 01:38AM
skin tag [none:none: 29121] Nov 27, 2020 01:31AM
Share the phone screen to the TV [none:none: 58] Nov 27, 2020 01:27AM
KN95 Face Mask [none:none: 451] Nov 27, 2020 01:07AM
How you can do it [none:none: 371] Nov 27, 2020 12:29AM
Real people, Real fun [none:none: 743] Nov 27, 2020 12:29AM
Russian Women [none:none: 7876] Nov 27, 2020 12:15AM
Meet New Friends [none:none: 1050] Nov 27, 2020 12:14AM
60 Second Trick Rebuilds Your Teeth and Gums Overnight (Users Say It's Better Than Implants) [none:none: 69] Nov 27, 2020 12:13AM
Get Longer and Harder [none:none: 174] Nov 26, 2020 10:38PM
RegEX=^wake up [none:none: 668] Nov 26, 2020 10:24PM
RegEX=lost \d+ lbs [none:none: 484] Nov 26, 2020 09:30PM
Business capital solutions [none:none: 98] Nov 26, 2020 09:16PM
RegEX=^Loan Offer$ [none:none: 233] Nov 26, 2020 09:07PM
Employment [none:none: 6944] Nov 26, 2020 07:25PM
Cellulite [none:none: 5713] Nov 26, 2020 07:25PM
Fund Spy: [none:none: 456] Nov 26, 2020 07:21PM
go All Night [none:none: 456] Nov 26, 2020 07:19PM
Best Diet For Lazy People [none:none: 33] Nov 26, 2020 07:01PM
Drink this at night [none:none: 95] Nov 26, 2020 06:20PM
Sip on this before going to sleep [none:none: 77] Nov 26, 2020 06:18PM
Mosquito Bites [none:none: 62] Nov 26, 2020 06:10PM
flatten You [none:none: 1151] Nov 26, 2020 05:28PM
Of Americans Can Fix Their Vision With THIS [none:none: 30] Nov 26, 2020 03:52PM
Save HUGE on the best medications [none:none: 382] Nov 26, 2020 03:23PM
Dental Trick [none:none: 15] Nov 26, 2020 03:10PM
key west [none:none: 147] Nov 26, 2020 03:03PM
Spitting out blood after brushing your teeth? Do this NOW! [none:none: 2] Nov 26, 2020 03:02PM
Stop Paying [none:none: 1179] Nov 26, 2020 03:01PM
Hair Loss [none:none: 24491] Nov 26, 2020 02:35PM
Summer Savings [none:none: 2275] Nov 26, 2020 02:02PM
World Best Drugstore [none:none: 529] Nov 26, 2020 01:45PM
Most Cost Effective Drone on the Market [none:none: 70] Nov 26, 2020 01:06PM
Best drone for [none:none: 476] Nov 26, 2020 01:05PM
OFF Clearance [none:none: 504] Nov 26, 2020 01:01PM
The real reason [none:none: 3289] Nov 26, 2020 01:00PM
See Drone X Pro in action [none:none: 409] Nov 26, 2020 12:57PM
Thanksgiving Deal [none:none: 67] Nov 26, 2020 12:53PM
Food Banned In Europe, 100% Legal In USA [none:none: 247] Nov 26, 2020 12:24PM
expiring today [none:none: 714] Nov 26, 2020 12:21PM
Keep drinking more and you Will lose [none:none: 10] Nov 26, 2020 11:58AM
Indeed Account Validation [none:none: 1] Nov 26, 2020 11:15AM
RegEX=^make your\b [none:none: 5111] Nov 26, 2020 11:08AM
Take Advantage of [none:none: 2927] Nov 26, 2020 11:02AM
RegEX=\WMBA\W [none:none: 63347] Nov 26, 2020 10:44AM
The easiest way [none:none: 2138] Nov 26, 2020 10:08AM
TODAY only [none:none: 7168] Nov 26, 2020 10:00AM
Never wear glasses again [none:none: 525] Nov 26, 2020 09:41AM
MAKE IT STRONGER & HARDER [none:none: 3] Nov 26, 2020 09:22AM
act now [none:none: 3437] Nov 26, 2020 09:04AM
important information [none:none: 1056] Nov 26, 2020 08:43AM
Strange "water hack" burns 2lbs overnight [none:none: 307] Nov 26, 2020 08:40AM
won't last [none:none: 491] Nov 26, 2020 08:38AM
use peppermint oil for THIS [none:none: 23] Nov 26, 2020 08:34AM
Cancer [none:none: 30415] Nov 26, 2020 08:25AM
this drone is taking the world [none:none: 504] Nov 26, 2020 08:01AM
Best Drones that hit the market [none:none: 490] Nov 26, 2020 07:57AM
Stroke & Heart Disease Can be prevented [none:none: 122] Nov 26, 2020 07:49AM
Reverse Diabetes [none:none: 1707] Nov 26, 2020 07:44AM
Why Civil War Is Possible and Terrifying [none:none: 29] Nov 26, 2020 07:34AM
ClearView [none:none: 596] Nov 26, 2020 07:11AM
ADT [none:none: 11478] Nov 26, 2020 07:03AM
Your opinion matters [none:none: 389] Nov 26, 2020 07:02AM
This Common Morning Habit is Damaging Your DNA [none:none: 682] Nov 26, 2020 06:45AM
RegEX=^URGENT MESSAGE [none:none: 766] Nov 26, 2020 06:38AM
get super hard [none:none: 321] Nov 26, 2020 06:32AM
Have sex [none:none: 1845] Nov 26, 2020 06:27AM
Your vision [none:none: 5182] Nov 26, 2020 06:19AM
Adjustable Glasses [none:none: 20] Nov 26, 2020 06:17AM
dog [none:none: 9671] Nov 26, 2020 06:06AM
Blood pressure [none:none: 37065] Nov 26, 2020 05:47AM
Bitcoin [none:none: 30638] Nov 26, 2020 05:26AM
new products [none:none: 1291] Nov 26, 2020 05:15AM
on your TV [none:none: 1174] Nov 26, 2020 05:09AM
RegEX=^RE:$ [none:none: 6802] Nov 26, 2020 05:05AM
Neuropathy [none:none: 16747] Nov 26, 2020 04:51AM
cable TV [none:none: 8361] Nov 26, 2020 04:32AM
Shark Tank [none:none: 65238] Nov 26, 2020 04:15AM
1st Page On Google [none:none: 18] Nov 26, 2020 04:04AM
printer ink [none:none: 12235] Nov 26, 2020 03:56AM
Welcome to the future world of sex [none:none: 184] Nov 26, 2020 03:53AM
work from home [none:none: 5093] Nov 26, 2020 03:51AM
85% off [none:none: 11063] Nov 26, 2020 03:43AM
Im now down [none:none: 1283] Nov 26, 2020 03:41AM
RegEX=^NEW ORDER$ [none:none: 69] Nov 26, 2020 03:34AM
GPS Vehicle Tracker [none:none: 143] Nov 26, 2020 03:31AM
Track you car from anywhere [none:none: 354] Nov 26, 2020 03:28AM
Is This Odd Toxin [none:none: 21] Nov 26, 2020 03:26AM
Back to School [none:none: 1493] Nov 26, 2020 02:55AM
Commercial offer [none:none: 2756] Nov 26, 2020 02:28AM
my private album [none:none: 744] Nov 26, 2020 02:25AM
No Need to Go to the Store [none:none: 156] Nov 26, 2020 02:22AM
(1) new message [none:none: 1211] Nov 26, 2020 02:20AM
CCW Certificat [none:none: 205] Nov 26, 2020 02:12AM
Right To Carry Get Certified [none:none: 28] Nov 26, 2020 02:11AM
Concealed Carry Certification [none:none: 1290] Nov 26, 2020 02:11AM
Download your Certification of Competency to carry [none:none: 219] Nov 26, 2020 02:10AM
Get CCW certified Free [none:none: 1218] Nov 26, 2020 02:10AM
RegEX=^ID|Account \d+$ [none:none: 3707] Nov 26, 2020 01:43AM
Asian Beaut [none:none: 2045] Nov 26, 2020 01:42AM
RegEX=Meet hot \w+ singles [none:none: 399] Nov 26, 2020 01:41AM
View the Videos of [none:none: 35] Nov 26, 2020 01:10AM
vitiligo [none:none: 2406] Nov 26, 2020 12:48AM
Santa Letter [none:none: 138] Nov 26, 2020 12:33AM
Selfie [none:none: 2028] Nov 26, 2020 12:26AM
Survival Wire Saw [none:none: 1812] Nov 25, 2020 10:56PM
treat yourself [none:none: 1550] Nov 25, 2020 08:26PM
whiter teeth [none:none: 228] Nov 25, 2020 08:01PM
Chew on THIS for 60 seconds to rebuild your teeth & gums [none:none: 4] Nov 25, 2020 08:00PM
Stock Strategist [none:none: 715] Nov 25, 2020 07:46PM
Mattress [none:none: 17469] Nov 25, 2020 07:22PM
link between stainless steel and diabetes [none:none: 181] Nov 25, 2020 07:18PM
RegEX=Men Over \d+ [none:none: 1705] Nov 25, 2020 06:37PM
RegEX=w[ie][ie]rd.*trick [none:none: 4904] Nov 25, 2020 06:27PM
Boner [none:none: 9748] Nov 25, 2020 06:10PM
RegEX=^win\s [none:none: 2411] Nov 25, 2020 06:00PM
YOU HAVE BEEN SELECTED [none:none: 502] Nov 25, 2020 05:45PM
Garden Hose [none:none: 216] Nov 25, 2020 05:35PM
apple cider [none:none: 1792] Nov 25, 2020 05:25PM
Take this and drop 50 in one month [none:none: 10] Nov 25, 2020 05:19PM
Clock Is Ticking [none:none: 283] Nov 25, 2020 04:38PM
RegEX=^your account \w+ [none:none: 4476] Nov 25, 2020 04:29PM
Lass es uns morgen tun [none:none: 483] Nov 25, 2020 04:00PM
Glass America [none:none: 299] Nov 25, 2020 03:56PM
Government EIDL Funds Still Available [none:none: none] Nov 25, 2020 03:34PM
Oil Change [none:none: 20626] Nov 25, 2020 03:34PM
spy tech [none:none: 591] Nov 25, 2020 03:08PM
HARO [none:none: 5991] Nov 25, 2020 02:36PM
extra income [none:none: 452] Nov 25, 2020 02:30PM
"Rolf Garthoffner" [none:none: none] Nov 25, 2020 02:24PM
Sex Dating [none:none: 1053] Nov 25, 2020 02:02PM
Retire Rich on [none:none: 19] Nov 25, 2020 02:00PM
Top Deals You Don't Want to Miss [none:none: 2] Nov 25, 2020 01:52PM
their temperature [none:none: 126] Nov 25, 2020 01:33PM
bikini wax [none:none: 6] Nov 25, 2020 12:57PM
stem cells [none:none: 1095] Nov 25, 2020 11:54AM
Guys All Grew [none:none: 189] Nov 25, 2020 11:54AM
Fitness Trackers [none:none: 37] Nov 25, 2020 11:50AM
Ebook Creator [none:none: 567] Nov 25, 2020 11:50AM
Love you [none:none: 1261] Nov 25, 2020 11:40AM
eGift Card [none:none: 760] Nov 25, 2020 11:30AM
Do This Immediately [none:none: 157] Nov 25, 2020 11:02AM
Serial Robber Terrified After Entering [none:none: 1006] Nov 25, 2020 10:54AM
CLAIM Your Trump [none:none: 87] Nov 25, 2020 10:26AM
bottled water [none:none: 2655] Nov 25, 2020 10:11AM
Savings Start TODAY [none:none: 7] Nov 25, 2020 10:10AM
before it expires [none:none: 7492] Nov 25, 2020 10:01AM
Take this daily and drop 23 pounds in just 7 days [none:none: 7] Nov 25, 2020 09:38AM
enhance your [none:none: 1178] Nov 25, 2020 09:20AM
You may qualify for Financial Aid [none:none: 57] Nov 25, 2020 08:54AM
Healing Arthritis in 3 simple steps (for good) [none:none: 14] Nov 25, 2020 08:54AM
not too late [none:none: 1897] Nov 25, 2020 08:21AM
New Nutrisystem Personal Plans [none:none: 52] Nov 25, 2020 08:11AM
headlamp [none:none: 5361] Nov 25, 2020 08:03AM
your house [none:none: 4491] Nov 25, 2020 07:37AM
Das zieht mich sehr an [none:none: 543] Nov 25, 2020 07:32AM
private jet [none:none: 1023] Nov 25, 2020 07:13AM
Acid Reflux [none:none: 3712] Nov 25, 2020 06:45AM
The 3 plants you need to throw in your shopping cart to fight [none:none: 264] Nov 25, 2020 06:31AM
auto Insurance [none:none: 6912] Nov 25, 2020 06:20AM
security camera [none:none: 15547] Nov 25, 2020 06:18AM
Want Any Patches? (Melon Patches) [none:none: 52] Nov 25, 2020 06:14AM
RegEX=^why you [none:none: 4945] Nov 25, 2020 06:06AM
WiFi Ultra Boost [none:none: 412] Nov 25, 2020 05:30AM
Cleaning. Your. Gutters. Forever [none:none: 23] Nov 25, 2020 05:11AM
Order Today [none:none: 1874] Nov 25, 2020 05:02AM
Hearing Loss [none:none: 5637] Nov 25, 2020 05:00AM
primal muscle [none:none: 2998] Nov 25, 2020 04:42AM
Diet Hack [none:none: 40] Nov 25, 2020 04:33AM
More Effective Than Aspirin [none:none: 309] Nov 25, 2020 04:25AM
eBooks in under 60 seconds [none:none: 354] Nov 25, 2020 04:15AM
your electric bill [none:none: 3152] Nov 25, 2020 04:10AM
Stop Overpaying for Electricity [none:none: 69] Nov 25, 2020 04:06AM
Endlich sehe ich einen echten Mann [none:none: 325] Nov 25, 2020 04:03AM
This Simple Device Saves you [none:none: 42] Nov 25, 2020 04:01AM
: ) [none:none: 467] Nov 25, 2020 03:50AM
Create a product in 60 seconds [none:none: 653] Nov 25, 2020 03:50AM
Peace of mind [none:none: 2115] Nov 25, 2020 03:11AM
You're eligible for discounted pricing. [none:none: 3] Nov 25, 2020 03:10AM
simple trick [none:none: 7125] Nov 25, 2020 02:41AM
RegEX=^Boost\s [none:none: 2773] Nov 25, 2020 02:26AM
Are you sure that you're saving as much as you could [none:none: 134] Nov 25, 2020 02:11AM
no deposit offers [none:none: 241] Nov 25, 2020 02:01AM
Lottery [none:none: 2939] Nov 25, 2020 01:29AM
you may be [none:none: 561] Nov 25, 2020 01:10AM
New Miracle Sock [none:none: 250] Nov 25, 2020 12:40AM
Russian Beauties [none:none: 2393] Nov 25, 2020 12:34AM
Interested in singles See photos [none:none: 189] Nov 25, 2020 12:33AM
RegEX=Russian\WWoman [none:none: 3535] Nov 25, 2020 12:32AM
It's Free to Review Your Matches [none:none: 105] Nov 25, 2020 12:18AM
Russian Bride [none:none: 514] Nov 25, 2020 12:18AM
Russian Girls [none:none: 6972] Nov 25, 2020 12:12AM
Alzheimer's Quick Test [none:none: 92] Nov 24, 2020 10:57PM
Men Drugs Shop [none:none: 564] Nov 24, 2020 10:40PM
Looking for a [none:none: 10614] Nov 24, 2020 10:21PM
Canadian Rx Drugs [none:none: 506] Nov 24, 2020 10:17PM
RegEX=^Need Help? [none:none: 823] Nov 24, 2020 09:01PM
hearing aid [none:none: 4366] Nov 24, 2020 08:48PM
Improved Memory Overnight [none:none: 386] Nov 24, 2020 08:45PM
RegEX=^improve your\b [none:none: 3125] Nov 24, 2020 07:50PM
This drone is part of the latest wave [none:none: 263] Nov 24, 2020 07:34PM
Quick question [none:none: 1196] Nov 24, 2020 07:05PM
Fall Asleep [none:none: 2019] Nov 24, 2020 06:02PM
GET BACK TO ME [none:none: 325] Nov 24, 2020 05:52PM
Free Audit Report. [none:none: 238] Nov 24, 2020 05:16PM
revolutionary device [none:none: 418] Nov 24, 2020 04:30PM
Member Benefits Update [none:none: 217] Nov 24, 2020 03:48PM
Working Capital [none:none: 1130] Nov 24, 2020 03:16PM
Your one time only class starts right now [none:none: 4] Nov 24, 2020 03:16PM
Check Out the Latest Movies On Demand [none:none: 26] Nov 24, 2020 02:49PM
Diabetes Breakthrough [none:none: 1157] Nov 24, 2020 01:12PM
you have new [none:none: 471] Nov 24, 2020 12:55PM
BUCKS [none:none: 5833] Nov 24, 2020 12:46PM
Assisted Living [none:none: 2096] Nov 24, 2020 12:43PM
your prostate is the size of a lemon [none:none: 1548] Nov 24, 2020 12:40PM
Price Point [none:none: 268] Nov 24, 2020 12:25PM
Earn up to [none:none: 938] Nov 24, 2020 12:14PM
Don't miss your chance [none:none: 1272] Nov 24, 2020 12:11PM
Triple test para deteccion rapida [none:none: 3] Nov 24, 2020 12:04PM
NEXT WEEK!!! Grosso U's Virtual Closer's Bootcamp Nov. 30 Dec. [none:none: none] Nov 24, 2020 11:53AM
Gets Rid of Tooth Decay [none:none: 17] Nov 24, 2020 11:45AM
Things That Will Help In Your Fight Against [none:none: 1328] Nov 24, 2020 11:41AM
Much more than a Pillow [none:none: 172] Nov 24, 2020 11:10AM
enjoy up to [none:none: 118] Nov 24, 2020 11:01AM
Pulse Oximeter [none:none: 126] Nov 24, 2020 10:37AM
New Line of Credit [none:none: 31] Nov 24, 2020 10:33AM
Self Defense Tool [none:none: 53] Nov 24, 2020 10:20AM
second ritual melts [none:none: 879] Nov 24, 2020 10:18AM
Cops say unarmed men still lethal with this [none:none: 188] Nov 24, 2020 10:16AM
Inside) [none:none: 2499] Nov 24, 2020 10:06AM
InTech Training Calendar [none:none: 24] Nov 24, 2020 10:02AM
Buy Crypto Earn from 500 Euro per day [none:none: none] Nov 24, 2020 09:43AM
Tiny tool drops [none:none: 77] Nov 24, 2020 09:10AM
Herramientas FortKnox para fabricar abrazaderas [none:none: 48] Nov 24, 2020 08:53AM
Our gift to you [none:none: 343] Nov 24, 2020 08:37AM
Touchless Head Scan Thermometer [none:none: 189] Nov 24, 2020 08:19AM
Been Approved [none:none: 2165] Nov 24, 2020 08:14AM
We Miss You! [none:none: 106] Nov 24, 2020 08:02AM
Early Bird rates [none:none: 209] Nov 24, 2020 07:59AM
learn to read music [none:none: 2695] Nov 24, 2020 07:36AM
Free Registration [none:none: 211] Nov 24, 2020 07:32AM
RegEX=walk.*in.*tub [none:none: 10453] Nov 24, 2020 07:29AM
Open Enrollment [none:none: 5714] Nov 24, 2020 07:23AM
You Need This [none:none: 1412] Nov 24, 2020 07:18AM
Walgreens [none:none: 13228] Nov 24, 2020 06:34AM
Join us for the [none:none: 235] Nov 24, 2020 06:14AM
You've Been Selected [none:none: 645] Nov 24, 2020 05:13AM
Golf Ball Deals [none:none: 75] Nov 24, 2020 05:10AM
Eye Bags [none:none: 466] Nov 24, 2020 05:06AM
The ultimate solution for snoring [none:none: 85] Nov 24, 2020 05:02AM
Get instant access to 1 [none:none: 100] Nov 24, 2020 04:40AM
Knee Pain [none:none: 306] Nov 24, 2020 04:02AM
Enjoy the pleasant feeling of relaxation [none:none: 9] Nov 24, 2020 03:58AM
play piano video [none:none: 1086] Nov 24, 2020 03:46AM
Carry Legally [none:none: 204] Nov 24, 2020 03:11AM
Concealed Carry Training [none:none: 174] Nov 24, 2020 03:10AM
Buy One, Get One [none:none: 2374] Nov 24, 2020 02:01AM
RegEX=^take your [none:none: 2389] Nov 24, 2020 12:02AM
RegEX=^Order$ [none:none: 501] Nov 23, 2020 11:51PM
Just To Say Hello [none:none: 1121] Nov 23, 2020 11:36PM
100K Leads at 250 [none:none: 55] Nov 23, 2020 09:44PM
Borrow up to [none:none: 286] Nov 23, 2020 08:19PM
RegEX=need.*\?.*get [none:none: 337] Nov 23, 2020 08:19PM
Disinfecting Wipes [none:none: 160] Nov 23, 2020 08:00PM
Special Deals [none:none: 545] Nov 23, 2020 06:09PM
Urgent: Do you Have ED [none:none: 77] Nov 23, 2020 05:49PM
Sunglasses [none:none: 5422] Nov 23, 2020 05:49PM
RegEX=^here's how to [none:none: 971] Nov 23, 2020 04:23PM
we NEED you [none:none: 1447] Nov 23, 2020 04:13PM
RegEX=^get rid of [none:none: 3551] Nov 23, 2020 03:34PM
Seconds Dental Trick [none:none: 30] Nov 23, 2020 03:34PM
I NEED YOUR ASSISTANCE [none:none: 199] Nov 23, 2020 02:27PM
STOP Treating Fungus Now [none:none: 59] Nov 23, 2020 02:14PM
Special edition from AARP Family Caregiving: Guide to managing stress, finding some happiness in hard times, how to take care of your mental health and more. [none:none: none] Nov 23, 2020 02:07PM
AMAZING: Massive Economic Surge Coming It's Finally Happening... [Learn More] [none:none: none] Nov 23, 2020 02:07PM
claim your free [none:none: 2713] Nov 23, 2020 01:53PM
The Truth About [none:none: 5560] Nov 23, 2020 01:45PM
Hard Money [none:none: 227] Nov 23, 2020 12:51PM
hard as a rock [none:none: 2301] Nov 23, 2020 12:37PM
RegEX=^You want\b [none:none: 1274] Nov 23, 2020 12:21PM
passive income [none:none: 35] Nov 23, 2020 12:19PM
your Funds [none:none: 5188] Nov 23, 2020 11:55AM
Costa Rica [none:none: 1382] Nov 23, 2020 11:47AM
Software Download Sale! [none:none: 31] Nov 23, 2020 11:34AM
Bodegas Boutique cafe y aceite de oliva con descuentos [none:none: 10] Nov 23, 2020 11:28AM
Experian [none:none: 18595] Nov 23, 2020 11:24AM
Clean Flowing Gutters for Life [none:none: 247] Nov 23, 2020 10:11AM
RegEX=^Should you [none:none: 303] Nov 23, 2020 10:00AM
Exotic Herb Doubles Its Size [none:none: none] Nov 23, 2020 09:56AM
RegEX=^Compare\s [none:none: 11210] Nov 23, 2020 09:46AM
x brighter [none:none: 113] Nov 23, 2020 09:45AM
Ultra bright led [none:none: 159] Nov 23, 2020 09:44AM
tton swabs can damage inner ears [none:none: none] Nov 23, 2020 09:43AM
Our Cyber Deals are on NOW [none:none: none] Nov 23, 2020 09:43AM
Limited Time Offer [none:none: 5737] Nov 23, 2020 09:26AM
Game on! Chairs as low as [none:none: none] Nov 23, 2020 09:23AM
Managing Personal Protective Equipment [none:none: 32] Nov 23, 2020 09:21AM
Business Line of Credit [none:none: 516] Nov 23, 2020 09:16AM
Don't leave home without a mask. Get yours in 5 business days or less. [none:none: 59] Nov 23, 2020 09:11AM
botox [none:none: 2044] Nov 23, 2020 08:52AM
Your Retirement [none:none: 5068] Nov 23, 2020 08:46AM
Medicare supplement [none:none: 5554] Nov 23, 2020 08:42AM
Teclados de membrana frentes gabinetes y circuitos impresos [none:none: 7] Nov 23, 2020 08:18AM
RegEX=^I want to\b [none:none: 12285] Nov 23, 2020 08:01AM
losing weight [none:none: 2997] Nov 23, 2020 07:56AM
Have you seen this [none:none: 1572] Nov 23, 2020 07:54AM
Multiples usos que simplifican tu vida [none:none: 1] Nov 23, 2020 07:50AM
Anyone Can Easily Deactivate Any Infection [none:none: 8] Nov 23, 2020 07:05AM
for the upgrades you need [none:none: 24] Nov 23, 2020 06:30AM
American Home Shield [none:none: 206] Nov 23, 2020 06:14AM
Waiting for your response [none:none: 1225] Nov 23, 2020 06:02AM
never released before [none:none: 762] Nov 23, 2020 05:50AM
Cut Your Energy Bill [none:none: 2749] Nov 23, 2020 05:13AM
You May Still Qualify for Medicare [none:none: 15] Nov 23, 2020 04:55AM
t boost [none:none: 255] Nov 23, 2020 04:38AM
heater [none:none: 5052] Nov 23, 2020 04:00AM
Relieve Anxiety [none:none: 293] Nov 23, 2020 03:51AM
Drano for your bowels [none:none: 11] Nov 23, 2020 03:36AM
beauties waiting for you [none:none: 189] Nov 23, 2020 03:35AM
It's your 2nd Amendment right to carry [none:none: 162] Nov 23, 2020 03:11AM
perfect sleep [none:none: 114] Nov 23, 2020 03:11AM
Concealed Carry Now [none:none: 85] Nov 23, 2020 03:11AM
Exercise your right to carry [none:none: 157] Nov 23, 2020 03:11AM
Sip After Dinner Flattens Your Tummy [none:none: 212] Nov 23, 2020 02:48AM
Save Money on [none:none: 385] Nov 23, 2020 02:32AM
Claim Your Share of Amazon Prime Payout [none:none: 14] Nov 23, 2020 02:03AM
Numerology [none:none: 1822] Nov 23, 2020 01:46AM
Doctors Are Stunned By This Strange Link Between Diabetes And Eggs [none:none: 453] Nov 23, 2020 01:38AM
Crazy Guy Chops Off His Johnson [none:none: 41] Nov 23, 2020 01:35AM
Strong signal without dead angle [none:none: 128] Nov 23, 2020 01:14AM
Eliminates Connectivity Problems in Dead Zone [none:none: 151] Nov 23, 2020 01:14AM
Time to start thinking about Medicare [none:none: 145] Nov 23, 2020 01:12AM
Enjoy Your Safe Date [none:none: 598] Nov 23, 2020 12:56AM
Unlocked Her Private Video For You [none:none: 33] Nov 22, 2020 11:47PM
Women Are Waiting to Meet You [none:none: 402] Nov 22, 2020 11:31PM
Blowing Mould manufacturer(Top [none:none: 26] Nov 22, 2020 09:58PM
Anti Aging [none:none: 3270] Nov 22, 2020 06:13PM
bedroom performance [none:none: 1861] Nov 22, 2020 05:20PM
Dressez votre chien en [none:none: 5] Nov 22, 2020 04:41PM
Offer Ends [none:none: 1572] Nov 22, 2020 02:05PM
RegEX=^ATTENTION$ [none:none: 208] Nov 22, 2020 01:07PM
Car Rental [none:none: 6299] Nov 22, 2020 12:25PM
your photos [none:none: 3482] Nov 22, 2020 11:05AM
All Inclusive [none:none: 1520] Nov 22, 2020 10:10AM
this FREE canvas is yours [none:none: 10] Nov 22, 2020 09:45AM
Root Cause of Diabetes [none:none: 258] Nov 22, 2020 09:26AM
YOUR ATM CARD [none:none: 311] Nov 22, 2020 09:21AM
intimate [none:none: 341] Nov 22, 2020 09:17AM
RegEX=(?:Shed|Lo+se) \d+lbs [none:none: 5834] Nov 22, 2020 09:13AM
My Eerie "Reading" I Had About You Today [none:none: 13] Nov 22, 2020 08:37AM
Right to Carry A Gun [none:none: 868] Nov 22, 2020 07:07AM
Multi State Online CCW [none:none: 345] Nov 22, 2020 07:07AM
Your FREE Book [none:none: 191] Nov 22, 2020 06:52AM
Lemon and salt water [none:none: 125] Nov 22, 2020 06:47AM
Earwax [none:none: 326] Nov 22, 2020 06:10AM
Ear Wax [none:none: 7] Nov 22, 2020 05:56AM
Cure For Diabetes [none:none: 6] Nov 22, 2020 05:53AM
Get Paid to [none:none: 550] Nov 22, 2020 05:34AM
off grid [none:none: 1501] Nov 22, 2020 05:27AM
Play piano in a flash [none:none: 974] Nov 22, 2020 04:28AM
secret weapon [none:none: 3300] Nov 22, 2020 02:40AM
RegEX=Reverse.Mortg [none:none: 37517] Nov 22, 2020 02:37AM
Bedroom Beast [none:none: 304] Nov 22, 2020 02:22AM
DESTROYS Diabetes [none:none: 819] Nov 22, 2020 01:28AM
Warren Buffet [none:none: 5600] Nov 21, 2020 09:52PM
Transformadores Electricos [none:none: 488] Nov 21, 2020 06:38PM
Gunk free gutters for life Get them for 10% off now! [none:none: 40] Nov 21, 2020 05:45PM
RegEX=^hey there.*$ [none:none: 398] Nov 21, 2020 05:07PM
Prostate Solution [none:none: 108] Nov 21, 2020 03:56PM
% off with code [none:none: 139] Nov 21, 2020 02:43PM
Film ideales para hermetizar los teclados de todo t [none:none: 10] Nov 21, 2020 02:24PM
% Satisfaction Guaranteed [none:none: 43] Nov 21, 2020 02:11PM
Cure Hemorrhoids [none:none: 408] Nov 21, 2020 12:50PM
Amazing all natural Hemorrhoids breakthrough permanently eliminates Hemorrhoids issues without drugs or surgery. [none:none: 16] Nov 21, 2020 12:37PM
Deals Of The Day [none:none: 55] Nov 21, 2020 12:21PM
+ More! [none:none: 339] Nov 21, 2020 12:14PM
ketosis [none:none: 4351] Nov 21, 2020 12:13PM
Need A Mask? Check Out This Deal! [none:none: 103] Nov 21, 2020 11:24AM
Online Concealed Carry [none:none: 196] Nov 21, 2020 10:27AM
Concealed Weapons Certificate [none:none: 398] Nov 21, 2020 10:26AM
100% NATURAL [none:none: 1273] Nov 21, 2020 10:00AM
fat loss [none:none: 4574] Nov 21, 2020 09:08AM
fuck bud [none:none: 20] Nov 21, 2020 08:04AM
New Message From [none:none: 1283] Nov 21, 2020 07:04AM
In Case You Missed It [none:none: 185] Nov 21, 2020 07:04AM
The US Government Has Hidden This Inside NASA For The Last 4 Years [none:none: 190] Nov 21, 2020 07:02AM
improve your memory [none:none: 953] Nov 21, 2020 06:00AM
you MUST watch this [none:none: 1540] Nov 21, 2020 05:34AM
What Einstein Knew About [none:none: 400] Nov 21, 2020 05:19AM
Hidden technology leaks from NASA [none:none: 94] Nov 21, 2020 05:08AM
NASA wishes they knew about this secret technology [none:none: 207] Nov 21, 2020 05:00AM
Natural Way [none:none: 3811] Nov 21, 2020 04:54AM
one click [none:none: 1714] Nov 21, 2020 04:25AM
RegEX=^keep your\b [none:none: 3442] Nov 21, 2020 03:44AM
Diabetes Cure [none:none: 1435] Nov 21, 2020 02:39AM
It might be too late... (open now) [none:none: 193] Nov 21, 2020 02:10AM
open this... [none:none: 55] Nov 21, 2020 02:10AM
Sleeping on the couch because of snoring? Here is the solution [none:none: 159] Nov 21, 2020 01:38AM
dementia [none:none: 22976] Nov 20, 2020 09:46PM
Your Invitation [none:none: 859] Nov 20, 2020 07:04PM
Stocks Set to [none:none: 2812] Nov 20, 2020 05:53PM
you've been waiting for [none:none: 58] Nov 20, 2020 01:19PM
creamos gran variedad de Fuentes [none:none: 45] Nov 20, 2020 01:16PM
Sistema AntiSarro Electronico [none:none: 442] Nov 20, 2020 12:51PM
REMINDER: Your Eligibility [none:none: none] Nov 20, 2020 12:46PM
Do you have a project you need funded [none:none: none] Nov 20, 2020 12:43PM
get your free [none:none: 12220] Nov 20, 2020 12:30PM
Sabores unicos directo desde el corazon de la Patagonia [none:none: 43] Nov 20, 2020 11:58AM
The latest news for you [none:none: 192] Nov 20, 2020 11:45AM
DIY foam hand wash [none:none: 84] Nov 20, 2020 10:55AM
Number is Nature [none:none: 618] Nov 20, 2020 10:25AM
La pista de Karting mas grande [none:none: 198] Nov 20, 2020 10:13AM
Save 50% on [none:none: 1313] Nov 20, 2020 10:04AM
Onboarding [none:none: 645] Nov 20, 2020 09:59AM
Lo‪‪o‪ki‪ng for ‪‪a‪‪‪‪‪ Home ‪Wa‪rra‪nty [none:none: none] Nov 20, 2020 09:18AM
Smart Security, Smart Home Savings [none:none: 31] Nov 20, 2020 09:01AM
Account Based Marketing [none:none: 127] Nov 20, 2020 09:00AM
shooter reveals [none:none: 305] Nov 20, 2020 09:00AM
Vertigo and Dizziness [none:none: 601] Nov 20, 2020 08:42AM
black ops squad [none:none: 544] Nov 20, 2020 08:32AM
WOW Wine of the Weekend [none:none: 101] Nov 20, 2020 08:14AM
3D printer [none:none: 116] Nov 20, 2020 07:59AM
last minute deals [none:none: 328] Nov 20, 2020 07:34AM
Next Level Apparel [none:none: 60] Nov 20, 2020 07:21AM
Smarter. Better. Affordable Animation solutions [none:none: 3] Nov 20, 2020 06:53AM
check this [none:none: 2713] Nov 20, 2020 06:44AM
comfort of your home [none:none: 2643] Nov 20, 2020 06:42AM
Social Distancing is No Fun Without Wine [none:none: 377] Nov 20, 2020 06:41AM
It's called Quarantwine now. [none:none: 78] Nov 20, 2020 06:39AM
RegEX=^info$ [none:none: 4480] Nov 20, 2020 05:58AM
Get yours now [none:none: 457] Nov 20, 2020 05:50AM
Fat Freezing Package [none:none: 8] Nov 20, 2020 04:29AM
Repuestos para autoelevadores nafta gas diesel [none:none: 188] Nov 20, 2020 04:17AM
Foods To Eat If You Have Arthritis [none:none: 5] Nov 20, 2020 03:19AM
American Journal of Clinical Nutrition [none:none: 4] Nov 20, 2020 02:59AM
simple capital solution [none:none: 97] Nov 20, 2020 01:58AM
Refinance [none:none: 8173] Nov 20, 2020 01:43AM
Savings for Seniors [none:none: 115] Nov 20, 2020 12:23AM
Which are you going to enjoy first [none:none: 133] Nov 20, 2020 12:19AM
Russian ladies [none:none: 78] Nov 20, 2020 12:12AM
RegEX=^prevent\b [none:none: 870] Nov 19, 2020 11:07PM
Sams Club Reward [none:none: 251] Nov 19, 2020 10:29PM
I still lost weight [none:none: 68] Nov 19, 2020 08:19PM
Limited Time: [none:none: 498] Nov 19, 2020 06:20PM
COSAS PARA VENDER [none:none: 66] Nov 19, 2020 03:08PM
Turmeric [none:none: 5268] Nov 19, 2020 02:24PM
Shocking TRUTH Abou [none:none: 282] Nov 19, 2020 01:59PM
Turn Regular Oil Into Healing Oil [none:none: 49] Nov 19, 2020 01:16PM
Restore Your [none:none: 4858] Nov 19, 2020 12:12PM
Wrinkles [none:none: 4040] Nov 19, 2020 12:07PM
RegEX=^Inquiry$ [none:none: 123] Nov 19, 2020 11:58AM
paper towels [none:none: 4781] Nov 19, 2020 11:16AM
tasamos los bienes que desea vender [none:none: 57] Nov 19, 2020 10:52AM
Todo en circuitos impresos para tus maquinas [none:none: 249] Nov 19, 2020 10:42AM
Before the Movie [none:none: 16] Nov 19, 2020 10:39AM
JetCard [none:none: 447] Nov 19, 2020 10:39AM
Power up your [none:none: 126] Nov 19, 2020 10:36AM
Grab your Safe Driving Breathalyzer today [none:none: 14] Nov 19, 2020 10:15AM
sale alert [none:none: 167] Nov 19, 2020 10:00AM
Industrial Thursday [none:none: 62] Nov 19, 2020 09:21AM
How to Stay in the Theta Realm Forever [none:none: 68] Nov 19, 2020 09:20AM
Window Tinting [none:none: 70] Nov 19, 2020 09:05AM
gut health [none:none: 368] Nov 19, 2020 08:06AM
Unlikely Stretch Wipes Out Sciatica [none:none: 683] Nov 19, 2020 07:56AM
Shocking Proof [none:none: 1201] Nov 19, 2020 07:34AM
Safe And Effective Training Tool To Prevent Barking, Chewing & Other Bad Behavior! [none:none: 83] Nov 19, 2020 07:30AM
Bug Detector Detect Wireless Bugs and Hidden Cameras [none:none: 13] Nov 19, 2020 07:16AM
Last Day to Save [none:none: 1175] Nov 19, 2020 07:01AM
Men's Health [none:none: 6821] Nov 19, 2020 06:50AM
auto warranty [none:none: 34527] Nov 19, 2020 06:10AM
Life Policy For $ [none:none: 603] Nov 19, 2020 06:05AM
Doctor Destroys The Vision Industry [none:none: 416] Nov 19, 2020 05:16AM
Bajamos los costos de tu telefonia celula [none:none: 2] Nov 19, 2020 05:04AM
[Download] 13 Million U.S. Business Contacts [none:none: 139] Nov 19, 2020 05:00AM
Compramos todo lo que quieras vender [none:none: 116] Nov 19, 2020 04:47AM
RegEX=^\d+\.\d+\.\d+\ PRENDAS\ ESTAMPADAS\ CON\ SU\ LOGO\ \d+\.\d+\.\d+\ \(WhatsApp\)$ [none:none: 96] Nov 19, 2020 04:30AM
She drank this [none:none: 5] Nov 19, 2020 04:17AM
Last Day! [none:none: 1297] Nov 19, 2020 04:13AM
Maintain Wonderful Comfort Levels [none:none: 17] Nov 19, 2020 04:07AM
Avoid the Hassles [none:none: 1076] Nov 19, 2020 03:59AM
Check your URINE smell [none:none: 226] Nov 19, 2020 03:37AM
To Prevent Diabetes [none:none: 3] Nov 19, 2020 03:16AM
Recipe Ends Diabetes [none:none: 2] Nov 19, 2020 03:16AM
trouble sleeping [none:none: 213] Nov 19, 2020 02:50AM
nails of fungus [none:none: 121] Nov 19, 2020 02:17AM
Kills Sciatica [none:none: 1364] Nov 19, 2020 02:16AM
Back Stretch Saves Thousands [none:none: 835] Nov 19, 2020 02:08AM
Introducing New Personal Plans [none:none: 112] Nov 19, 2020 01:34AM
Advanced prostate support formula [none:none: 166] Nov 19, 2020 01:16AM
saves your prostate [none:none: 189] Nov 19, 2020 01:16AM
Oh My God \xE2\x80\x93 What just happened? [none:none: 29] Nov 19, 2020 01:12AM
Women are Waiting for You [none:none: 341] Nov 19, 2020 12:50AM
Business offer [none:none: 744] Nov 18, 2020 11:45PM
without Diet and Exercise [none:none: 2224] Nov 18, 2020 11:16PM
RegEX=^Search\s [none:none: 11326] Nov 18, 2020 06:34PM
a cruise [none:none: 1828] Nov 18, 2020 03:32PM
Get the funds you need [none:none: 89] Nov 18, 2020 03:20PM
Vivint [none:none: 2075] Nov 18, 2020 03:10PM
Millions of Americans [none:none: 1328] Nov 18, 2020 12:31PM
about to expire [none:none: 1238] Nov 18, 2020 12:04PM
flight deals [none:none: 173] Nov 18, 2020 10:50AM
a getaway is within reach [none:none: 3] Nov 18, 2020 10:41AM
RegEX=^Discover the\b [none:none: 4392] Nov 18, 2020 10:21AM
This Week's Top 12 Trending Prod [none:none: 220] Nov 18, 2020 10:15AM
you gotta see [none:none: 297] Nov 18, 2020 10:12AM
Wines You Must Try [none:none: 173] Nov 18, 2020 09:21AM
Better Sleep [none:none: 411] Nov 18, 2020 09:13AM
Mortgage Rates [none:none: 1422] Nov 18, 2020 08:59AM
Your Mortgage [none:none: 4741] Nov 18, 2020 08:58AM
Set up a shop even if you've no money [none:none: 451] Nov 18, 2020 08:36AM
fall in love [none:none: 1366] Nov 18, 2020 08:27AM
Tactical [none:none: 20983] Nov 18, 2020 08:06AM
Hemp Oil [none:none: 1110] Nov 18, 2020 07:54AM
All Magazine Subscriptions Just [none:none: 105] Nov 18, 2020 07:48AM
Normal serum cholesterol level [none:none: 18] Nov 18, 2020 06:13AM
Pocket Drone [none:none: 29] Nov 18, 2020 05:52AM
The #1 method to help support a healthy prostate [none:none: 11] Nov 18, 2020 05:40AM
Best way to lower cholesterol [none:none: 16] Nov 18, 2020 05:36AM
Urgente [none:none: 50] Nov 18, 2020 05:14AM
Coupon Inside [none:none: 355] Nov 18, 2020 04:34AM
Your Consignment Box [none:none: 216] Nov 18, 2020 04:16AM
RegEX=^give your [none:none: 4035] Nov 18, 2020 04:12AM
battery back to life [none:none: 5735] Nov 18, 2020 03:21AM
Tires [none:none: 4650] Nov 18, 2020 03:16AM
Anti Gun Agenda could take away your [none:none: 173] Nov 18, 2020 03:11AM
Are You Interested [none:none: 1903] Nov 18, 2020 02:44AM
Read this. [none:none: 1966] Nov 18, 2020 02:25AM
Drug companies keeping this from you [none:none: 141] Nov 18, 2020 02:10AM
Tuning and Advanced Indexing [none:none: 2] Nov 18, 2020 02:08AM
Ready To Mingle [none:none: 176] Nov 17, 2020 11:42PM
Lotto [none:none: 7545] Nov 17, 2020 09:34PM
Going Bankrupt Next in Ameri [none:none: 117] Nov 17, 2020 04:00PM
getting hard [none:none: 505] Nov 17, 2020 03:21PM
Metformin [none:none: 8195] Nov 17, 2020 02:48PM
Hot cinnamon tea [none:none: 1] Nov 17, 2020 02:24PM
CLAIM YOUR OVER DUE COMPENSATION FUNDS [none:none: 1] Nov 17, 2020 11:52AM
BUY MORE SAVE MORE IS HERE! [none:none: 3] Nov 17, 2020 10:38AM
Bridge Loans [none:none: 76] Nov 17, 2020 10:12AM
Furious Nancy Pelosi Demands a Complete Ban [none:none: 300] Nov 17, 2020 09:54AM
Waterproof Fire Starter [none:none: 1516] Nov 17, 2020 09:43AM
Air Cooler [none:none: 2242] Nov 17, 2020 09:29AM
concealed carry permit [none:none: 2158] Nov 17, 2020 08:58AM
Why rabbits go blind [none:none: 210] Nov 17, 2020 08:51AM
appartements à Cugy (VD) ou environs disponibles [none:none: 80] Nov 17, 2020 07:54AM
Email Exclusive [none:none: 247] Nov 17, 2020 07:07AM
Why fly with Jets.com [none:none: 17] Nov 17, 2020 05:43AM
Emotional Intelligence [none:none: 244] Nov 17, 2020 04:43AM
No Contact Multi Functional Digital Thermometer [none:none: 28] Nov 17, 2020 04:30AM
Easy, effective, affordable. #1 security in America. [none:none: 25] Nov 17, 2020 04:30AM
World's BEST [none:none: 235] Nov 17, 2020 04:29AM
home security [none:none: 13819] Nov 17, 2020 04:29AM
A complete home entertainment system in your pocket [none:none: 305] Nov 17, 2020 03:49AM
Eliminate constipation [none:none: 254] Nov 17, 2020 03:35AM
Funding For Your Business [none:none: 176] Nov 17, 2020 03:01AM
If you don't get you ranked on page one in the Google Maps we will refund your money. [none:none: 34] Nov 16, 2020 10:38PM
Free Spins Package [none:none: 67] Nov 16, 2020 06:15PM
Never Been Easier [none:none: 860] Nov 16, 2020 12:59PM
RegEX=do\ this.?$ [none:none: 1492] Nov 16, 2020 12:25PM
The Biographical Submission to Join the Most Noteworthy Professionals [none:none: 35] Nov 16, 2020 10:55AM
Best Method For Home Screening Avoid COVI [none:none: 8] Nov 16, 2020 10:49AM
Bitcoin Investment [none:none: 36] Nov 16, 2020 10:15AM
Bring us home. Now more than ever [none:none: 37] Nov 16, 2020 10:11AM
mask manufacture [none:none: 46] Nov 16, 2020 10:07AM
Low cost coverage for [none:none: 316] Nov 16, 2020 09:44AM
250 Euro into 15,000 The Best Way to Invest [none:none: none] Nov 16, 2020 09:32AM
Help the world's response to Covid 19 [none:none: 70] Nov 16, 2020 09:30AM
next big thing [none:none: 361] Nov 16, 2020 08:45AM
Casino Strategy [none:none: 620] Nov 16, 2020 08:37AM
don't want you to know [none:none: 1015] Nov 16, 2020 08:37AM
Bad News [none:none: 2459] Nov 16, 2020 08:09AM
rotating ear cleaner [none:none: 46] Nov 16, 2020 07:43AM
minutes of your time [none:none: 363] Nov 16, 2020 06:27AM
BOGO 40% Off [none:none: 1762] Nov 16, 2020 06:13AM
Secret Prices [none:none: 198] Nov 16, 2020 05:48AM
Term Life [none:none: 3093] Nov 16, 2020 05:44AM
Smart Fever [none:none: 240] Nov 16, 2020 04:08AM
Check Fever temperatures before you let people [none:none: 372] Nov 16, 2020 04:07AM
If You Feel Tired During the Morning, This Can Happen To You In 1 Month! [none:none: 434] Nov 16, 2020 02:29AM
Concealed Weapons Certification Online [none:none: 320] Nov 16, 2020 02:22AM
Asian women [none:none: 8296] Nov 16, 2020 12:18AM
RegEX=F\Wck [none:none: 146514] Nov 15, 2020 06:22PM
Get Rewarded [none:none: 510] Nov 15, 2020 05:26PM
We haven't seen you in awhile... [none:none: 7] Nov 15, 2020 03:56PM
[URGENT] [none:none: 4581] Nov 15, 2020 02:17PM
Re: Top 1st Rank. [none:none: 9] Nov 15, 2020 08:38AM
Hello! [none:none: 11019] Nov 15, 2020 07:13AM
This Could End Trump's Presidency [none:none: 9] Nov 15, 2020 06:37AM
Read this NOW [none:none: 494] Nov 15, 2020 06:25AM
Robot Vacuum [none:none: 23] Nov 15, 2020 04:32AM
Brighten your garage [none:none: 42] Nov 15, 2020 04:29AM
Bruce Lee's Assassin Speaks For The First Time [none:none: 222] Nov 15, 2020 03:53AM
could save your life [none:none: 666] Nov 15, 2020 03:49AM
Skincare [none:none: 1684] Nov 15, 2020 03:43AM
Survival tool [none:none: 3639] Nov 15, 2020 03:18AM
Confirmed: Your Fifty Dollar CVS Reward [none:none: 65] Nov 14, 2020 05:45PM
Special and modern reading glasses [none:none: 331] Nov 14, 2020 02:09PM
CAN I TRUST YOU? [none:none: 102] Nov 14, 2020 02:01PM
Full Body Scan and More [none:none: 6] Nov 14, 2020 12:57PM
Ellen DeGeneres [none:none: 475] Nov 14, 2020 11:29AM
best Selling Wines Only [none:none: 1015] Nov 14, 2020 09:11AM
Always Wild Never Farmed Seafood To Your Door [none:none: 220] Nov 14, 2020 08:58AM
OH MY! [none:none: 166] Nov 14, 2020 06:01AM
Signs Your Heart Is In Trouble [none:none: 2] Nov 14, 2020 05:56AM
We Want You Back [none:none: 104] Nov 14, 2020 04:33AM
MUST READ [none:none: 5431] Nov 14, 2020 04:29AM
Adjustable Eyeglasses [none:none: 55] Nov 14, 2020 04:15AM
lbs GONE [none:none: 986] Nov 14, 2020 02:50AM
You have a new message [none:none: 527] Nov 14, 2020 01:32AM
The Perfect Filler Between [none:none: 336] Nov 14, 2020 01:23AM
the real experience of flying [none:none: 1020] Nov 14, 2020 01:22AM
Money Online [none:none: 343] Nov 14, 2020 01:01AM
opportunity is getting bigger and bigger [none:none: 32] Nov 14, 2020 12:48AM
GPS tracker [none:none: 1356] Nov 14, 2020 12:37AM
RegEX=^Fw:$ [none:none: 221] Nov 13, 2020 10:49PM
Are you ready to do something about your achy legs [none:none: 111] Nov 13, 2020 10:31AM
muscle recovery [none:none: 55] Nov 13, 2020 09:58AM
This has the highest kill rate [none:none: 321] Nov 13, 2020 08:38AM
Open ASAP [none:none: 450] Nov 13, 2020 07:26AM
The possibilities are Endless, with this Drone [none:none: 39] Nov 13, 2020 06:54AM
save an extra [none:none: 618] Nov 13, 2020 06:11AM
Cannabidiol [none:none: 6131] Nov 13, 2020 05:46AM
Any man out there add length and girth in under one minute... [none:none: 89] Nov 13, 2020 05:44AM
melts fat [none:none: 551] Nov 13, 2020 05:37AM
Infrared Thermometer Non Contact Temperature [none:none: 998] Nov 13, 2020 05:25AM
No Touch Thermometer [none:none: 399] Nov 13, 2020 05:24AM
Temperature Sensing Technology [none:none: 361] Nov 13, 2020 05:22AM
Body temperature measurement: aiming towards the forehead [none:none: 837] Nov 13, 2020 05:22AM
Such as diabetes, heart disease and autoimmune [none:none: 17] Nov 13, 2020 02:51AM
no pain [none:none: 6174] Nov 13, 2020 02:11AM
The Permanent Address for VIP Gaming [none:none: 61] Nov 12, 2020 09:12PM
special discount [none:none: 734] Nov 12, 2020 07:57PM
bedtime drink [none:none: 102] Nov 12, 2020 07:55PM
Drink THIS after dinner [none:none: 113] Nov 12, 2020 07:55PM
Drink THIS before going to bed [none:none: 53] Nov 12, 2020 07:47PM
Directo De Fabrica Hacemos Envios A Todo El pais [none:none: 34] Nov 12, 2020 05:21PM
Perfect Gift for [none:none: 304] Nov 12, 2020 03:53PM
new credit [none:none: 277] Nov 12, 2020 02:01PM
effective way to [none:none: 528] Nov 12, 2020 12:19PM
with this mask [none:none: 292] Nov 12, 2020 11:07AM
your diabetes [none:none: 1755] Nov 12, 2020 10:19AM
40% Off Coupon! [none:none: 6] Nov 12, 2020 09:50AM
Survival Kit [none:none: 926] Nov 12, 2020 09:44AM
How to lose Diabetes [none:none: none] Nov 12, 2020 09:42AM
Survival Things [none:none: 2387] Nov 12, 2020 09:35AM
Bonus Points [none:none: 5845] Nov 12, 2020 09:25AM
Coconut Oil [none:none: 3760] Nov 12, 2020 08:37AM
Deliver personalized customer experiences [none:none: 3] Nov 12, 2020 08:35AM
FEDERAL BUREAU OF INVESTIGATION [none:none: 170] Nov 12, 2020 05:27AM
Take this before sleeping [none:none: 66] Nov 12, 2020 05:13AM
The Lost Book of Herbal Remedies [none:none: 270] Nov 12, 2020 04:49AM
Huge Savings [none:none: 884] Nov 12, 2020 04:32AM
Re: your website [none:none: 420] Nov 12, 2020 04:02AM
Early Life Blindness [none:none: 8] Nov 12, 2020 03:51AM
This Device Can Help You [none:none: 244] Nov 12, 2020 02:36AM
Get immaculately clean laundry [none:none: 26] Nov 12, 2020 02:02AM
This Deal was Made For You [none:none: 456] Nov 12, 2020 01:57AM
We can repair your home [none:none: 633] Nov 12, 2020 01:44AM
cancun [none:none: 1146] Nov 12, 2020 01:02AM
This is your Final Notice of Domain Listing [none:none: 180] Nov 11, 2020 10:35PM
Custom Animated Video [none:none: 278] Nov 11, 2020 07:59PM
Anti Theft Backpack [none:none: 741] Nov 11, 2020 03:37PM
look at this [none:none: 4363] Nov 11, 2020 02:31PM
Deteccion de Intrusos [none:none: 7] Nov 11, 2020 01:33PM
Sleep Better [none:none: 861] Nov 11, 2020 01:12PM
Save Your Prostate. [none:none: 98] Nov 11, 2020 01:06PM
Brain Fog [none:none: 220] Nov 11, 2020 11:52AM
DSLR [none:none: 2819] Nov 11, 2020 11:17AM
RegEX=^APPROVED. [none:none: 1186] Nov 11, 2020 11:07AM
We Found a New Y DNA Relative [none:none: 16] Nov 11, 2020 10:12AM
Marijuana [none:none: 13311] Nov 11, 2020 09:59AM
The ultimate garage light is brighter than any single bulb [none:none: 5] Nov 11, 2020 09:43AM
hottest selling [none:none: 546] Nov 11, 2020 09:27AM
Creating a Secure Edge Product [none:none: none] Nov 11, 2020 09:02AM
innovative reading glasse [none:none: 580] Nov 11, 2020 08:11AM
Compra de Materiales en desuso Ferrosos y no Ferrosos [none:none: 13] Nov 11, 2020 07:19AM
Wearing a KN95 mask [none:none: 124] Nov 11, 2020 07:17AM
Fat Burner [none:none: 696] Nov 11, 2020 07:10AM
How to Get Your Marketing Database [none:none: 5] Nov 11, 2020 07:08AM
Only have home insurance [none:none: 411] Nov 11, 2020 06:46AM
You've Been by selected b [none:none: 1655] Nov 11, 2020 06:36AM
Powerful Networking Opportunities for Women Only [none:none: 1623] Nov 11, 2020 06:35AM
You've Been by Nominated by [none:none: 729] Nov 11, 2020 06:35AM
Back by Popular Demand [none:none: 137] Nov 11, 2020 05:23AM
termite [none:none: 105] Nov 11, 2020 04:44AM
Lyft [none:none: 1084] Nov 11, 2020 02:00AM
ear ringing [none:none: 2997] Nov 11, 2020 01:36AM
With love [none:none: 767] Nov 11, 2020 12:11AM
What's New? [none:none: 139] Nov 10, 2020 02:46PM
Better health [none:none: 287] Nov 10, 2020 02:33PM
Melts Belly [none:none: 186] Nov 10, 2020 02:09PM
voip [none:none: 20952] Nov 10, 2020 02:01PM
free quotes [none:none: 927] Nov 10, 2020 12:41PM
Golf Course [none:none: 505] Nov 10, 2020 12:21PM
Email Deactivation Notice [none:none: 85] Nov 10, 2020 10:09AM
Get away [none:none: 982] Nov 10, 2020 10:03AM
Ever Needed Expert Business Advice [none:none: 6] Nov 10, 2020 09:16AM
Trumpcare Changes [none:none: 445] Nov 10, 2020 09:05AM
Super Sale [none:none: 1152] Nov 10, 2020 06:29AM
open this NOW [none:none: 2332] Nov 10, 2020 06:17AM
Are you Moving out of State [none:none: 39] Nov 10, 2020 04:21AM
flying off the shelves [none:none: 120] Nov 10, 2020 04:11AM
Diet Phenomenon of the Decade [none:none: 581] Nov 10, 2020 03:40AM
Get Skinny [none:none: 659] Nov 10, 2020 03:37AM
Sale Ends Soon [none:none: 392] Nov 10, 2020 03:31AM
Where to buy an Auto Extended Warranty [none:none: 16] Nov 10, 2020 02:56AM
AndroidTV [none:none: 83] Nov 10, 2020 02:46AM
horoscope [none:none: 315] Nov 10, 2020 01:34AM
meet real real people [none:none: 108] Nov 9, 2020 11:47PM
Spice Up Your Life With A New Romance [none:none: 356] Nov 9, 2020 11:40PM
LED Flood Light [none:none: 17] Nov 9, 2020 08:55PM
UV Sanitizer [none:none: 43] Nov 9, 2020 04:00PM
Training: MS Project Essentials [none:none: 30] Nov 9, 2020 02:40PM
New Markdowns [none:none: 456] Nov 9, 2020 12:36PM
SCORE Virtual Happy Hour & Networking for Women [none:none: 6] Nov 9, 2020 11:03AM
How To Scale Report Studio Webinar [none:none: none] Nov 9, 2020 10:39AM
Survive 3 months+ in your home [none:none: none] Nov 9, 2020 09:59AM
Answering Your Questions About ConversioBot [none:none: none] Nov 9, 2020 09:25AM
Bitcoin Investment.Earn [none:none: none] Nov 9, 2020 09:25AM
Available Credit Options [none:none: none] Nov 9, 2020 09:25AM
Restores Your Hearing [none:none: 105] Nov 9, 2020 07:58AM
plugged his house to Earth [none:none: 350] Nov 9, 2020 06:32AM
sagging jowls [none:none: 133] Nov 9, 2020 06:10AM
RegEX=^Take\ \d+\ years\ off\ your\ age [none:none: 164] Nov 9, 2020 06:08AM
Your credit card payment is due [none:none: 86] Nov 9, 2020 06:02AM
let us help [none:none: 817] Nov 9, 2020 04:04AM
Covered Repairs On Us [none:none: 655] Nov 9, 2020 03:19AM
FREE month home protection [none:none: 111] Nov 9, 2020 03:14AM
right for you [none:none: 505] Nov 9, 2020 03:12AM
This gift is driving Obama supporter's crazy [none:none: 184] Nov 9, 2020 01:34AM
Trump supporters offered unique [none:none: 315] Nov 9, 2020 12:46AM
eye floaters [none:none: 1725] Nov 9, 2020 12:44AM
Bath Remodel Pros In Your Neighborhood [none:none: 29] Nov 8, 2020 11:00PM
sent you a new message [none:none: 1278] Nov 8, 2020 01:53PM
RegEX=\Wfor\Wmen\W [none:none: 17794] Nov 8, 2020 01:13PM
RegEX=\bfor men$ [none:none: 2642] Nov 8, 2020 11:01AM
Chinese Herb Changes the Diabetes Game [none:none: 58] Nov 8, 2020 06:39AM
Green Veggie Causing Diabetes Type 2 in Millions [none:none: 207] Nov 8, 2020 04:37AM
Delete This After Reading [none:none: 284] Nov 8, 2020 04:34AM
Exposed NASA Funded Report [none:none: 161] Nov 8, 2020 04:30AM
invisible bra [none:none: 92] Nov 8, 2020 03:10AM
symptoms VANISHED [none:none: 162] Nov 8, 2020 02:33AM
Time to Restock Your Wine Cellar [none:none: 36] Nov 8, 2020 01:24AM
RegEX=Payment.\d+ [none:none: 6748] Nov 7, 2020 05:24PM
next best thing to being up there [none:none: 269] Nov 7, 2020 09:38AM
RegEX=^\([a-z]+\)\s [none:none: 3467] Nov 7, 2020 09:27AM
4 Star [none:none: 1121] Nov 7, 2020 09:26AM
Game of Thrones [none:none: 231] Nov 7, 2020 09:00AM
Paleo [none:none: 2388] Nov 7, 2020 07:00AM
Head Scanner Thermometer You Need Today [none:none: 40] Nov 7, 2020 03:41AM
Potent Japanese Tonic [none:none: 41] Nov 7, 2020 03:16AM
Todo Full Full Y Descarga A Su PC [none:none: 8] Nov 7, 2020 12:23AM
EcoHeat [none:none: 110] Nov 6, 2020 01:08PM
Sneeze Guard [none:none: 21] Nov 6, 2020 11:11AM
Como convencer usando la palabra [none:none: 1] Nov 6, 2020 11:04AM
cents per transaction with cardconnect [none:none: none] Nov 6, 2020 09:20AM
SenseSleep [none:none: 44] Nov 6, 2020 06:25AM
insomnia [none:none: 1301] Nov 6, 2020 06:19AM
Stop worrying about public Wi Fi networks! [none:none: 5] Nov 6, 2020 04:49AM
Ancient Tonic Melts 54 Pounds [none:none: 14] Nov 6, 2020 04:27AM
RegEX=to\ burn\ \d+\ lbs [none:none: 54] Nov 6, 2020 04:14AM
Viaagra [none:none: 430] Nov 6, 2020 03:18AM
Winter Home Repairs [none:none: 170] Nov 6, 2020 03:13AM
Innovative Technical Aerial Photographer [none:none: 69] Nov 6, 2020 03:03AM
Tactic AIR Drone [none:none: 514] Nov 6, 2020 03:01AM
Viiagra [none:none: 426] Nov 6, 2020 02:47AM
your bathroom [none:none: 1694] Nov 6, 2020 01:36AM
your new bathroom [none:none: 65] Nov 6, 2020 01:35AM
Get Your Woody Back [none:none: 66] Nov 6, 2020 12:09AM
Drink THIS after you eat dinner [none:none: 42] Nov 5, 2020 11:26PM
Survival Muscle [none:none: 3603] Nov 5, 2020 10:05PM
of your potential traffic is IGNORING YOU [none:none: 9] Nov 5, 2020 02:27PM
New restaurants [none:none: 82] Nov 5, 2020 02:07PM
Keep an eye on your loved [none:none: 3] Nov 5, 2020 10:39AM
Challenge Coins [none:none: 204] Nov 5, 2020 10:26AM
What every business owner should know about SEO [none:none: 9] Nov 5, 2020 09:31AM
RegEX= dropped\ from\ \d+\ to\ \d+\ in [none:none: 540] Nov 5, 2020 08:54AM
How are you? [none:none: 8390] Nov 5, 2020 08:41AM
right around the corner [none:none: 191] Nov 5, 2020 08:39AM
SAVE YOURSELF! [none:none: 290] Nov 5, 2020 08:26AM
This method of muscle recovering is sweeping the world of fitness! [none:none: 9] Nov 5, 2020 07:50AM
invitations waiting for you [none:none: 126] Nov 5, 2020 07:35AM
Lack This One Nutrient [none:none: 95] Nov 5, 2020 05:54AM
Ketogenic Diet [none:none: 567] Nov 5, 2020 05:52AM
Take amazing aerial footage with this drone [none:none: 18] Nov 5, 2020 04:47AM
Bamboo Fiber Men's Sock [none:none: 40] Nov 5, 2020 02:54AM
Frankly, I don\xE2\x80\x99t know what to say... [none:none: 22] Nov 5, 2020 01:14AM
tinybox [none:none: 2125] Nov 4, 2020 10:52PM
Can you really get a high spec smartphone [none:none: 440] Nov 4, 2020 08:23PM
협력 제안 [none:none: 6] Nov 4, 2020 07:55PM
Can You Really Get a Top Smartphone on a Budget [none:none: 428] Nov 4, 2020 07:41PM
Best Smoke Detector Of [none:none: 34] Nov 4, 2020 04:54PM
podcasts to inspire your creativity [none:none: none] Nov 4, 2020 03:02PM
=?utf 8?Q?6=20podcasts=20to=20inspire=20your=20creativity?= [none:none: none] Nov 4, 2020 03:02PM
Buy Vl@gr@,Ciali$,Levittra With0ut Pre$cr1ption [none:none: none] Nov 4, 2020 02:59PM
Buy Viagr@,Ci@lis,Levittra Wlth0ut Prsecription [none:none: none] Nov 4, 2020 02:59PM
Buy Vaigra,C|@li$,Leviitra Wtihout Prescript10n [none:none: none] Nov 4, 2020 02:59PM
Buy Vaigra,Ciails,Levvitra Without Prescriiption [none:none: none] Nov 4, 2020 02:59PM
Buy Vigara,Ciialis,Ievitra Witthout Pre$cripti0n [none:none: none] Nov 4, 2020 02:59PM
Casino Bonus 300% [none:none: none] Nov 4, 2020 02:59PM
Buy Vaigra,Clalis [none:none: none] Nov 4, 2020 02:58PM
Buy Viarga,Ci@1|$,Levvitra Withuot Preescription [none:none: none] Nov 4, 2020 02:58PM
Buy V|@gra,C1al1$,Levirta Wlthout Prescritpion [none:none: none] Nov 4, 2020 02:58PM
Buy Viarga,Ciails,Levtira Wihtout Pre$cription [none:none: none] Nov 4, 2020 02:58PM
Buy V|@gra,Cailis,Lveitra Witthout Pre$cript1on [none:none: none] Nov 4, 2020 02:58PM
better way to save [none:none: 182] Nov 4, 2020 02:34PM
A Message For You [none:none: 139] Nov 4, 2020 01:08PM
Wild Caught Fish To Your Door [none:none: 2] Nov 4, 2020 12:28PM
Auto Loan [none:none: 428] Nov 4, 2020 11:53AM
File has been damaged [none:none: 10] Nov 4, 2020 11:14AM
Take Care of Your Loved Ones [none:none: 97] Nov 4, 2020 11:10AM
RegEX=^William\ Approved\ at\ \d+\.\d+\%\ Van\ Ness\ Water\ Gardens$ [none:none: 17] Nov 4, 2020 10:59AM
nerve pain [none:none: 20859] Nov 4, 2020 10:45AM
Do you have slow internet at home [none:none: 235] Nov 4, 2020 10:44AM
Ciallis [none:none: 245] Nov 4, 2020 10:06AM
Detecting COVID fast [none:none: 8] Nov 4, 2020 09:43AM
Cilais [none:none: 402] Nov 4, 2020 09:42AM
Levitra [none:none: 63543] Nov 4, 2020 09:33AM
Your business comes first, keep it protected [none:none: 24] Nov 4, 2020 09:30AM
here are the questions you asked... [none:none: 6] Nov 4, 2020 07:37AM
your questions answered [none:none: 9] Nov 4, 2020 07:36AM
Link Between Your Toes And Alzheimer [none:none: 289] Nov 4, 2020 07:13AM
risk free [none:none: 3385] Nov 4, 2020 07:12AM
REVERSE Alzheimer [none:none: 1075] Nov 4, 2020 07:12AM
Ilhan Omar HUMILIATED by Trump Supporter [none:none: 40] Nov 4, 2020 05:56AM
Loosening Your Hip Flexor [none:none: 50] Nov 4, 2020 04:03AM
Insoles for High Heel [none:none: 73] Nov 4, 2020 03:20AM
VirtualPilot [none:none: 592] Nov 4, 2020 12:35AM
I Have Been Spying On You [none:none: 4] Nov 3, 2020 06:55PM
Limited time sale on Drones [none:none: 67] Nov 3, 2020 05:40PM
Home Delivered Meals & Snack [none:none: 51] Nov 3, 2020 04:23PM
repairs are covered [none:none: 9908] Nov 3, 2020 04:08PM
Shop Clearance [none:none: 260] Nov 3, 2020 03:26PM
most essential product for your home [none:none: 5] Nov 3, 2020 03:24PM
Today is the day [none:none: 126] Nov 3, 2020 02:07PM
COVID Killing Wipes and Sprays are here [none:none: 1] Nov 3, 2020 12:54PM
Avoid COVID Home Screening Blood Oxygen Meter [none:none: 8] Nov 3, 2020 10:23AM
Convene Prognosis [none:none: none] Nov 3, 2020 10:05AM
Waiting for the payment. Attention Please. [none:none: 47] Nov 3, 2020 09:56AM
West Coast Is Open & Ready For Bookings [none:none: none] Nov 3, 2020 09:35AM
Top Secrets to Buying a Franchise [none:none: 51] Nov 3, 2020 09:31AM
affordable bathroom renovations [none:none: 1] Nov 3, 2020 09:26AM
Newest And Hottest Item On Every Christmas List [none:none: none] Nov 3, 2020 09:23AM
Relax Your Neck Muscles in 10 Minutes Using This Groundbreaking Invention [none:none: 99] Nov 3, 2020 09:04AM
Breakthrough device completely remove [none:none: 118] Nov 3, 2020 08:58AM
Exposed: The Darkest Secret of Trump [none:none: 158] Nov 3, 2020 08:40AM
WOW This Existed All This Time? [none:none: 5] Nov 3, 2020 07:48AM
Shawn Antonio's daily dose of awesome. [none:none: 30] Nov 3, 2020 07:46AM
I Can Read! Book Club [none:none: 89] Nov 3, 2020 07:12AM
Get 2 FREE I Can Read! books from HarperCollins [none:none: 34] Nov 3, 2020 07:11AM
A book club that will get your kid hooked on books. [none:none: 25] Nov 3, 2020 07:11AM
Thermal Vest [none:none: 237] Nov 3, 2020 06:57AM
credit card debt [none:none: 2443] Nov 3, 2020 03:42AM
Make love [none:none: 599] Nov 3, 2020 02:59AM
blue pill [none:none: 427] Nov 2, 2020 08:22PM
beats the dentist [none:none: 9] Nov 2, 2020 06:29PM
Forget going to the dentist [none:none: 17] Nov 2, 2020 06:29PM
STOP going to the dentist [none:none: 5] Nov 2, 2020 06:27PM
better than going to the dentist [none:none: 5] Nov 2, 2020 06:24PM
Hangover [none:none: 232] Nov 2, 2020 02:55PM
RegEX=^Following up$ [none:none: 266] Nov 2, 2020 02:03PM
Personalized Christmas Ornaments Now Available [none:none: 38] Nov 2, 2020 01:19PM
ATENCION COVID 19 Estudio Contable, Le [none:none: 7] Nov 2, 2020 10:34AM
Pedi tu cuaderno anillados con tu logo [none:none: 42] Nov 2, 2020 09:32AM
Get 2 Free Kids' Books and Watch Their Eyes Light Up [none:none: 7] Nov 2, 2020 09:11AM
We make reading fun. Join today and let your child's imagination run wild! [none:none: 26] Nov 2, 2020 09:10AM
is the key to unlocking real AI and HPC [none:none: none] Nov 2, 2020 09:07AM
Teclados de membrana, frentes [none:none: 220] Nov 2, 2020 08:55AM
El Mas Bajo Costo del Mercado [none:none: 55] Nov 2, 2020 07:23AM
without glasses [none:none: 309] Nov 2, 2020 06:43AM
thermometers IN STOCK [none:none: 28] Nov 2, 2020 06:16AM
Alexandria Ocasio Cortez Gets viciously [none:none: 73] Nov 2, 2020 03:20AM
Advanced Vibrational Healing [none:none: 2] Nov 2, 2020 12:51AM
ED Health [none:none: 215] Nov 1, 2020 04:10PM
2 Minute Ritual A Day, Keeps The Doctor Away. Permanently [none:none: 18] Nov 1, 2020 03:37PM
Natural Diabetes Treatment [none:none: 1220] Nov 1, 2020 03:33PM
Breakthrough In Health [none:none: 150] Nov 1, 2020 03:23PM
You have until [none:none: 177] Nov 1, 2020 03:03PM
Alcohol en gel [none:none: 27] Nov 1, 2020 01:32PM
Minute Ritual Is Destroying [none:none: 118] Nov 1, 2020 01:12PM
But Scientists Never Stopped [none:none: 12] Nov 1, 2020 12:56PM
2 Min Ritual Has MDs In Awe [none:none: 18] Nov 1, 2020 12:55PM
Wont [none:none: 5957] Nov 1, 2020 12:51PM
High school student discovers [none:none: 67] Nov 1, 2020 11:54AM
High school student makes a discovery [none:none: 25] Nov 1, 2020 11:42AM
Cercos electricos [none:none: 19] Nov 1, 2020 10:34AM
SHOCKED by new shooting system [none:none: 299] Nov 1, 2020 10:08AM
spec ops instructor leaks secret [none:none: 1038] Nov 1, 2020 10:02AM
the shooting tricks [none:none: 349] Nov 1, 2020 09:31AM
Better than Adderall [none:none: 66] Nov 1, 2020 08:00AM
Protective face mask [none:none: 70] Nov 1, 2020 06:47AM
See How You Can Get Improved [none:none: 67] Nov 1, 2020 06:38AM
Clinical Studies Show 90% Decrease In Focus Errors & 50% Increase in Focus & Attention [none:none: 97] Nov 1, 2020 06:36AM
Bottles of Overstocked Vinyard Wines [none:none: 143] Nov 1, 2020 06:11AM
Weight Gain [none:none: 1255] Nov 1, 2020 03:27AM
Did you hear? Some criminals are being released due to the virus. Wow! Protect what matters most [none:none: 52] Nov 1, 2020 02:06AM
Bed Bugs [none:none: 14] Nov 1, 2020 01:48AM
Imprimi tus ideas a bajo costo [none:none: 245] Oct 31, 2020 03:34PM
Camaras de Seguridad [none:none: 22] Oct 31, 2020 03:07PM
Re: LED strip with competitve price [none:none: 28] Oct 31, 2020 01:09PM
in coverage for only [none:none: 563] Oct 31, 2020 12:54PM
Tratamiento para el Hogar, Sector Comercial e Industrial [none:none: 29] Oct 31, 2020 11:40AM
If this is blurry call your doctor [none:none: 188] Oct 31, 2020 10:17AM
Breakdowns on a budget [none:none: 275] Oct 31, 2020 09:59AM
Changed Everything [none:none: 2815] Oct 31, 2020 07:08AM
Battery Restoration Trick [none:none: 449] Oct 31, 2020 05:34AM
Acne [none:none: 2322] Oct 31, 2020 04:29AM
The world needs more readers [none:none: 42] Oct 31, 2020 04:09AM
I want you. Write me [none:none: 1346] Oct 30, 2020 07:49PM
Turn Back The Clock [none:none: 270] Oct 30, 2020 07:40PM
RegEX=^She\ lost\ \d+\ Dress\ sizes\ in\ \d+\ days$ [none:none: 33] Oct 30, 2020 03:05PM
High school student makes a discovery about her body science thinks again [none:none: 1] Oct 30, 2020 03:03PM
Home Window Specials [none:none: 307] Oct 30, 2020 02:34PM
RegEX=^PDF Update$ [none:none: 18] Oct 30, 2020 02:34PM
Full Face Coverage Lightweight Mask [none:none: 18] Oct 30, 2020 01:56PM
Take a look on CharmDate [none:none: 471] Oct 30, 2020 01:47PM
Exposed: This Could End Trump's Presidency [none:none: 7] Oct 30, 2020 01:33PM
RegEX=^May\ I\ call\ you\ at\ \d+\ \?$ [none:none: 521] Oct 30, 2020 01:15PM
manifest money [none:none: 768] Oct 30, 2020 12:03PM
heated vest [none:none: 206] Oct 30, 2020 10:01AM
Health Letter [none:none: 233] Oct 30, 2020 09:15AM
Single most important medical discovery ever! [none:none: 4] Oct 30, 2020 08:02AM
Live a longer, healthier life. [none:none: 17] Oct 30, 2020 08:00AM
Enjoy life throughout your Golden years [none:none: 3] Oct 30, 2020 08:00AM
Your Capital Needs [none:none: 230] Oct 30, 2020 07:53AM
RegEX=drops\ \d+lbs [none:none: 128] Oct 30, 2020 05:42AM
Make sure the ENTIRE family is covered, get Health AND Medicare quotes [none:none: 16] Oct 30, 2020 05:17AM
Your one stop shop for Health and Medicare insurance quotes [none:none: 17] Oct 30, 2020 05:16AM
Sleepless Nights [none:none: 835] Oct 30, 2020 05:12AM
[Deadly] Lies Lies Lies [none:none: 144] Oct 30, 2020 04:54AM
Help develop your child's reading skills with [none:none: 28] Oct 30, 2020 04:11AM
Storytime begins here. Starting with 2 FREE children's books for shared reading. [none:none: 9] Oct 30, 2020 04:10AM
This Face Shield [none:none: 7] Oct 30, 2020 12:31AM
Get out of debt [none:none: 387] Oct 29, 2020 06:56PM
was close to giving up.. [none:none: 59] Oct 29, 2020 06:01PM
Man Rebuilt His Gums Overnight [none:none: 40] Oct 29, 2020 05:52PM
WORLDWIDE BUSINESS EMAIL DATA [none:none: 10] Oct 29, 2020 03:44PM
Lower Your Energy Cost [none:none: 25] Oct 29, 2020 01:44PM
Memories Into Art [none:none: 62] Oct 29, 2020 12:21PM
Feel better [none:none: 447] Oct 29, 2020 12:19PM
unbelievable remedy [none:none: 3] Oct 29, 2020 12:18PM
C.B.D. [none:none: 118] Oct 29, 2020 11:48AM
Share a secure connection with [none:none: 4] Oct 29, 2020 11:44AM
Do this when you want to win [none:none: 4] Oct 29, 2020 11:42AM
Great COVID Snacks [none:none: none] Oct 29, 2020 11:41AM
Do you really want to be using the same network as these criminals? [none:none: 6] Oct 29, 2020 11:39AM
Stop worrying about public Wi Fi networks [none:none: none] Oct 29, 2020 11:28AM
Connect to public WiFi networks when you travel? [none:none: none] Oct 29, 2020 11:27AM
SCORE Webinar SEO [none:none: 46] Oct 29, 2020 11:05AM
RegEX=^browse\b [none:none: 9116] Oct 29, 2020 08:29AM
This Genius Device [none:none: 131] Oct 29, 2020 08:11AM
Lack of sleep [none:none: 156] Oct 29, 2020 07:20AM
Winc [none:none: 286] Oct 29, 2020 07:06AM
This Threat Is Worse Than [none:none: 181] Oct 29, 2020 06:39AM
Mould making/ Die casting [none:none: 21] Oct 29, 2020 06:21AM
The Wearable That's Taking Over Europe [none:none: 44] Oct 29, 2020 05:30AM
Strange 'water hack' burns [none:none: 17] Oct 29, 2020 05:30AM
Fully Automated Ebook Maker [none:none: 6] Oct 29, 2020 05:23AM
My fav to [none:none: 5] Oct 29, 2020 05:19AM
Enjoy 2 FREE Books from I Can Read [none:none: 27] Oct 29, 2020 05:11AM
Get your kid hooked on reading with the I Can Read Book Club. [none:none: 26] Oct 29, 2020 05:10AM
Wearables Watches [none:none: 58] Oct 29, 2020 05:02AM
Think You're Safe... Think again [none:none: 22] Oct 29, 2020 04:10AM
Trump 2020 Coin [none:none: 34] Oct 29, 2020 02:28AM
is she a match? [none:none: 336] Oct 29, 2020 01:32AM
you have a new sweetheart [none:none: 21] Oct 29, 2020 01:28AM
Stops the spread of harmful germs and bacteria [none:none: 55] Oct 28, 2020 10:27PM
SmartSanitizer [none:none: 54] Oct 28, 2020 10:09PM
This Device delivers up to [none:none: 58] Oct 28, 2020 10:08PM
Germ free device [none:none: 55] Oct 28, 2020 10:08PM
We have a surprise offer for you open now! [none:none: 2] Oct 28, 2020 03:45PM
RegEX=^Sex$ [none:none: 1884] Oct 28, 2020 02:53PM
RegEX=^Up\ to\ \d+\%\ off\ Fall\ Sale$ [none:none: 480] Oct 28, 2020 12:56PM
Full Face Scuba Diving Snorkel Mask [none:none: 45] Oct 28, 2020 12:46PM
Lease a Brand New [none:none: 10] Oct 28, 2020 11:38AM
Justice For Victims Of The Boy Scouts Of America [none:none: 5] Oct 28, 2020 10:40AM
reward points [none:none: 6465] Oct 28, 2020 10:15AM
your ED [none:none: 724] Oct 28, 2020 10:10AM
Limited Offer For Bulk Mail Sender [none:none: 12] Oct 28, 2020 09:58AM
What Are You Waiting For? [none:none: 866] Oct 28, 2020 06:30AM
Love Beyond Distance [none:none: 148] Oct 28, 2020 04:40AM
Asian Girl [none:none: 4793] Oct 28, 2020 04:39AM
in the bedroom [none:none: 828] Oct 28, 2020 03:55AM
Amputation is NOT the answer. THIS IS! [none:none: 12] Oct 28, 2020 02:31AM
meet singles [none:none: 63] Oct 28, 2020 01:44AM
Fatty Liver [none:none: 2822] Oct 27, 2020 08:31PM
Build Home Decor Out Of Wood [none:none: 48] Oct 27, 2020 08:19PM
Build anything from wood the only [none:none: 43] Oct 27, 2020 08:19PM
Weekend DIY Projects [none:none: 29] Oct 27, 2020 08:17PM
Engineer Revolutionizes DIY [none:none: 1285] Oct 27, 2020 08:06PM
Ugly plant kills [none:none: 110] Oct 27, 2020 07:48PM
ditching their kitchen islands [none:none: 2] Oct 27, 2020 06:10PM
Get Qualified in Under 30 Minutes... [none:none: 15] Oct 27, 2020 03:22PM
now available online [none:none: 117] Oct 27, 2020 02:34PM
If you or a loved one has Diabetes Open now [none:none: 39] Oct 27, 2020 01:11PM
Limited Public Release 2020 Election Chess Set [none:none: 2] Oct 27, 2020 12:55PM
Pot Stocks [none:none: 1389] Oct 27, 2020 12:38PM
Get Free Pet & Beauty Samples from Daily Freebie [none:none: 4] Oct 27, 2020 12:05PM
Bring out the magic of Christmas [none:none: 43] Oct 27, 2020 11:46AM
ED Caused by a 'Clog' You Can Easily Clear by Doing THIS [none:none: 3] Oct 27, 2020 10:25AM
Keep Your Mind Sharp [none:none: 182] Oct 27, 2020 10:15AM
Affinity Coverage: [none:none: 4] Oct 27, 2020 10:13AM
cat urine [none:none: 611] Oct 27, 2020 08:37AM
The Best Garage Ligh [none:none: 3] Oct 27, 2020 08:25AM
RegEX=^\d+\ Bottles\ of\ Premium\ Overstocked\ Wines\ Only\ \$\d+\.\d+$ [none:none: 143] Oct 27, 2020 08:11AM
Access the Internet anywhere [none:none: 50] Oct 27, 2020 08:10AM
Fall Savings Are Here! [none:none: 3] Oct 27, 2020 07:10AM
RegEX=voice.*m\s*$ [none:none: 2534] Oct 27, 2020 07:10AM
Marketing Tool [none:none: 341] Oct 27, 2020 07:08AM
Do you need to [none:none: 120] Oct 27, 2020 06:18AM
brian are you from el segundo [none:none: 527] Oct 27, 2020 05:20AM
Ear Wax Remover [none:none: 60] Oct 27, 2020 04:22AM
I think you'll like this [none:none: 1123] Oct 27, 2020 01:22AM
qualified to carry a gun [none:none: 69] Oct 27, 2020 12:28AM
Fitness Tracker Just Pay Shipping [none:none: 5] Oct 26, 2020 04:43PM
my pussy [none:none: 17] Oct 26, 2020 01:34PM
cruise deals [none:none: 331] Oct 26, 2020 12:05PM
Personal Protective Equipment Sale [none:none: 16] Oct 26, 2020 11:25AM
News from IE Business Daily [none:none: 255] Oct 26, 2020 11:12AM
Check out your Point Profile [none:none: 5] Oct 26, 2020 10:31AM
Market Commentary [none:none: 55] Oct 26, 2020 10:08AM
SCORE Webinar Cómo Atraer y Retener Clientes [none:none: 3] Oct 26, 2020 10:03AM
Discover what millions have already [none:none: 129] Oct 26, 2020 09:07AM
Do you have the best rate? [none:none: 91] Oct 26, 2020 09:04AM
Are you leaving money on the table [none:none: 82] Oct 26, 2020 09:03AM
Travel Pillow [none:none: 117] Oct 26, 2020 08:57AM
Middle East Retirement Village Orgy [none:none: 880] Oct 26, 2020 07:10AM
Your Work Comp Briefin [none:none: 608] Oct 26, 2020 06:02AM
Chronic Pain [none:none: 323] Oct 26, 2020 03:36AM
Joint Pain [none:none: 2576] Oct 26, 2020 03:11AM
People Are More Afraid Of Sharks Then Diabetes [none:none: 55] Oct 26, 2020 03:05AM
just a click away [none:none: 162] Oct 25, 2020 10:48PM
Bachelor's degree [none:none: 247] Oct 25, 2020 09:31PM
Myrtle beach [none:none: 225] Oct 25, 2020 05:50PM
Open to see if you have unclaimed money [none:none: 53] Oct 25, 2020 12:30PM
is this YOUR Money? [none:none: 49] Oct 25, 2020 11:55AM
Billions in unclaimed money [none:none: 65] Oct 25, 2020 11:22AM
unclaimed money status [none:none: 174] Oct 25, 2020 11:10AM
Yeast Infection [none:none: 103] Oct 25, 2020 10:23AM
Infrared Forehead Thermometer [none:none: 82] Oct 25, 2020 06:34AM
Filter [hits today's:yesterday's:total]Last Seen on
offer has arrived [none:none: 447] Oct 25, 2020 05:12AM
Award Winning Extended Warranty Coverage [none:none: 102] Oct 25, 2020 04:09AM
GOUT gone for good in three days [none:none: 110] Oct 25, 2020 03:55AM
Saw Precisely Cuts Any Material [none:none: 35] Oct 25, 2020 03:40AM
super small fordable HD drone [none:none: 36] Oct 25, 2020 03:13AM
Great way to get back [none:none: 5] Oct 25, 2020 02:17AM
sugar levels [none:none: 3] Oct 24, 2020 08:48PM
Diabetes reversed [none:none: 425] Oct 24, 2020 08:14PM
Security Notice. Someone has access to your system [none:none: 78] Oct 24, 2020 06:54PM
Legit Way To Cut Energy Bill [none:none: 487] Oct 24, 2020 08:56AM
Bible passage STUNS medical community [none:none: 15] Oct 24, 2020 08:39AM
reveals cure for aging [none:none: 34] Oct 24, 2020 08:34AM
Smaller Belly [none:none: 375] Oct 24, 2020 08:17AM
plant kills sugar & carb cravings instantly [none:none: 5] Oct 24, 2020 07:37AM
Olya is waiting for your answer on email. [none:none: 12] Oct 24, 2020 06:11AM
Stunning results of survey conducted by the American Diabetes Association [none:none: 60] Oct 24, 2020 04:31AM
Lysol Disinfectant Spray [none:none: 134] Oct 24, 2020 03:54AM
Confirmed: Your Fifty Dollar Costco Offer [none:none: 21] Oct 24, 2020 01:04AM
ever before had the judging panel unanimously [none:none: 11] Oct 23, 2020 11:29PM
Diabetes Medication [none:none: 25] Oct 23, 2020 05:16PM
Hi! [none:none: 15645] Oct 23, 2020 03:49PM
Tasaciones en 24hs sin cargo [none:none: 98] Oct 23, 2020 02:48PM
Make 2020 your year with [none:none: 64] Oct 23, 2020 11:45AM
Power Companies [none:none: 5147] Oct 23, 2020 09:41AM
Slash your electricity bill in half [none:none: 47] Oct 23, 2020 09:39AM
Big Energy Prays You Never See This [none:none: 45] Oct 23, 2020 09:37AM
I recorded you [none:none: 1982] Oct 23, 2020 09:29AM
We know a [none:none: 2774] Oct 23, 2020 09:03AM
RegEX=The Meaning Of \d+ [none:none: 1416] Oct 23, 2020 07:23AM
Government and Police Auctions for [none:none: 139] Oct 23, 2020 07:09AM
Get your favorite car under $1000! [none:none: 120] Oct 23, 2020 07:09AM
Lawsuits are currently being filed now [none:none: 8] Oct 23, 2020 07:06AM
survival garden [none:none: 1927] Oct 23, 2020 05:07AM
fat storage [none:none: 3] Oct 23, 2020 05:03AM
Makes You Look Fat [none:none: 485] Oct 23, 2020 04:16AM
Get Lucky [none:none: 212] Oct 23, 2020 01:33AM
Compact Razor With 3 Powerful Rotary Heads [none:none: 20] Oct 22, 2020 11:49PM
I'm asking you [none:none: 1333] Oct 22, 2020 06:56PM
Rental Car [none:none: 3575] Oct 22, 2020 05:10PM
Home Alarm Equipment [none:none: 235] Oct 22, 2020 03:12PM
Leads and Scheduled appointments at [none:none: 7] Oct 22, 2020 01:56PM
Set Sail With First Access Visa [none:none: 15] Oct 22, 2020 01:44PM
your Costco [none:none: 933] Oct 22, 2020 12:28PM
compatible singles [none:none: 1925] Oct 22, 2020 11:02AM
RegEX=^PO.\d+.\d+$ [none:none: 256] Oct 22, 2020 10:28AM
Measuring your Website Success with Google [none:none: 66] Oct 22, 2020 10:06AM
What nightmares do to your body [none:none: 20] Oct 22, 2020 09:07AM
Date rape drug insight reverses obesity [none:none: 16] Oct 22, 2020 08:53AM
bladder issue [none:none: 7] Oct 22, 2020 08:47AM
60 second prostate trick [none:none: 5] Oct 22, 2020 08:46AM
igh Performance Grass Grows Thick and Full [none:none: 133] Oct 22, 2020 08:24AM
Many American Drivers are Overpaying [none:none: 293] Oct 22, 2020 07:12AM
American Drivers Find a Smarter Way to Save [none:none: 102] Oct 22, 2020 07:08AM
poop daily [none:none: 23] Oct 22, 2020 05:33AM
Factory Warranty has Expired [none:none: 8281] Oct 22, 2020 04:43AM
a New Roof [none:none: 5364] Oct 22, 2020 03:38AM
girls looking for dat [none:none: 320] Oct 22, 2020 02:02AM
Fastest Way To [none:none: 635] Oct 21, 2020 10:01PM
Diabetes Will Kill You [none:none: 951] Oct 21, 2020 08:36PM
reparaciones de computadoras y notebook [none:none: 104] Oct 21, 2020 03:46PM
Once In A Lifetime [none:none: 1590] Oct 21, 2020 02:07PM
How to get rid of Diabetes [none:none: 27] Oct 21, 2020 11:38AM
Invitation to Web seminar: Leadership Council [none:none: 3] Oct 21, 2020 11:31AM
of the best senior deals today [none:none: 3] Oct 21, 2020 10:48AM
look your best [none:none: 1553] Oct 21, 2020 10:45AM
RegEX=^RE: Campaign report$ [none:none: 387] Oct 21, 2020 10:32AM
hit a dime sized target [none:none: 252] Oct 21, 2020 09:44AM
auto coverage [none:none: 2814] Oct 21, 2020 07:17AM
Accurate temperature readings in [none:none: 133] Oct 21, 2020 05:17AM
Check Temperature Quickly and Accurately [none:none: 226] Oct 21, 2020 05:14AM
Insane Invention [none:none: 432] Oct 21, 2020 03:49AM
to hookup [none:none: 23656] Oct 21, 2020 02:59AM
Show off your new Drone for less then [none:none: 27] Oct 20, 2020 09:49PM
Never seen before Drone hits the Market by storm [none:none: 5] Oct 20, 2020 09:44PM
RegEX=^Up\ to\ \d+\%\ off\ Custom\ Prints\ this\ Fall$ [none:none: 447] Oct 20, 2020 09:01PM
IQ Alerts With Application Monitoring [none:none: 13] Oct 20, 2020 05:44PM
Your mailbox quota full [none:none: 8] Oct 20, 2020 03:27PM
Supplies Are Limited And This Offer May End At Any Time! [none:none: 32] Oct 20, 2020 12:13PM
Action required for [none:none: 4] Oct 20, 2020 12:05PM
Virtual Pilot 3D [none:none: 209] Oct 20, 2020 11:20AM
Webinar Recession Proof Your Business [none:none: 21] Oct 20, 2020 10:04AM
Could Help You [none:none: 2506] Oct 20, 2020 07:35AM
Medical Researcher RIPS Diabetes Establishment [none:none: 136] Oct 20, 2020 04:51AM
Best Sleeping Pillow [none:none: 19] Oct 20, 2020 04:02AM
The All In One Saw Does It All [none:none: 67] Oct 20, 2020 02:59AM
I don't want to die [none:none: 5] Oct 20, 2020 02:12AM
movie night [none:none: 110] Oct 20, 2020 01:44AM
alluring women [none:none: 106] Oct 20, 2020 12:46AM
ED pill [none:none: 85] Oct 20, 2020 12:02AM
Ranked by Experts. Reviewed by YOU [none:none: 74] Oct 19, 2020 07:31PM
Security should be part of your business plan [none:none: 23] Oct 19, 2020 01:54PM
take out any attacker [none:none: 5] Oct 19, 2020 11:47AM
From UV Rays [none:none: 13] Oct 19, 2020 11:47AM
Eliminate Emergency A/C Repair Bills With A New System [none:none: 38] Oct 19, 2020 09:55AM
This Popular Supplement Increases Your Risk Of Disease [none:none: 45] Oct 19, 2020 08:59AM
Always Fatigued [none:none: 70] Oct 19, 2020 08:51AM
3D Animation [none:none: 346] Oct 19, 2020 08:32AM
Archangel Michael [none:none: 589] Oct 19, 2020 08:06AM
Amora Coffee [none:none: 1060] Oct 19, 2020 07:58AM
Easiest way to get a Medicare Quote [none:none: 149] Oct 19, 2020 07:49AM
No Obligation Medicare Quotes [none:none: 219] Oct 19, 2020 07:28AM
Stronger Butt [none:none: 2021] Oct 18, 2020 01:07PM
Senior Discounts [none:none: 2180] Oct 18, 2020 01:04PM
Your Scores May Have Changed [none:none: 965] Oct 18, 2020 12:00PM
Soluciones en logistica y distribucion [none:none: 13] Oct 18, 2020 11:55AM
Bill Gates needs his brain [none:none: 38] Oct 18, 2020 11:43AM
Bright Alert Awake Alive Now SMARTER too [none:none: 4] Oct 18, 2020 11:28AM
Put your spine back into perfect alignment [none:none: 19] Oct 18, 2020 10:26AM
Grass That Tolerates Heavy Food Traffic [none:none: 55] Oct 18, 2020 09:53AM
Transfer your WIFI router to a different spot [none:none: 45] Oct 18, 2020 09:04AM
Saw Eyesight Improve [none:none: 13] Oct 18, 2020 08:50AM
A damaged liver is easily reversible [none:none: 441] Oct 18, 2020 08:02AM
How to reverse damage to your liver [none:none: 455] Oct 18, 2020 08:01AM
guys laid [none:none: 9] Oct 18, 2020 05:11AM
No more auto repair bills! [none:none: 54] Oct 18, 2020 04:36AM
Find love [none:none: 1761] Oct 18, 2020 04:29AM
Years Younger [none:none: 2641] Oct 18, 2020 02:59AM
Bark, bark, bark then [none:none: 187] Oct 18, 2020 02:45AM
Precio economico en Insumos de impresion [none:none: 69] Oct 17, 2020 02:02PM
Erect Pills [none:none: 328] Oct 17, 2020 01:07PM
Equifax Message: Scores May Change [none:none: 58] Oct 17, 2020 12:09PM
A Derogatory mark may have been added to your [none:none: 73] Oct 17, 2020 12:08PM
Hour bathroom upgrade [none:none: 55] Oct 17, 2020 11:05AM
To Regain Lost Memories [none:none: 811] Oct 17, 2020 10:24AM
The Daily Habit That Destroys Your Gums & Teeth (Read This) [none:none: 16] Oct 17, 2020 08:17AM
Speak any language in seconds [none:none: 207] Oct 17, 2020 08:06AM
The Vision Saving Secret [none:none: 11] Oct 17, 2020 05:52AM
This movement damages your spine [none:none: 510] Oct 17, 2020 04:55AM
Keeping All Your Teeth Guide [none:none: 4] Oct 17, 2020 02:35AM
I miss you. [none:none: 1198] Oct 17, 2020 02:32AM
Portable AC [none:none: 2709] Oct 16, 2020 10:55PM
You No longer need an Air Conditioner [none:none: 687] Oct 16, 2020 10:54PM
stay hard [none:none: 1241] Oct 16, 2020 01:15PM
Exercise not working [none:none: 1207] Oct 16, 2020 11:03AM
Another Successful Pricing In California [none:none: 10] Oct 16, 2020 10:30AM
Get Screened For Stroke and Heart Disease Risk [none:none: 21] Oct 16, 2020 09:07AM
The Advanced Flying Machine [none:none: 111] Oct 16, 2020 08:41AM
of seniors do not know are available [none:none: 207] Oct 16, 2020 08:14AM
Portable Medical Grade UV Germs [none:none: 165] Oct 16, 2020 06:09AM
This will save you from Corona virus [none:none: 208] Oct 16, 2020 05:55AM
Never Drop Internet Connection Ever Again [none:none: 110] Oct 16, 2020 04:53AM
STRIKEPEN [none:none: 2135] Oct 16, 2020 02:35AM
Tell us where to send [none:none: 724] Oct 16, 2020 01:12AM
RegEX=^Information$ [none:none: 135] Oct 15, 2020 09:48PM
Rebuild your gums and teeth overnight [none:none: 56] Oct 15, 2020 04:21PM
Mark Cuban [none:none: 12297] Oct 15, 2020 01:26PM
IRS Loophole Converts Your IRA [none:none: 73] Oct 15, 2020 12:39PM
GermCide X [none:none: 356] Oct 15, 2020 12:18PM
Protects your family without using harmful chemicals [none:none: 48] Oct 15, 2020 12:17PM
DIRECTV [none:none: 859] Oct 15, 2020 11:52AM
RE: Did you see this [none:none: 513] Oct 15, 2020 10:36AM
Disinfection Generator [none:none: 4] Oct 15, 2020 03:53AM
What would you do with [none:none: 763] Oct 14, 2020 10:57PM
angel who wants to dive in the strong arms of the man [none:none: 22] Oct 14, 2020 10:50PM
RegEX= No\.\d+$ [none:none: 10759] Oct 14, 2020 04:27PM
Sleep like a Baby [none:none: 216] Oct 14, 2020 10:21AM
Sugar Daddies [none:none: 109] Oct 14, 2020 10:01AM
RegEX=^Your Nomination$ [none:none: 8] Oct 14, 2020 09:54AM
Are You Drinking These Diabetes Death Drinks? [none:none: 9] Oct 14, 2020 08:48AM
The Success "Switch" In Your Brain [none:none: 107] Oct 14, 2020 08:30AM
Ready to Get Started? Let Liberty University Help [none:none: 15] Oct 14, 2020 07:25AM
Hardest Preparedness Lesson [none:none: 68] Oct 14, 2020 07:10AM
An Excellent Game [none:none: 851] Oct 14, 2020 06:18AM
(VIDEO) [none:none: 6405] Oct 14, 2020 05:48AM
Newest Design Eyes [none:none: 290] Oct 14, 2020 04:49AM
Want to Date [none:none: 661] Oct 14, 2020 03:41AM
Personal protective mask gives you ultimate defense against the virus. [none:none: 32] Oct 13, 2020 04:21PM
Best Gadget Deals [none:none: 138] Oct 13, 2020 02:48PM
Gadgets You Should Get [none:none: 138] Oct 13, 2020 02:47PM
Deals on Deals [none:none: 21] Oct 13, 2020 02:10PM
makes diabetes WORSE [none:none: 203] Oct 13, 2020 10:44AM
Where do we send your [none:none: 686] Oct 13, 2020 09:19AM
Drugstore Online Without Prescription [none:none: 99] Oct 13, 2020 09:15AM
Expandable Hose [none:none: 118] Oct 13, 2020 08:20AM
Say hello to a bacteria free home [none:none: 87] Oct 13, 2020 06:54AM
Improve the online reputation of your business [none:none: 54] Oct 13, 2020 05:59AM
carry concealed [none:none: 12] Oct 13, 2020 04:34AM
Terrace Spam system [none:none: 152] Oct 13, 2020 02:48AM
Sweep And Detect A Wide Range Of Illegal Spying Devices. [none:none: 9] Oct 13, 2020 02:47AM
PROBLEM WITH YOUR ACCOUNT (FINAL WARNING!!!) [none:none: 23] Oct 12, 2020 11:25PM
Pemmican [none:none: 1616] Oct 12, 2020 01:39PM
this is what happens [none:none: 176] Oct 12, 2020 12:00PM
CPAP Cleaner [none:none: 75] Oct 12, 2020 11:23AM
Fall into mortgage savings this season [none:none: 14] Oct 12, 2020 10:37AM
Fidelity Life [none:none: 2735] Oct 12, 2020 10:07AM
Release your [none:none: 962] Oct 12, 2020 08:40AM
Complete Smart Fitness Watch [none:none: 47] Oct 12, 2020 04:30AM
see our new [none:none: 117] Oct 12, 2020 03:11AM
Free Electric [none:none: 747] Oct 12, 2020 02:55AM
Curso Digital Con Fotos Videos Rapidisima Salida [none:none: 7] Oct 11, 2020 11:39AM
Home Repair Bills [none:none: 592] Oct 11, 2020 11:10AM
feel young again [none:none: 41] Oct 11, 2020 07:11AM
Would you feel safer if you carried a gun [none:none: 224] Oct 11, 2020 06:22AM
you need to read this [none:none: 117] Oct 11, 2020 06:20AM
Real time Intelligent Voice Translator [none:none: 5] Oct 11, 2020 05:48AM
Urgent News If [none:none: 650] Oct 11, 2020 05:00AM
RegEX=Burns\ \d+\ Pounds\ of\ Fat [none:none: 217] Oct 11, 2020 04:10AM
Enjoy wearing your favorite backless dress with this amazing design [none:none: 14] Oct 11, 2020 02:45AM
Why put Onions in Your Socks before Sleeping [none:none: 43] Oct 11, 2020 02:25AM
minute ritual restores energy and revives your [none:none: 5] Oct 10, 2020 08:07PM
Ropa de trabajo, uniformes, calzado de seguridad [none:none: 21] Oct 10, 2020 04:14PM
CPAP Sanitizer [none:none: 31] Oct 10, 2020 03:17PM
RegEX=Your \w+ is covered [none:none: 867] Oct 10, 2020 10:10AM
Fix Sagging Skin [none:none: 48] Oct 10, 2020 02:55AM
See This... [none:none: 1099] Oct 9, 2020 10:20PM
Keep You Warm [none:none: 615] Oct 9, 2020 12:00PM
Power Generation System [none:none: 93] Oct 8, 2020 11:54PM
About Last Night [none:none: 128] Oct 8, 2020 06:44PM
BLAZING Fast Wifi [none:none: 173] Oct 8, 2020 01:32PM
Want To Keep Your Wife Happy? Plug It In...Give Her Good Wifi [none:none: 7] Oct 8, 2020 12:50PM
Non Stop Wifi Goes All Day Long .com [none:none: 148] Oct 8, 2020 12:24PM
Wifi in Every Room [none:none: 217] Oct 8, 2020 12:22PM
Requested information [none:none: 363] Oct 8, 2020 12:05PM
Eat THIS for breakfast [none:none: 459] Oct 8, 2020 08:39AM
sexy [none:none: 2679] Oct 8, 2020 05:58AM
im down [none:none: 2407] Oct 8, 2020 05:11AM
help is needed [none:none: 1322] Oct 8, 2020 01:44AM
Best gift for handy men [none:none: 31] Oct 7, 2020 10:18PM
Business Card Manager [none:none: 9] Oct 7, 2020 11:42AM
Your Business Comes first, Keep it Secure [none:none: 21] Oct 7, 2020 09:41AM
Communicate in more than 38 languages ... [none:none: 80] Oct 7, 2020 04:54AM
Get A Good Night [none:none: 307] Oct 7, 2020 04:49AM
Best Natural Painkiller [none:none: 1501] Oct 7, 2020 03:31AM
DEADLY fungus infections [none:none: 40] Oct 6, 2020 08:21PM
Incurable Fungus Infection [none:none: 52] Oct 6, 2020 07:45PM
Test it and keep it [none:none: 10] Oct 6, 2020 03:15PM
unsecured loans [none:none: 511] Oct 6, 2020 01:16PM
How much do you want to borrow [none:none: 114] Oct 6, 2020 01:11PM
Shooting Hacks To Instantly Improve Your Accuracy [none:none: 1928] Oct 6, 2020 11:47AM
RegEX=^Important Notification$ [none:none: 442] Oct 6, 2020 09:39AM
super fast, super easy and super fun [none:none: 31] Oct 6, 2020 07:55AM
get back on track the smart way [none:none: 12] Oct 6, 2020 06:20AM
Get The Financial Help You Need Today [none:none: 401] Oct 6, 2020 05:50AM
Need a loan? [none:none: 19] Oct 6, 2020 12:56AM
Limitless Abundance [none:none: 17] Oct 5, 2020 05:21PM
Experts Call It "The Holy Grail Of Self Sufficiency" [none:none: 30] Oct 5, 2020 04:25PM
Domino's [none:none: 350] Oct 5, 2020 04:24PM
Loan Offer at a low rate [none:none: 164] Oct 5, 2020 11:16AM
This is What They Turn To [none:none: 15] Oct 5, 2020 11:09AM
Enjoy amazing espresso anywhere [none:none: 7] Oct 5, 2020 10:46AM
Loans To Fit Your Budget [none:none: 668] Oct 5, 2020 06:27AM
This Will Be Worse Than 9/11 [none:none: 246] Oct 5, 2020 04:13AM
Get a loan fast [none:none: 173] Oct 4, 2020 11:14AM
slash your credit card [none:none: 126] Oct 4, 2020 11:13AM
RegEX=^\\xE\d+\\x\d+\\x\d+CTennis\ ball\ trick\\xE\d+\\x\d+\\x\d+D\ to\ better\ vision$ [none:none: 149] Oct 4, 2020 08:42AM
What's the Closest Nuclear Bunker to Your Home [none:none: 182] Oct 4, 2020 07:21AM
Making a side income from home [none:none: 6] Oct 4, 2020 03:24AM
The best on the market is called Wifi Pod [none:none: 99] Oct 4, 2020 01:19AM
We have funding for you [none:none: 159] Oct 3, 2020 10:30AM
Hurry now and get your All Natural solution before [none:none: 55] Oct 3, 2020 09:46AM
Automatic Mosquito Protection [none:none: 25] Oct 3, 2020 06:08AM
USB powered mosquito lamp keeps you protected all night from the pesky insects [none:none: 90] Oct 3, 2020 06:05AM
spring to your step connect with like minded singles [none:none: 71] Oct 3, 2020 05:55AM
SharkTank [none:none: 302] Oct 3, 2020 04:29AM
Assault bag [none:none: 875] Oct 3, 2020 04:01AM
Energy ZAPPING veggie [none:none: 53] Oct 2, 2020 10:05PM
PROBLEMAS CON EL AIRE ACONDICIONADO [none:none: 15] Oct 2, 2020 05:18PM
Find loan offers from our lender [none:none: 216] Oct 2, 2020 12:23PM
money you need fast [none:none: 250] Oct 2, 2020 12:22PM
quick Approval for Quick Cash [none:none: 186] Oct 2, 2020 12:22PM
Portable Air Conditioner that [none:none: 23] Oct 2, 2020 11:16AM
Dead Batteries [none:none: 820] Oct 2, 2020 09:51AM
Need Extra Cash? Here's How [none:none: 221] Oct 2, 2020 06:33AM
Creates a Stronger, More Reliable Connection [none:none: 237] Oct 2, 2020 04:32AM
StableCAM Pro [none:none: 25] Oct 2, 2020 04:03AM
The ideal tool for streamers and vloggers [none:none: 8] Oct 2, 2020 04:03AM
Here's a personal match for you [none:none: 1048] Oct 2, 2020 02:51AM
Airconditioners are becoming obsolete [none:none: 551] Oct 2, 2020 01:25AM
are you free tomorrow [none:none: 1331] Oct 1, 2020 07:29PM
Tell me I'm dreaming [none:none: 129] Oct 1, 2020 04:15PM
your answer to becoming skinny [none:none: 1035] Oct 1, 2020 11:13AM
Drop dress sizes [none:none: 1306] Oct 1, 2020 11:12AM
natural remedies [none:none: 1246] Oct 1, 2020 10:59AM
Shrink Your Prostate [none:none: 86] Oct 1, 2020 10:30AM
Latest Jobs from Spectrum [none:none: 21] Oct 1, 2020 09:30AM
See why gold protects your IRA [none:none: 109] Oct 1, 2020 08:53AM
Takes Only 1 Minute A Night [none:none: 66] Oct 1, 2020 08:16AM
UV light [none:none: 1617] Oct 1, 2020 07:47AM
Increase your sales [none:none: 148] Oct 1, 2020 07:18AM
An Invitation from [none:none: 77] Oct 1, 2020 05:43AM
CCW Qualification [none:none: 34] Oct 1, 2020 04:03AM
stiff for 3 hours [none:none: 376] Oct 1, 2020 02:44AM
SCORE Webinar: Why Your Website Should be a Top [none:none: 12] Sep 30, 2020 07:36AM
Huge demand for people who speak English [none:none: 38] Sep 30, 2020 06:07AM
RegEX=Lost \d+ pounds [none:none: 461] Sep 30, 2020 04:41AM
no son escorts [none:none: 111] Sep 30, 2020 02:31AM
Summer Roofing Deals [none:none: 339] Sep 30, 2020 12:00AM
Can You Revive an Old Car Battery? Popular Mechanics Trick [none:none: 14] Sep 29, 2020 07:59PM
old batteries [none:none: 1299] Sep 29, 2020 07:58PM
Reactivate "Dead_Batteries" [none:none: 35] Sep 29, 2020 07:53PM
RE: following up with you again [none:none: 23] Sep 29, 2020 07:17PM
Hair Restoration [none:none: 1034] Sep 29, 2020 12:30PM
You deserve better [none:none: 16] Sep 29, 2020 12:15PM
Fares from $ [none:none: 209] Sep 29, 2020 12:04PM
Google'da ilk sayfada çıkın [none:none: 124] Sep 29, 2020 09:23AM
automatic soap dispenser [none:none: 25] Sep 29, 2020 07:30AM
Low Fares from [none:none: 11] Sep 29, 2020 05:30AM
RegEX=^how've things been\?$ [none:none: 21] Sep 29, 2020 05:19AM
Presenting in a Remote World [none:none: 7] Sep 29, 2020 01:02AM
Video of you [none:none: 2075] Sep 29, 2020 12:24AM
Borrow From A Trusted Resource [none:none: 439] Sep 28, 2020 03:59PM
Viandas saludables a domicilio [none:none: 41] Sep 28, 2020 03:09PM
Viandas a domicilio [none:none: 18] Sep 28, 2020 11:57AM
Complete survey, get [none:none: 51] Sep 28, 2020 10:22AM
Important COVID 19 business loan update [none:none: 165] Sep 28, 2020 08:16AM
Re: Website Error. [none:none: 39] Sep 28, 2020 06:42AM
ow To Pay Less Than [none:none: 47] Sep 28, 2020 05:20AM
Neck Massaging Device [none:none: 34] Sep 28, 2020 04:37AM
scaring air conditioning manufacturers. [none:none: 32] Sep 28, 2020 03:37AM
what would you do against an active shooter [none:none: 128] Sep 28, 2020 12:33AM
El mejor sistema de seguridad adaptado a tus necesidades [none:none: 8] Sep 27, 2020 07:09PM
1 Bathroom Trick That Kills Diabetes [none:none: 346] Sep 27, 2020 04:15PM
Want your pre baby body back READ this [none:none: 298] Sep 27, 2020 02:36PM
Finally cured of diabetes after drinking this [none:none: 28] Sep 27, 2020 10:06AM
meet the person who makes you sparkle [none:none: 179] Sep 27, 2020 07:34AM
Breast Lift Tape Silicone Adhesive Push up Bra [none:none: 21] Sep 27, 2020 06:08AM
Fix Aging Skin [none:none: 225] Sep 27, 2020 06:02AM
The meaning for your existence [none:none: 19] Sep 27, 2020 04:22AM
Perferct item to add to your Trump Collection [none:none: 80] Sep 27, 2020 04:16AM
LAST & FINAL WARNING NOTICE [none:none: 204] Sep 27, 2020 02:54AM
aims the gun for you [none:none: 407] Sep 27, 2020 02:51AM
Eliminate the hassles [none:none: 299] Sep 26, 2020 02:34PM
your digital marketing [none:none: 44] Sep 26, 2020 11:39AM
Are You Ready To Take Back Control Of Your Thyroid [none:none: 148] Sep 26, 2020 04:31AM
younger looking skin [none:none: 757] Sep 26, 2020 02:03AM
Horny [none:none: 3951] Sep 25, 2020 07:24PM
cientists Discover Link Between Depression [none:none: 43] Sep 25, 2020 02:52PM
female satisfaction [none:none: 817] Sep 25, 2020 02:39PM
Increase Your Size and Stamina [none:none: 14] Sep 25, 2020 02:24PM
No more deadspots, pixelated streaming [none:none: 521] Sep 25, 2020 12:36PM
Internet is slow [none:none: 10] Sep 25, 2020 12:35PM
Slow internet means everyone has a bad day. Put this ONE simple device next to your router. [none:none: 11] Sep 25, 2020 12:35PM
What if you could triple your internet speed [none:none: 10] Sep 25, 2020 12:35PM
RegEX=^Do\ you\ have\ \d+\ seconds\ a\ day\?\ Melt\ away\ \d+\ pounds\ of\ fat$ [none:none: 10] Sep 25, 2020 11:03AM
The 7 second daily ritual that melts away 62 pounds of fat [none:none: 20] Sep 25, 2020 11:02AM
Seven second daily ritual literally melts away 62 pounds of fat [none:none: 17] Sep 25, 2020 11:02AM
Minute Video Has The [none:none: 20] Sep 25, 2020 10:22AM
check for fever [none:none: 44] Sep 25, 2020 10:17AM
Thermometers are BACK [none:none: 63] Sep 25, 2020 10:14AM
This will triple the brightness in your [none:none: 81] Sep 25, 2020 09:54AM
LED garage light [none:none: 246] Sep 25, 2020 09:48AM
Five times more light in your garage or attic in seconds [none:none: 31] Sep 25, 2020 09:47AM
Improve the lighting in your garage or workspace with this easy to install LED [none:none: 93] Sep 25, 2020 09:47AM
ATTN: Please Check Your Credit Report [none:none: 94] Sep 25, 2020 09:04AM
ATTN: Please Check Your Financial Accounts [none:none: 47] Sep 25, 2020 09:03AM
ATTN: Do You Recognize These Changes To Your Credit Report? [none:none: 56] Sep 25, 2020 09:02AM
ATTN: Please Confirm & Verify For Any Account Changes [none:none: 48] Sep 25, 2020 09:01AM
Perfect solution to any dimly lit part [none:none: 55] Sep 25, 2020 08:39AM
gloomy to happy and safe [none:none: 55] Sep 25, 2020 08:39AM
Brighter garage will make projects and working so much easier [none:none: 82] Sep 25, 2020 08:39AM
In seconds you could have a much brighter lit garage or attic [none:none: 46] Sep 25, 2020 08:38AM
infared thermometer [none:none: 175] Sep 25, 2020 08:10AM
safely witbout touchiing anyone [none:none: 8] Sep 25, 2020 08:09AM
While You Can [none:none: 170] Sep 25, 2020 07:01AM
Australian Cooking Oil [none:none: 77] Sep 25, 2020 05:00AM
Vehicle Repairs [none:none: 541] Sep 25, 2020 02:28AM
Business funding services for your compan [none:none: 121] Sep 25, 2020 01:18AM
Summer Deals [none:none: 810] Sep 24, 2020 10:55AM
HD Video Quality, Answer Your Door & Watch at Any [none:none: 27] Sep 24, 2020 10:43AM
Get Protected [none:none: 329] Sep 24, 2020 10:11AM
Cleaning endoscope [none:none: 13] Sep 24, 2020 08:33AM
a safe distance [none:none: 157] Sep 24, 2020 07:27AM
Massaging eye mask that helps you recover from daily stress [none:none: 42] Sep 24, 2020 06:33AM
This Gadget Will make the World Your Home [none:none: 37] Sep 24, 2020 05:22AM
They want to destroy this video before the public finds their secret [none:none: 14] Sep 24, 2020 03:40AM
your dream love [none:none: 158] Sep 24, 2020 12:59AM
Asian Bride [none:none: 280] Sep 24, 2020 12:55AM
Re: Established businesses = $24.99/month credit card processing unlimited flat fee [none:none: 17] Sep 23, 2020 08:47PM
Your Gun Holste [none:none: 110] Sep 23, 2020 12:32PM
f r e e [none:none: 1457] Sep 23, 2020 10:10AM
LED Light for the Dimmest Spaces [none:none: 10] Sep 23, 2020 09:44AM
Hump Day [none:none: 208] Sep 23, 2020 08:36AM
solution to damaging blue light [none:none: 77] Sep 23, 2020 07:42AM
Revolutionary Tech Keeps Your Family Safe [none:none: 238] Sep 23, 2020 04:59AM
You're Never too old to enjoy a discount! [none:none: 18] Sep 23, 2020 04:44AM
Discounts Seniors Didn [none:none: 255] Sep 23, 2020 04:44AM
Cutting Edge Design With Rugged Durability [none:none: 712] Sep 23, 2020 04:37AM
Viandas con productos organicos [none:none: 45] Sep 22, 2020 04:14PM
moon lamp [none:none: 16] Sep 22, 2020 03:48PM
RegEX=^Special\ prize\ win\ a\ \$\d+\ CVS\ Gift\ Voucher\!$ [none:none: 208] Sep 22, 2020 03:13PM
Bikini Season [none:none: 1237] Sep 22, 2020 01:23PM
Instantly reduce your electricity bill by [none:none: 16] Sep 22, 2020 10:32AM
Only a KN95 mask [none:none: 26] Sep 22, 2020 09:37AM
If You Have Aging Vision, [none:none: 18] Sep 22, 2020 09:16AM
Eat THESE Foods If You Have Aging Vision [none:none: 39] Sep 22, 2020 09:16AM
Infrared thermometers [none:none: 479] Sep 22, 2020 09:13AM
temp without [none:none: 158] Sep 22, 2020 09:12AM
Pet Health [none:none: 119] Sep 22, 2020 07:58AM
man impregnated [none:none: 1065] Sep 22, 2020 04:23AM
Camera Shoots In Incredible High Definition [none:none: 213] Sep 21, 2020 06:04PM
RegEX=^RE: LinkedIn accounts$ [none:none: 126] Sep 21, 2020 12:53PM
RE: Verified Lead accounts [none:none: 44] Sep 21, 2020 11:34AM
She doesn [none:none: 1344] Sep 21, 2020 10:46AM
Your partner deserves [none:none: 2462] Sep 21, 2020 10:29AM
Safe Temperature checks during the pandemic [none:none: 9] Sep 21, 2020 10:14AM
Brighten up your dimly lit garage or basement [none:none: 85] Sep 21, 2020 09:00AM
ultra bright garage light [none:none: 73] Sep 21, 2020 08:59AM
this thermometer [none:none: 91] Sep 21, 2020 08:42AM
Touchless, quick, accurate, thermometer readings [none:none: 172] Sep 21, 2020 08:42AM
No touch, quick, accurate, body temp readings [none:none: 152] Sep 21, 2020 08:42AM
Stay Safe Know what your temp [none:none: 71] Sep 21, 2020 08:42AM
Point, shoot, you know your temp [none:none: 262] Sep 21, 2020 08:42AM
Take temperature without touching [none:none: 229] Sep 21, 2020 08:42AM
Touchless thermom [none:none: 36] Sep 21, 2020 08:42AM
Take 10 Years Off Your Appearance [none:none: 294] Sep 21, 2020 07:35AM
Universal Electric Knife Sharpener [none:none: 19] Sep 21, 2020 07:22AM
most notorious playboys [none:none: 825] Sep 20, 2020 11:36AM
CoolAir [none:none: 185] Sep 20, 2020 10:02AM
RegEX=^View the pic [none:none: 1758] Sep 20, 2020 08:18AM
Are you looking for lasting love [none:none: 1244] Sep 20, 2020 04:43AM
Researchers In One Study Discovered [none:none: 29] Sep 20, 2020 04:29AM
create a spark with someone special [none:none: 45] Sep 20, 2020 04:04AM
Stiff for se x [none:none: 316] Sep 19, 2020 10:45PM
in under 10 seconds [none:none: 1176] Sep 19, 2020 08:15PM
Skip the worry [none:none: 346] Sep 19, 2020 09:49AM
hard on secret [none:none: 3164] Sep 18, 2020 05:05PM
Shed weight [none:none: 877] Sep 18, 2020 03:48PM
unsatisfied with their weight [none:none: 30] Sep 18, 2020 03:47PM
Get Your Ex [none:none: 468] Sep 18, 2020 11:00AM
KN95 Filtering Masks [none:none: 107] Sep 18, 2020 08:39AM
Med grade thermometer [none:none: 21] Sep 18, 2020 07:29AM
Make Sure You Have The Best Possible Health Coverage [none:none: 12] Sep 18, 2020 03:19AM
Commemorative Coin [none:none: 826] Sep 18, 2020 01:53AM
2% LOAN OFFER [none:none: 10] Sep 17, 2020 11:26PM
Lose the weight [none:none: 269] Sep 17, 2020 03:49PM
2 Minute Ritual is Destroying Body Fat and Restoring Health ... [none:none: 62] Sep 17, 2020 02:19PM
RegEX=^Order Confirmation Needed$ [none:none: 279] Sep 17, 2020 01:16PM
Cool Down Any Space [none:none: 20] Sep 17, 2020 09:34AM
exact temperture in seconds [none:none: 138] Sep 17, 2020 09:04AM
Invisible Backless Underwear Bras For Women [none:none: 73] Sep 17, 2020 08:31AM
five times brighter [none:none: 25] Sep 17, 2020 07:16AM
Multiply the brightness in any room [none:none: 16] Sep 17, 2020 07:15AM
Baja tus costos fijos [none:none: 153] Sep 17, 2020 05:57AM
Have you heard about this [none:none: 900] Sep 17, 2020 03:51AM
RegEX=^never do this\b [none:none: 1272] Sep 17, 2020 03:49AM
facemask Surgical 3 ply pp [none:none: 18] Sep 16, 2020 10:25PM
efax [none:none: 277] Sep 16, 2020 02:15PM
Fuller Hair [none:none: 939] Sep 16, 2020 01:28PM
SQRIBBLE is Live! [none:none: 30] Sep 16, 2020 10:59AM
Your ears do not get properly cleaned out [none:none: 31] Sep 16, 2020 10:10AM
Your ears are likely filthy inside [none:none: 15] Sep 16, 2020 10:10AM
Touch Free Thermometer [none:none: 14] Sep 16, 2020 08:12AM
Employee Handbooks [none:none: 90] Sep 16, 2020 07:30AM
The Ultimate Survival Guide Pack [none:none: 14] Sep 16, 2020 06:35AM
These Gadgets Bring Summer Fun Anywhere [none:none: 51] Sep 16, 2020 06:26AM
Thoughtful Summer Gadget Gifts [none:none: 36] Sep 16, 2020 06:25AM
Final Call: [none:none: 1808] Sep 16, 2020 05:32AM
Cool Down The Room In 60 Secs [none:none: 71] Sep 16, 2020 03:33AM
RegEX=^Donation.$ [none:none: 17] Sep 15, 2020 04:07PM
Hottest Gadgets of the Summer [none:none: 107] Sep 15, 2020 11:59AM
Thermometers Available [none:none: 64] Sep 15, 2020 09:45AM
IRS Announces New Programs for Taxes Owed [none:none: 127] Sep 15, 2020 09:39AM
Up to half off [none:none: 83] Sep 15, 2020 08:53AM
Portable space cooler [none:none: 18] Sep 15, 2020 08:23AM
Perfect for souvenir art & collectible,business [none:none: 109] Sep 15, 2020 02:55AM
These gorgeous notes will bring joyful smiles to anyone who loves Trump and all that he stands for. [none:none: 58] Sep 15, 2020 02:53AM
Lbs Fat/Week [none:none: 18] Sep 15, 2020 02:11AM
every day by just taking this [none:none: 343] Sep 14, 2020 11:12PM
The #1 Natural Fungus Remedy Your Doctor Won't Tell You About [none:none: 55] Sep 14, 2020 08:01PM
Making Medicare Easy [none:none: 150] Sep 14, 2020 05:48PM
The ultimate Internet Speed fix [none:none: 53] Sep 14, 2020 04:43PM
Our experience sets us apart [none:none: 578] Sep 14, 2020 11:41AM
Perfect Vision In Only [none:none: 12] Sep 14, 2020 10:37AM
IR thermometer [none:none: 98] Sep 14, 2020 10:34AM
Social Media Ads with Victoria Byrne and Roni Ramos [none:none: 21] Sep 14, 2020 09:47AM
Energy saving way to cool down any room this summer [none:none: 18] Sep 14, 2020 08:08AM
Stop sweating your way through the night, cool down your bedroom [none:none: 13] Sep 14, 2020 08:07AM
Stop spreading and keep your distance [none:none: 75] Sep 14, 2020 07:24AM
LiveTemp Pro [none:none: 72] Sep 14, 2020 07:22AM
Free Energy [none:none: 4642] Sep 14, 2020 05:46AM
Hey, we get comments like: "better than knives that cost over $100" [none:none: 83] Sep 14, 2020 04:12AM
get it up [none:none: 607] Sep 13, 2020 09:36PM
CONSTRUCTOR CIVIL PUC + Disponibilidad Inmediata RM y VI Región [none:none: 16] Sep 13, 2020 08:59AM
Achieve a stronger bedroom Iife [none:none: 19] Sep 13, 2020 03:53AM
Instahard [none:none: 26] Sep 13, 2020 03:53AM
Revolutionary Medical Grade Technology Keeps Track [none:none: 356] Sep 13, 2020 02:27AM
One Thing You Need These Days [none:none: 150] Sep 12, 2020 03:48PM
No More Dead Zones [none:none: 218] Sep 12, 2020 03:47PM
All over the NEWS: Real Opportunity [none:none: 10] Sep 12, 2020 08:29AM
Compatible With Most CPAP Machines [none:none: 14] Sep 12, 2020 05:52AM
Plils [none:none: 231] Sep 12, 2020 03:14AM
Medicare Basics You Should Know [none:none: 283] Sep 12, 2020 01:04AM
Sleep aid [none:none: 896] Sep 11, 2020 01:13PM
microscope [none:none: 521] Sep 11, 2020 09:23AM
Portable cooling unit [none:none: 41] Sep 11, 2020 08:30AM
Let this innovative little wonder make your life much easier [none:none: 21] Sep 11, 2020 07:58AM
No more mopping, sweeping, or vacuuming by hand ever again [none:none: 15] Sep 11, 2020 07:57AM
Get To The Root Of This Nightmare And Fix It No Matter What. [none:none: 86] Sep 11, 2020 07:53AM
not your fault [none:none: 847] Sep 11, 2020 07:13AM
mosquitos away [none:none: 152] Sep 11, 2020 04:37AM
your Tax Debt [none:none: 670] Sep 10, 2020 12:43PM
Why women cheat [none:none: 18] Sep 10, 2020 07:04AM
This simple sock eliminates tension and foot pain [none:none: 90] Sep 10, 2020 04:39AM
Tracks your body temperature [none:none: 498] Sep 10, 2020 02:13AM
Get the Most Out of the WiFi You Pay For [none:none: 493] Sep 9, 2020 11:06PM
Master the art of wood building (build practically anything) [none:none: 29] Sep 9, 2020 04:49PM
People are making money SELF QUARANTINED [none:none: 30] Sep 9, 2020 02:31PM
RegEX=^Holiday\ Sale\:\ Unlimited\ \d+x\d+s\ for\ \$\d+\.\d+$ [none:none: 282] Sep 9, 2020 10:52AM
Drink this at night before going to sleep [none:none: 25] Sep 9, 2020 10:12AM
Added4free [none:none: 152] Sep 9, 2020 09:13AM
New study finds majority of masks are uneffective [none:none: 12] Sep 9, 2020 09:07AM
Who looks at Banner Ads [none:none: 13] Sep 9, 2020 08:36AM
Descuento para tus vacaciones [none:none: 36] Sep 9, 2020 02:34AM
Importantes Descuentos en Turismo [none:none: 17] Sep 9, 2020 02:13AM
Take their temp from far away [none:none: 40] Sep 8, 2020 03:54PM
15 Military Discounts Only Available To Those That Served [none:none: 795] Sep 8, 2020 03:20PM
Purify and cool the air in any room in your home in minutes [none:none: 18] Sep 8, 2020 08:32AM
No need for a window with this incredible portable A/C [none:none: 26] Sep 8, 2020 08:30AM
Humidifies, purifies and chills the air using evaporative technology [none:none: 11] Sep 8, 2020 08:30AM
Portable air conditioner cools any space in minutes [none:none: 20] Sep 8, 2020 08:29AM
Customize Your New Shower [none:none: 19] Sep 8, 2020 03:22AM
Harry's trial offer [none:none: 32] Sep 7, 2020 10:25AM
Your trial set includes a [none:none: 205] Sep 7, 2020 10:22AM
overpaying for razors [none:none: 37] Sep 7, 2020 10:21AM
switched to this razor [none:none: 21] Sep 7, 2020 10:21AM
Revolutionary Thermometer [none:none: 254] Sep 7, 2020 07:51AM
Score This Great Deal [none:none: 530] Sep 7, 2020 05:20AM
How to never be scared of getting in a fight [none:none: 133] Sep 7, 2020 05:18AM
friend who snores [none:none: 13] Sep 7, 2020 03:29AM
Real time transmission with HD quality [none:none: 20] Sep 7, 2020 02:41AM
Feminists Hate This Dirty Trick [none:none: 492] Sep 7, 2020 02:18AM
for SEX [none:none: 1816] Sep 7, 2020 02:15AM
Doctor's Seduction Secret [none:none: 310] Sep 7, 2020 02:15AM
Your accounts were hacked by a criminal group [none:none: 194] Sep 7, 2020 01:47AM
Security Alert. Your accounts were compromised [none:none: 67] Sep 7, 2020 12:44AM
Hackers know password from your account. Password must be changed now. [none:none: 648] Sep 6, 2020 08:42PM
Protect Scores During Coronavirus [none:none: 14] Sep 6, 2020 08:32PM
Fraudsters know your old passwords [none:none: 59] Sep 6, 2020 04:54PM
Account was under attack [none:none: 1905] Sep 6, 2020 04:00PM
The decision to suspend your account [none:none: 1731] Sep 6, 2020 03:31PM
Great Guide for him [none:none: 31] Sep 6, 2020 12:16PM
Get paid hundreds [none:none: 12] Sep 6, 2020 06:46AM
The Hottest Tripod to Hit the Market [none:none: 63] Sep 6, 2020 03:50AM
Hot Season ? Solution is Here [none:none: 81] Sep 5, 2020 05:05AM
A Smarter Way To Sleep [none:none: 296] Sep 5, 2020 04:43AM
psoriasis [none:none: 4000] Sep 5, 2020 04:04AM
sex drive [none:none: 172] Sep 4, 2020 09:09AM
your repair bills [none:none: 108] Sep 4, 2020 06:08AM
coolest thing [none:none: 2189] Sep 4, 2020 05:27AM
Second Class Action Notice: In re Apple Inc. Device Performance Litigation [none:none: 12] Sep 3, 2020 06:34PM
Darlehen Angebot [none:none: 17] Sep 3, 2020 01:06PM
Best Google Ads Alternative [none:none: 44] Sep 3, 2020 11:31AM
Clean, cool, purified air for any room in your home [none:none: 19] Sep 3, 2020 11:06AM
Ordinary cloth masks do not filter [none:none: 16] Sep 3, 2020 09:17AM
Claim your trial offer [none:none: 436] Sep 3, 2020 07:29AM
Dr. Oz [none:none: 1387] Sep 3, 2020 07:02AM
Free Audiobooks are Waiting [none:none: 24] Sep 3, 2020 04:31AM
elp Protect the Most Important Things in Life. [none:none: 83] Sep 3, 2020 03:16AM
Is Your Home Safe [none:none: 39] Sep 3, 2020 03:14AM
RegEX=^Message subject$ [none:none: 2253] Sep 2, 2020 10:52PM
RESUMO DA REDE DE ATENDIMENTO EM SÃO PAULO [none:none: 24] Sep 2, 2020 10:48PM
Welcome To SterilizerXF Get 50% Off [none:none: 19] Sep 2, 2020 12:33PM
Breakthrough in Electric Car Technology [none:none: 719] Sep 2, 2020 10:34AM
Food shortages imminent [none:none: 32] Sep 2, 2020 09:22AM
How long until food crisis [none:none: 53] Sep 2, 2020 09:19AM
No Touch Forehead Thermometer [none:none: 29] Sep 2, 2020 08:16AM
sex life [none:none: 5335] Sep 2, 2020 06:38AM
Three speed Personal Space Air Humidifier [none:none: 120] Sep 2, 2020 04:18AM
Connect to the internet from anywhere with 4G speed! [none:none: 81] Sep 2, 2020 02:14AM
Ear Cleaning Endoscope [none:none: 12] Sep 2, 2020 12:01AM
Resistance Bands Set [none:none: 20] Sep 1, 2020 10:24AM
Only Pay for What You Need [none:none: 534] Sep 1, 2020 09:12AM
Multiple Time Casino Winner Shocks the World [none:none: 14] Sep 1, 2020 08:16AM
Your Own Odds of Beating the Casino [none:none: 229] Sep 1, 2020 08:03AM
The Odds of Beating the Casinos Are Changing [none:none: 216] Sep 1, 2020 07:59AM
contact thermometers [none:none: 128] Sep 1, 2020 07:22AM
Your Body's Natural Thinning Enzyme [none:none: 21] Sep 1, 2020 06:27AM
Fact you're still right on the plan to lose even more weight! [none:none: 27] Sep 1, 2020 06:24AM
Harvard Researcher Says: "We Finally Know Why These Islanders Eat More Fatty Food Than Americans. [none:none: 36] Sep 1, 2020 06:23AM
Monitor your home [none:none: 95] Sep 1, 2020 04:14AM
Free Breathing Masks [none:none: 62] Sep 1, 2020 03:36AM
WORLDWIDE Breathing Mask Shortage [none:none: 463] Sep 1, 2020 03:30AM
Superior sounding earbuds [none:none: 28] Aug 31, 2020 10:18AM
It saves time and cuts down waste [none:none: 103] Aug 31, 2020 07:42AM
InstaCooler [none:none: 89] Aug 31, 2020 07:28AM
Contacts database in few minutes [none:none: 20] Aug 31, 2020 03:25AM
Build Anything Out From Wood Guide Included [none:none: 18] Aug 31, 2020 01:49AM
your pest problem solved [none:none: 218] Aug 31, 2020 12:52AM
sexual life [none:none: 746] Aug 31, 2020 12:47AM
Smart Seniors use these discounts [none:none: 85] Aug 30, 2020 10:42AM
turn her on [none:none: 332] Aug 30, 2020 08:37AM
Earn Money [none:none: 2890] Aug 30, 2020 12:29AM
Play a cool game [none:none: 27] Aug 29, 2020 09:35AM
Claim your gift card now [none:none: 203] Aug 29, 2020 07:28AM
No one beats our Jackpots [none:none: 27] Aug 29, 2020 07:20AM
Your operating system has been hacked by cybercriminals. Change the authorization method. [none:none: 425] Aug 28, 2020 09:47PM
We've got Marvel Jackpots [none:none: 48] Aug 28, 2020 04:55PM
Wireless Charging System [none:none: 290] Aug 28, 2020 11:32AM
meet someone special [none:none: 37] Aug 28, 2020 07:23AM
RE: Lead report [none:none: 29] Aug 28, 2020 04:34AM
Lower your energy bills [none:none: 220] Aug 28, 2020 03:06AM
Resistance Band Set [none:none: 16] Aug 27, 2020 10:48AM
Fed up with [none:none: 510] Aug 27, 2020 10:46AM
Eliminate All Odors From Your Home [none:none: 20] Aug 27, 2020 09:19AM
A partir de 3 vidas [none:none: 58] Aug 27, 2020 09:04AM
Amazon Reward [none:none: 20382] Aug 27, 2020 08:43AM
wireless earbuds [none:none: 1729] Aug 27, 2020 08:42AM
Secret Book of Alternative [none:none: 65] Aug 27, 2020 08:15AM
When Doctors Don\xE2\x80\x99t Have A Clue [none:none: 61] Aug 27, 2020 08:14AM
The Smart Watch that brings together sport and design in a single device. [none:none: 16] Aug 27, 2020 07:47AM
Banned Ear Practice Restores Hearing [none:none: 22] Aug 27, 2020 07:10AM
Don't Disapoint Her [none:none: 246] Aug 27, 2020 05:32AM
Are You Looking To Love Again [none:none: 1074] Aug 27, 2020 05:28AM
They HATE It When It's Small [none:none: 26] Aug 27, 2020 05:27AM
Bring any dead battery to life [none:none: 18] Aug 27, 2020 05:05AM
Emails database in few minutes [none:none: 15] Aug 27, 2020 03:26AM
Donald Trump Hat [none:none: 30] Aug 27, 2020 03:16AM
Never Diet Again [none:none: 456] Aug 26, 2020 04:32PM
Caught on Camera [none:none: 1064] Aug 26, 2020 12:05PM
EXCLUSIVE: Could This Certified Face Mask Help Prevent Deadly Virus Outbreaks? [none:none: 69] Aug 25, 2020 07:06PM
Clean Air Breathing [none:none: 1260] Aug 25, 2020 07:05PM
Block Blinding Glare [none:none: 76] Aug 25, 2020 07:50AM
Vehicle Visor With Light Filtering Technology [none:none: 88] Aug 25, 2020 07:49AM
Getting Covered just got Easier [none:none: 61] Aug 25, 2020 03:09AM
Medicare Made Easy [none:none: 52] Aug 25, 2020 02:53AM
will shock you [none:none: 1616] Aug 24, 2020 11:09AM
EVATAC Combat Bag [none:none: 62] Aug 24, 2020 09:42AM
9D Deep Bass [none:none: 37] Aug 24, 2020 08:26AM
food that kills diabetes [none:none: 488] Aug 24, 2020 02:41AM
This device is the ULTIMATE bug killer [none:none: 164] Aug 23, 2020 04:25PM
mosquito killing device [none:none: 173] Aug 23, 2020 04:23PM
Get BIGGER and LONGER Without Surgery [none:none: 188] Aug 23, 2020 11:39AM
With This Visor [none:none: 173] Aug 22, 2020 09:44PM
Are you a friend of Amazon [none:none: 251] Aug 22, 2020 11:58AM
AirCooler [none:none: 22] Aug 22, 2020 11:11AM
Enjoy Clean Gutters [none:none: 234] Aug 22, 2020 07:11AM
Are you looking for that perfect Someone [none:none: 15] Aug 22, 2020 04:02AM
What would you like to do with me [none:none: 1400] Aug 21, 2020 11:38PM
Bluechew [none:none: 667] Aug 21, 2020 09:17PM
Chewable tablets work [none:none: 36] Aug 21, 2020 09:07PM
I liked you. [none:none: 898] Aug 21, 2020 06:00PM
temperature from a distance [none:none: 102] Aug 21, 2020 05:23PM
accurate, body temperature [none:none: 145] Aug 21, 2020 04:47PM
chill this summer [none:none: 52] Aug 21, 2020 01:19PM
Cool yourself down this summer [none:none: 68] Aug 21, 2020 01:16PM
RegEX=^become the [none:none: 213] Aug 21, 2020 06:23AM
Exclusive Rewards Worth Over [none:none: 35] Aug 21, 2020 05:36AM
Spin the wheel and claim your special prize [none:none: 17] Aug 20, 2020 02:06PM
Sending You a Free Container of Protein [none:none: 376] Aug 20, 2020 02:49AM
Bedtime Diabetes Fix [none:none: 27] Aug 19, 2020 07:51PM
Keep cool this summer [none:none: 62] Aug 19, 2020 05:38PM
El mejor seguro para tu auto [none:none: 24] Aug 19, 2020 03:12PM
Cool Air Anytime and Anywhere You Need [none:none: 26] Aug 19, 2020 02:39PM
Are you losing the war with your lawn [none:none: 48] Aug 19, 2020 10:19AM
Grass seed that even grows on concrete [none:none: 37] Aug 19, 2020 10:14AM
ringing in your ears [none:none: 1210] Aug 19, 2020 09:22AM
ringing ear [none:none: 1159] Aug 19, 2020 09:20AM
Are you ready to live debt free [none:none: 59] Aug 19, 2020 02:11AM
Are you at risk [none:none: 353] Aug 18, 2020 12:57PM
no diet or exercise [none:none: 2495] Aug 18, 2020 10:44AM
Hit This Pressure Point To Increase Your Size by 67% [none:none: 691] Aug 18, 2020 09:33AM
cleaning quote [none:none: 68] Aug 18, 2020 05:00AM
Creat a personal cooling zone [none:none: 61] Aug 18, 2020 04:43AM
RegEX=Earn\ \$\d+\ from\ home$ [none:none: 22] Aug 18, 2020 04:08AM
Bulk Email Sending Service [none:none: 129] Aug 17, 2020 03:50PM
Unhealthy posture can lead to long term backpain [none:none: 15] Aug 17, 2020 02:51PM
Some things are better left to the professional [none:none: 234] Aug 17, 2020 12:21PM
Just point and shoot and take their temp from a distance [none:none: 30] Aug 17, 2020 12:03PM
banner ad campaign on WSJ or NYT from [none:none: 25] Aug 17, 2020 09:19AM
CHF Bring it on home [none:none: 21] Aug 17, 2020 08:01AM
Customized Insurance Quote [none:none: 170] Aug 16, 2020 11:42PM
18 cuotas sin interes [none:none: 38] Aug 16, 2020 05:53AM
Deleting this email could cost you [none:none: 118] Aug 16, 2020 02:12AM
MM U.S. Business Contacts $ [none:none: 22] Aug 15, 2020 10:06PM
Odd carb trick [none:none: 312] Aug 15, 2020 06:00PM
Orgasm [none:none: 2688] Aug 15, 2020 12:56PM
Sleep all night [none:none: 316] Aug 15, 2020 11:05AM
Security Alert. Your account was compromised [none:none: 29] Aug 15, 2020 08:20AM
Switch to Liberty Mutual and you could Save [none:none: 196] Aug 15, 2020 03:15AM
You could save $ [none:none: 1289] Aug 15, 2020 03:15AM
We hear you like savings [none:none: 149] Aug 15, 2020 03:13AM
Is Your Child High Risk [none:none: 33] Aug 14, 2020 04:03AM
s e x [none:none: 1044] Aug 14, 2020 03:30AM
For Men only [none:none: 89] Aug 13, 2020 10:22PM
miracle cure [none:none: 762] Aug 13, 2020 05:35PM
Regalos empresariales [none:none: 180] Aug 13, 2020 04:20PM
Overcome bad credit and get approved [none:none: 69] Aug 13, 2020 11:09AM
Generate Ebooks On Demand With NEW Technology [none:none: 107] Aug 13, 2020 07:34AM
Looking For..Work From...Home... [none:none: 70] Aug 13, 2020 07:29AM
Sleeping pills are wrecking your immunity [none:none: 71] Aug 13, 2020 04:26AM
Bad credit debt consolidation [none:none: 187] Aug 13, 2020 02:12AM
Take control of your finances [none:none: 72] Aug 13, 2020 02:11AM
be debt free [none:none: 479] Aug 13, 2020 02:10AM
Dating Site [none:none: 178] Aug 13, 2020 02:07AM
Burial Insurance [none:none: 13581] Aug 12, 2020 09:14PM
Become debt free [none:none: 399] Aug 12, 2020 02:11AM
We've been trying to reach you please respond [none:none: 51] Aug 12, 2020 02:10AM
SafeMask [none:none: 260] Aug 11, 2020 03:10PM
Think you are safe? Think again! [none:none: 106] Aug 11, 2020 11:24AM
Frankly, I don\'t know what to say here! [none:none: 141] Aug 11, 2020 11:19AM
So much for the wall [none:none: 565] Aug 11, 2020 11:14AM
Melt Away Fat [none:none: 82] Aug 11, 2020 06:19AM
wear this mask to fight chances [none:none: 76] Aug 11, 2020 06:12AM
Cleans phone or jewelry [none:none: 71] Aug 11, 2020 05:39AM
chance to save hundreds [none:none: 84] Aug 11, 2020 04:14AM
t's time to start saving Get an online quote [none:none: 240] Aug 11, 2020 04:14AM
Get Help with Medicare [none:none: 162] Aug 11, 2020 02:56AM
One Payment to Pay Down Debt Quicker [none:none: 71] Aug 11, 2020 02:10AM
Debt. Resolution. Made. Easy [none:none: 58] Aug 10, 2020 02:11AM
Special Gadget Deals for Just Gismos Readers [none:none: 133] Aug 9, 2020 04:48PM
19 Amazingly Affordable Gadgets [none:none: 125] Aug 9, 2020 04:43PM
reverse psychology [none:none: 732] Aug 9, 2020 06:18AM
Open to see how you could save hundreds [none:none: 63] Aug 9, 2020 04:24AM
Welcome to a FREE HealthInsurance.net Quote [none:none: 38] Aug 9, 2020 02:10AM
solution to snoring [none:none: 342] Aug 8, 2020 02:09PM
Don't Apply for a Payday Loan [none:none: 58] Aug 8, 2020 03:11AM
Keep The Family Happy WIth Wifi Everywhere [none:none: 20] Aug 7, 2020 05:32PM
"No contact" thermometers [none:none: 20] Aug 7, 2020 09:58AM
RegEX=^ *$ [none:none: 20079] Aug 7, 2020 01:51AM
Coffee Quotes [none:none: 85] Aug 6, 2020 06:48PM
Your new favorite shooting [none:none: 318] Aug 5, 2020 07:00PM
Your Family Will Love Using These Gadgets [none:none: 129] Aug 5, 2020 12:49PM
There's a Gift for Everyone on This List [none:none: 140] Aug 5, 2020 12:48PM
Replace those windows now [none:none: 81] Aug 5, 2020 12:48PM
The Most Popular Gadgets and Deals of the Season [none:none: 158] Aug 5, 2020 12:44PM
Play Games & Create Art On This Drawing Pad [none:none: 31] Aug 5, 2020 08:30AM
Click Here To Claim 20% Off Your KN95 Masks [none:none: 19] Aug 5, 2020 06:11AM
KN95 Masks Ready [none:none: 33] Aug 5, 2020 06:10AM
RegEX=^I need help$ [none:none: 1252] Aug 4, 2020 04:08PM
[concealedcarry] [none:none: 24] Aug 4, 2020 01:40PM
Multiple buyers interested in your home [none:none: 40] Aug 4, 2020 10:49AM
Savings Event starts [none:none: 565] Aug 4, 2020 07:45AM
Nail Grind [none:none: 159] Aug 4, 2020 04:51AM
Low Cost Payroll Service for [none:none: 101] Aug 3, 2020 06:04PM
Brew delicious coffee anywhere [none:none: 39] Aug 3, 2020 04:40PM
KN95 Masks Available for Quick Delivery [none:none: 49] Aug 3, 2020 08:10AM
Save Yourself a Trip Up the Ladder This Spring [none:none: 24] Aug 3, 2020 05:55AM
Clogging Your Gutters [none:none: 166] Aug 3, 2020 05:30AM
Welcome to HealthInsurance.net Quot [none:none: 34] Aug 2, 2020 01:41PM
Get Your Teeth Covered | Dental Plans [none:none: 53] Aug 2, 2020 10:22AM
Your device is temporarily locked [none:none: 372] Aug 2, 2020 03:06AM
RegEX=^,_, [none:none: 51] Aug 1, 2020 04:01PM
improve Your SERP Position [none:none: 57] Aug 1, 2020 05:48AM
Money Making Secret [none:none: 38] Aug 1, 2020 05:09AM
Brighten your day with half 0ff Garage LED lights [none:none: 49] Jul 31, 2020 03:21PM
Comfortable KN95 face mask protects you without any discomfort [none:none: 18] Jul 31, 2020 11:46AM
KN95 Masks For The Public Available Here... [none:none: 53] Jul 31, 2020 09:10AM
hypothyroidism LIE it's not a permanent disease [none:none: 42] Jul 31, 2020 06:09AM
Quality Face Mask [none:none: 268] Jul 31, 2020 05:18AM
Getting Stuck [none:none: 285] Jul 31, 2020 03:57AM
Hack The Female Brain [none:none: 26] Jul 31, 2020 03:08AM
Made In The USA Cloth Face Mask [none:none: 115] Jul 30, 2020 05:30PM
Are You Having "Senior Moments?" [none:none: 20] Jul 30, 2020 02:21PM
Read This If You Want a Healthy Brain [none:none: 23] Jul 30, 2020 02:07PM
Powerful Electronic Mosquito Lamp [none:none: 376] Jul 30, 2020 01:47PM
Revolutionary New Product [none:none: 120] Jul 30, 2020 01:47PM
Stops snoring [none:none: 23] Jul 30, 2020 01:47PM
ALCOHOL HAND SANITIZER! [none:none: 22] Jul 30, 2020 01:26PM
Stuck Searching for Perfect Gifts [none:none: 147] Jul 30, 2020 01:00PM
Optimize your internet connection with this device [none:none: 52] Jul 30, 2020 11:53AM
increase the amount of oxygen you inhale [none:none: 33] Jul 30, 2020 11:13AM
drug linked to sudden vision loss [none:none: 31] Jul 30, 2020 08:24AM
This Brand New Tool Scares Me [none:none: 40] Jul 30, 2020 05:19AM
Avoid bread, except [none:none: 571] Jul 30, 2020 04:35AM
pure whitehat that work [none:none: 53] Jul 29, 2020 02:10PM
Block Out Annoying Pine Needles [none:none: 111] Jul 29, 2020 10:20AM
standing desk [none:none: 553] Jul 29, 2020 09:00AM
account has been hacked [none:none: 4289] Jul 29, 2020 07:38AM
Eyes Relaxing Massaging Mask [none:none: 249] Jul 29, 2020 04:57AM
Car Visor Inspired By The Military [none:none: 100] Jul 28, 2020 10:56PM
Returns Strong Financial Results... [none:none: 54] Jul 28, 2020 03:33PM
PAIN RELIEF BREAKTHROUGH [none:none: 21] Jul 28, 2020 11:23AM
Caribbean Cruise [none:none: 270] Jul 28, 2020 11:07AM
Think your safe… Think again [none:none: 84] Jul 28, 2020 07:58AM
Cialis Professional [none:none: 783] Jul 27, 2020 03:04PM
Keeps You 20 Degrees Cooler Than [none:none: 26] Jul 26, 2020 08:53PM
Hemp Infused [none:none: 23] Jul 26, 2020 01:13PM
re: experts SEO [none:none: 68] Jul 26, 2020 02:01AM
Be the Hero With These Giftable Gadgets [none:none: 160] Jul 25, 2020 05:08PM
Skip Retail Prices on These Popular Gadgets [none:none: 114] Jul 25, 2020 05:06PM
Judge Judy [none:none: 777] Jul 25, 2020 09:15AM
Piece Survival Grab Bag [none:none: 57] Jul 25, 2020 03:22AM
RegEX=^Please read $ [none:none: 154] Jul 24, 2020 08:34PM
your BP [none:none: 2015] Jul 24, 2020 05:12PM
How To Stroke Her "Deep Spot" [none:none: 41] Jul 24, 2020 04:33PM
Forget Needles [none:none: 59] Jul 24, 2020 11:01AM
RegEX=^Exclusive\:\ Up\ to\ \d+\%\ off\ pet\ insurance\ coverage$ [none:none: 60] Jul 24, 2020 08:47AM
Tratamiento de Agua para el Hogar [none:none: 239] Jul 24, 2020 07:39AM
Let’s make our life beautiful an [none:none: 129] Jul 24, 2020 05:43AM
Treatment for Fungus [none:none: 39] Jul 24, 2020 03:06AM
Man Shocks The World [none:none: 187] Jul 23, 2020 08:12PM
An infrared thermomete [none:none: 24] Jul 23, 2020 01:48PM
odd morning elixir to lose [none:none: 1247] Jul 23, 2020 12:40PM
Dirty trick to end a fight [none:none: 307] Jul 23, 2020 08:37AM
Special Forces \xE2\x80\x9Cdirty trick [none:none: 201] Jul 23, 2020 08:33AM
it is the hottest of all that I've ever seen [none:none: 1676] Jul 22, 2020 11:51PM
can you meet me [none:none: 9635] Jul 22, 2020 10:39PM
where have you been all my life [none:none: 2170] Jul 22, 2020 10:35PM
Ohh, are you an ancient god [none:none: 1951] Jul 22, 2020 09:57PM
Will you come to me today? [none:none: 1274] Jul 22, 2020 09:44PM
what are we going to do [none:none: 5258] Jul 22, 2020 09:07PM
Why don't you meet with a girl like me? [none:none: 2137] Jul 22, 2020 08:14PM
Exactly what I wanted [none:none: 2032] Jul 22, 2020 07:45PM
RegEX=^Cool day$ [none:none: 1390] Jul 22, 2020 07:34PM
I could not resist and pass by [none:none: 2205] Jul 22, 2020 07:25PM
remember the weekend? [none:none: 1340] Jul 22, 2020 06:34PM
If all men were the same [none:none: 2095] Jul 22, 2020 05:51PM
I would like to ask you [none:none: 1254] Jul 22, 2020 05:48PM
Hey, remember, I promised to show the video [none:none: 1850] Jul 22, 2020 05:46PM
can you be free today [none:none: 1404] Jul 22, 2020 05:00PM
a real man [none:none: 4844] Jul 22, 2020 04:51PM
let's do it [none:none: 5429] Jul 22, 2020 04:09PM
i don't know where i am [none:none: 1338] Jul 22, 2020 03:00PM
can we schedule an appointment for tomorrow? [none:none: 1327] Jul 22, 2020 02:34PM
It's incredibly confusing and drives me [none:none: 1842] Jul 22, 2020 01:37PM
at the weekend you can [none:none: 1412] Jul 22, 2020 01:16PM
Is your character as hard as your muscles [none:none: 2116] Jul 22, 2020 01:02PM
it had to be spread in the network [none:none: 1633] Jul 22, 2020 12:57PM
What are your plans for today? [none:none: 903] Jul 22, 2020 12:22PM
RegEX=^I'll ask you$ [none:none: 1361] Jul 22, 2020 12:16PM
seems to me you do not mind a good company [none:none: 2046] Jul 22, 2020 11:25AM
come to me? [none:none: 1334] Jul 22, 2020 10:52AM
I look at you and I cannot resis [none:none: 2136] Jul 22, 2020 10:45AM
I am free for you now ;) [none:none: 865] Jul 22, 2020 09:40AM
RE: As per discussion [none:none: 160] Jul 22, 2020 09:38AM
understand everything, but this is a frank bust [none:none: 1329] Jul 22, 2020 09:36AM
That's why I love our parties! Just look here [none:none: 883] Jul 22, 2020 09:17AM
handsome with a stunned smile and gorgeous [none:none: 2042] Jul 22, 2020 08:30AM
Great gifts for Trump's fan [none:none: 23] Jul 22, 2020 08:21AM
RegEX=^awb \d+ [none:none: 23] Jul 22, 2020 07:24AM
could you meet me [none:none: 5258] Jul 22, 2020 06:54AM
You are free? [none:none: 1232] Jul 22, 2020 06:49AM
This is something you should NEVER miss [none:none: 39] Jul 22, 2020 06:40AM
I was preparing this, [none:none: 1861] Jul 22, 2020 06:01AM
how many fantasies you awake in my head [none:none: 2063] Jul 22, 2020 05:51AM
In any case, I am happy that we met [none:none: 2031] Jul 22, 2020 05:04AM
what are your plans for the weekend [none:none: 1279] Jul 22, 2020 04:57AM
come to me tomorrow? [none:none: 1268] Jul 22, 2020 04:08AM
Remember tomorrow? [none:none: 1212] Jul 22, 2020 03:30AM
derstroy your enemies website [none:none: 48] Jul 22, 2020 02:45AM
What such a gorgeous man is doing here [none:none: 2082] Jul 22, 2020 02:37AM
I can not find [none:none: 1297] Jul 22, 2020 12:30AM
RegEX=^tomorrow is also possible$ [none:none: 1380] Jul 22, 2020 12:26AM
I am lost [none:none: 1321] Jul 21, 2020 11:46PM
I think I saw you in my dreams [none:none: 1749] Jul 21, 2020 11:45PM
will we schedule an appointment for today [none:none: 1386] Jul 21, 2020 10:54PM
This attracts me very much [none:none: 2150] Jul 21, 2020 10:36PM
are you free today [none:none: 1348] Jul 21, 2020 10:17PM
Do you know how to turn a girl on [none:none: 2041] Jul 21, 2020 10:08PM
Perhaps you will come into rage [none:none: 1675] Jul 21, 2020 09:42PM
can we schedule an appointment for today? [none:none: 1236] Jul 21, 2020 09:19PM
Me and this bottle of red wine [none:none: 2099] Jul 21, 2020 08:01PM
USB Drives [none:none: 767] Jul 21, 2020 07:34PM
and I thought I will not meet a man that I like [none:none: 2112] Jul 21, 2020 07:04PM
Mystery Man Is Shocking The World [none:none: 477] Jul 21, 2020 06:57PM
Just look who's here with us [none:none: 2120] Jul 21, 2020 06:26PM
What will you do today? [none:none: 1280] Jul 21, 2020 06:12PM
What are you doing tomorrow? [none:none: 1417] Jul 21, 2020 05:39PM
RegEX=^excellent day$ [none:none: 1356] Jul 21, 2020 05:38PM
could you help me [none:none: 1390] Jul 21, 2020 05:34PM
help is badly needed [none:none: 1339] Jul 21, 2020 03:53PM
tell you a couple of vulgar secrets [none:none: 2106] Jul 21, 2020 03:17PM
RegEX=^Remind myself$ [none:none: 1418] Jul 21, 2020 02:49PM
RegEX=^help me find$ [none:none: 1351] Jul 21, 2020 01:28PM
I would love to test you [none:none: 2182] Jul 21, 2020 01:11PM
schedule an appointment for the weekend? [none:none: 2554] Jul 21, 2020 01:02PM
Wow, what a handsome [none:none: 2176] Jul 21, 2020 11:43AM
Experience the power of this Oil [none:none: 22] Jul 21, 2020 09:02AM
it looks like you're an athlete [none:none: 2071] Jul 21, 2020 08:19AM
will we schedule an appointment for tomorrow [none:none: 1216] Jul 21, 2020 07:27AM
Opt OUT of aging [none:none: 38] Jul 21, 2020 07:12AM
I would go through the streets slack jawed [none:none: 2187] Jul 21, 2020 04:53AM
I really need help [none:none: 1284] Jul 21, 2020 03:44AM
Trumpcare Medicare Insurance [none:none: 183] Jul 21, 2020 03:28AM
Trumpcare Medicare Replacement [none:none: 281] Jul 21, 2020 02:55AM
But here you are, and I'm ready to unveil to you [none:none: 2102] Jul 21, 2020 01:23AM
I'll tell you what we were doing [none:none: 2053] Jul 20, 2020 11:23PM
How about to meet a hot girl [none:none: 2103] Jul 20, 2020 10:05PM
can you be free tomorrow [none:none: 1388] Jul 20, 2020 08:14PM
can you help me? [none:none: 1172] Jul 20, 2020 08:09PM
Let's get a little closer tonight [none:none: 2133] Jul 20, 2020 07:30PM
What are your plans for tomorrow [none:none: 1341] Jul 20, 2020 03:57PM
Will you allow me to be your dessert for today's dinner [none:none: 1911] Jul 20, 2020 03:08PM
it seems I'm ready to be yours today [none:none: 2069] Jul 20, 2020 02:48PM
Overpaying for razors is now optional [none:none: 49] Jul 20, 2020 02:42PM
are you as cool in the conversation [none:none: 2168] Jul 20, 2020 02:30PM
Year of NO MORE PAI [none:none: 33] Jul 20, 2020 02:07PM
RegEX=^can i ask you$ [none:none: 1361] Jul 20, 2020 01:03PM
Music New Releases at CD Univers [none:none: 66] Jul 20, 2020 11:00AM
Will you come to me on the weekend? [none:none: 1342] Jul 20, 2020 10:07AM
can we schedule a meeting? [none:none: 1232] Jul 20, 2020 09:31AM
You seem to know how to make a girl turn [none:none: 1986] Jul 20, 2020 08:55AM
Haven't you seen it yet [none:none: 1836] Jul 20, 2020 07:11AM
Let's try to get to know each other [none:none: 2172] Jul 20, 2020 04:12AM
This stylish and discreet defense tool [none:none: 82] Jul 20, 2020 01:25AM
RE: Verified LinkedIn and Event Leads [none:none: 31] Jul 19, 2020 09:22PM
Get Laid [none:none: 1663] Jul 19, 2020 07:10PM
This device opens up possibilities in terms of hearing quality [none:none: 26] Jul 19, 2020 06:09AM
Re: Athlete\xE2\x80\x99s Foot [none:none: 96] Jul 19, 2020 04:16AM
will we schedule a meeting [none:none: 1267] Jul 18, 2020 03:42PM
Gadgets for All Your Loved Ones, And Massive Savings for You [none:none: 120] Jul 18, 2020 03:11PM
At a Loss for What Gadgets to Buy [none:none: 68] Jul 18, 2020 03:11PM
Your trial set offer [none:none: 472] Jul 18, 2020 01:12PM
And be prepared for a shock [none:none: 1854] Jul 18, 2020 09:59AM
UV rays: 20 seconds of light is all that is needed. [none:none: 85] Jul 18, 2020 02:45AM
Sanitizing Wand [none:none: 175] Jul 18, 2020 02:41AM
test for fever [none:none: 42] Jul 17, 2020 08:58AM
Vea En Tiempo Real Desde Su Telefono Graba [none:none: 125] Jul 17, 2020 08:41AM
RegEX=^Super\ Bright\ \d+\ lumens\ LED\ Emitter\!$ [none:none: 38] Jul 17, 2020 07:11AM
OP inspired defense tool [none:none: 41] Jul 17, 2020 07:04AM
The hidden dangers of exercise [none:none: 239] Jul 17, 2020 06:31AM
Auto Protection Plan [none:none: 25] Jul 16, 2020 12:36PM
what are you going to do on the weekend? [none:none: 289] Jul 16, 2020 12:14PM
Music Top Sellers at CD Universe [none:none: 64] Jul 16, 2020 11:29AM
How Karen Fixed Her Thyroid [none:none: 126] Jul 16, 2020 11:12AM
take down an attacker [none:none: 422] Jul 16, 2020 11:06AM
This is the man of my dreams [none:none: 2084] Jul 16, 2020 02:06AM
fountain of youth [none:none: 124] Jul 15, 2020 03:08PM
Light Sensitive Bug Zapper [none:none: 27] Jul 15, 2020 02:38PM
free power [none:none: 397] Jul 15, 2020 01:28PM
maybe the custom meal plan is not for you [none:none: 21] Jul 15, 2020 10:10AM
[SPECIAL] The US Government Has Hidden This Inside NASA For The Last 4 Years [none:none: 176] Jul 14, 2020 06:03AM
Earn HUGE CASH With a Millionaire's Website [none:none: 38] Jul 14, 2020 03:29AM
most powerful 3D software [none:none: 28] Jul 13, 2020 12:19PM
Now Available Without A Prescription [none:none: 646] Jul 13, 2020 06:55AM
Stops Cat Bad Behavior [none:none: 207] Jul 13, 2020 06:41AM
Permanently Stops Cats [none:none: 132] Jul 13, 2020 06:26AM
help for Cat Lovers [none:none: 294] Jul 13, 2020 06:22AM
Chánge your pássword ímmediátely. Your áccount [none:none: 2652] Jul 12, 2020 03:29PM
Then you've gotta see THIS [none:none: 848] Jul 12, 2020 09:46AM
Superb gadget to keep track of your vehicle [none:none: 30] Jul 11, 2020 12:26PM
YOU ARE ADVISED TO STOP CONTACTING THEM [none:none: 93] Jul 11, 2020 12:04AM
Trusted by Military [none:none: 107] Jul 10, 2020 01:02PM
Personal notes on information request [none:none: 184] Jul 10, 2020 11:13AM
Chánge your pássword ímmediátely. Your áccount hás been hácked. [none:none: 54] Jul 10, 2020 10:52AM
Your Face Masks [none:none: 190] Jul 10, 2020 10:50AM
Bunny Ears Nipple Covers [none:none: 37] Jul 10, 2020 05:15AM
NanoSecure Protects All Your Information [none:none: 49] Jul 9, 2020 07:40PM
Mini Projector [none:none: 337] Jul 9, 2020 10:57AM
Redeem your trial offer [none:none: 314] Jul 9, 2020 10:10AM
How To Make Your Portraits [none:none: 420] Jul 9, 2020 06:45AM
Municipios actualizados con datos completos [none:none: 31] Jul 7, 2020 10:00PM
Confirm your package [none:none: 128] Jul 7, 2020 02:00PM
RegEX=^Transaction Notification$ [none:none: 360] Jul 7, 2020 11:34AM
Design Personalized Cloth Face Masks [none:none: 46] Jul 7, 2020 08:12AM
Weird Divorce Survey Reveals Root Cause of ED [none:none: 29] Jul 7, 2020 04:04AM
Need a Bank account? Open one online now [none:none: 63] Jul 6, 2020 05:57PM
Open A Bank Account Online [none:none: 48] Jul 6, 2020 05:56PM
pussy waiting for you [none:none: 180] Jul 6, 2020 07:37AM
Maximum Sexual Benefits [none:none: 81] Jul 6, 2020 02:12AM
We have a surprise for Sams club Shoppers [none:none: 49] Jul 6, 2020 12:51AM
Three Audiobooks are on us [none:none: 36] Jul 6, 2020 12:06AM
Read this ASAP [none:none: 202] Jul 5, 2020 02:14PM
Your marriage is salvageable [none:none: 188] Jul 5, 2020 02:07PM
Is your spouse leaving you [none:none: 178] Jul 5, 2020 02:01PM
The ultimate solution for any type of pain! [none:none: 70] Jul 5, 2020 03:20AM
Make Your Meat Look Bigger [none:none: 594] Jul 3, 2020 07:36AM
Reusable Face Mask Flying Off Shelves [none:none: 50] Jul 3, 2020 12:59AM
Trick to Avoid this Virus [none:none: 135] Jul 3, 2020 12:59AM
Download Games, Movies and your favorite shows in minutes [none:none: 53] Jul 3, 2020 12:21AM
Discreet ser vice , bea utiful women [none:none: 396] Jul 2, 2020 04:01PM
Why Do The Spanish Have Healthier Hearts [none:none: 43] Jul 2, 2020 04:57AM
WORST Food for Vision Loss [none:none: 26] Jul 2, 2020 04:45AM
money on cable subscription [none:none: 26] Jul 1, 2020 05:34AM
People Are Earning Millions From Home During Corona virus Pandemic [none:none: 30] Jun 30, 2020 11:43AM
1478zep [none:none: 351] Jun 30, 2020 10:48AM
Smart Band Pro Health Monitoring for Performance Lifestyle [none:none: 52] Jun 30, 2020 10:06AM
your mosquito problem [none:none: 426] Jun 30, 2020 07:40AM
SilentSnore [none:none: 240] Jun 30, 2020 07:36AM
Aging prostate [none:none: 88] Jun 30, 2020 07:07AM
JBA290318 [none:none: 348] Jun 30, 2020 04:15AM
The CLIP KNIFE is the perfect EDC Tool [none:none: 40] Jun 30, 2020 04:10AM
WILL YOU SURVIVE TOMORROW? [none:none: 25] Jun 30, 2020 01:22AM
ThermoSense [none:none: 110] Jun 29, 2020 09:43PM
Many State Governors Require Wearing Face Masks [none:none: 160] Jun 29, 2020 04:42PM
RegEX=^simple way to [none:none: 513] Jun 29, 2020 09:01AM
pounds of muscle in [none:none: 161] Jun 29, 2020 05:53AM
New Muscle Builder Takes World by Storm [none:none: 96] Jun 29, 2020 05:51AM
Instant Stiff in [none:none: 167] Jun 29, 2020 02:51AM
drops the pounds and builds [none:none: 48] Jun 29, 2020 12:51AM
People Are Earning Millions From Home During COVID [none:none: 30] Jun 28, 2020 08:21PM
People Are Earning Millions From Home During Coronavirus Pandemic [none:none: 27] Jun 28, 2020 08:21PM
STOP EXERCISING [none:none: 149] Jun 28, 2020 12:40PM
Best Real Estate Agents in Your City Ranked [none:none: 128] Jun 28, 2020 10:40AM
Postures Cause [none:none: 27] Jun 28, 2020 07:55AM
BloodPressureX [none:none: 52] Jun 27, 2020 09:25AM
Your new favorite "Gun Toy" [none:none: 421] Jun 27, 2020 04:32AM
CCW License [none:none: 24] Jun 27, 2020 04:17AM
Medicine man warns Trump [none:none: 66] Jun 26, 2020 09:31AM
Do you need a solution to safeguard the photos, videos, and important documents [none:none: 181] Jun 26, 2020 08:23AM
most popular smartphone [none:none: 363] Jun 25, 2020 09:40PM
XPhone Secure Next Gen Smartphone [none:none: 403] Jun 25, 2020 09:40PM
Best Smartphone on the market with all the latest technology [none:none: 353] Jun 25, 2020 09:38PM
Destroys viruses, bacteria and germs in seconds [none:none: 231] Jun 25, 2020 02:06PM
CCW Certificate [none:none: 359] Jun 25, 2020 11:26AM
Gun control lobbyists are on the attack, get your CCW Certification TODAY [none:none: 140] Jun 25, 2020 07:55AM
portable alarm [none:none: 121] Jun 25, 2020 06:04AM
personal alarm saving [none:none: 63] Jun 25, 2020 05:13AM
Thermometers Essential [none:none: 124] Jun 24, 2020 11:06PM
Protects you from touching infected people. [none:none: 120] Jun 24, 2020 06:01PM
Carry legally before the law changes [none:none: 195] Jun 23, 2020 08:57AM
Make sure you submit your application!! [none:none: 30] Jun 23, 2020 12:35AM
Take the Perfect Picture Every Time [none:none: 130] Jun 22, 2020 08:17PM
Dogs need to brush their [none:none: 406] Jun 21, 2020 02:58AM
Is Your Enlarged Prostate [none:none: 664] Jun 20, 2020 05:33PM
thinning hair [none:none: 374] Jun 20, 2020 04:26PM
RegEX=^\(\d+\)\ New\ Position\ Open\ With\ Apple\ Salary\ is\ \d+K\ for\ \d+$ [none:none: 92] Jun 20, 2020 12:42PM
SHOCKS the medical world [none:none: 31] Jun 20, 2020 11:43AM
Poisoning Our Environment [none:none: 1510] Jun 20, 2020 02:14AM
Cialis Daily [none:none: 1044] Jun 19, 2020 07:56AM
NeckZen [none:none: 157] Jun 19, 2020 04:43AM
Keep Mosquitos Away With the Powerful Mosquitron Electronic Mosquito Lamp [none:none: 59] Jun 18, 2020 03:04PM
Snore Wristband [none:none: 97] Jun 18, 2020 02:28PM
Cut Your Power Bill in Half [none:none: 68] Jun 18, 2020 07:42AM
protecting your family [none:none: 74] Jun 18, 2020 07:42AM
with your ex [none:none: 176] Jun 18, 2020 06:55AM
One more step to Complete your registration! [none:none: 27] Jun 17, 2020 12:11PM
Don't forget to confirm your registration!! [none:none: 56] Jun 17, 2020 12:08PM
Please Complete your 'Registration' [none:none: 34] Jun 17, 2020 12:08PM
Thyroid Damaged [none:none: 102] Jun 17, 2020 07:33AM
Complete 30 second Walgreen marketing survey. [none:none: 258] Jun 17, 2020 12:04AM
perform for her [none:none: 62] Jun 16, 2020 08:55PM
behind limp performances [none:none: 704] Jun 16, 2020 08:52PM
Mapas de rutas de Argentna [none:none: 32] Jun 16, 2020 02:17PM
Complete your registration!! [none:none: 27] Jun 16, 2020 10:28AM
RegEX=^Make_up\ to\ \d+\,\d+\ in\ the\ next\ \d+\ hours$ [none:none: 71] Jun 16, 2020 09:02AM
Top Deals at Sweetwater [none:none: 123] Jun 15, 2020 06:50PM
Trump Calls Emergency Meeting At The White House [none:none: 177] Jun 15, 2020 11:24AM
Making Home a Healthier Place [none:none: 123] Jun 15, 2020 10:15AM
$250k Coverage [none:none: 167] Jun 15, 2020 06:39AM
Beauties for Love and More [none:none: 387] Jun 15, 2020 05:03AM
Eligible for Medicare? [none:none: 51] Jun 15, 2020 03:52AM
UV Sanitizer Hand Wand [none:none: 85] Jun 15, 2020 02:45AM
hone UV sanitizers [none:none: 30] Jun 15, 2020 02:30AM
Floating Globe [none:none: 54] Jun 14, 2020 05:21PM
Someone have access to your syste [none:none: 2393] Jun 14, 2020 07:46AM
top 1st page [none:none: 163] Jun 14, 2020 07:20AM
lost This Changes EVERYTHING! [none:none: 191] Jun 14, 2020 01:22AM
Real Time Security Alarm Tracking Devic [none:none: 53] Jun 13, 2020 02:04PM
Medical Billing School [none:none: 40] Jun 13, 2020 10:32AM
Need some extra cash [none:none: 284] Jun 13, 2020 02:35AM
RegEX=^rolf$ [none:none: 355] Jun 12, 2020 02:40PM
EDC Fire Starter Giveaway! 60 Only! [none:none: 52] Jun 12, 2020 01:25PM
Piano practice [none:none: 867] Jun 12, 2020 06:36AM
Tis the Sea son of Cre_dit [none:none: 69] Jun 11, 2020 07:32PM
recommend this phone [none:none: 426] Jun 11, 2020 02:37PM
Your family's safety and comfort is not something [none:none: 44] Jun 11, 2020 04:34AM
Spring Savings [none:none: 181] Jun 10, 2020 10:52PM
ho else wants to discover how to power [none:none: 28] Jun 10, 2020 08:34AM
from ringing [none:none: 206] Jun 10, 2020 03:22AM
Energy Shocker [none:none: 1106] Jun 9, 2020 10:32PM
Melts Up To [none:none: 92] Jun 9, 2020 06:28AM
Sporting Shirts [none:none: 437] Jun 8, 2020 10:59AM
Across the World Face Masks Are Becoming Mandatory [none:none: 233] Jun 8, 2020 09:27AM
Parasite [none:none: 5851] Jun 8, 2020 09:16AM
Keep Your Family Safe [none:none: 285] Jun 8, 2020 06:51AM
Gwenith Paltrow and corona [none:none: 63] Jun 8, 2020 06:43AM
The sneeze of death... [none:none: 229] Jun 8, 2020 06:43AM
forget a vaccine for corona [none:none: 271] Jun 8, 2020 06:43AM
Light Sanitizer [none:none: 83] Jun 8, 2020 06:39AM
RegEX=^EMERGENCY EMAIL$ [none:none: 46] Jun 8, 2020 06:17AM
Yoúr accoúnt has sígns of hackíng and blockíng. [none:none: 108] Jun 8, 2020 06:02AM
Brings ALL Your Desires To Life [none:none: 197] Jun 8, 2020 05:05AM
your husband [none:none: 485] Jun 8, 2020 12:37AM
neck knife [none:none: 310] Jun 6, 2020 11:46AM
Vision Restoring Trick [none:none: 275] Jun 6, 2020 06:03AM
I know everything [none:none: 205] Jun 6, 2020 04:27AM
ACs are going to be extinct after this discovery [none:none: 219] Jun 5, 2020 06:07PM
Eco friendly tech that cools any roo [none:none: 292] Jun 5, 2020 06:00PM
beautiful singles [none:none: 497] Jun 4, 2020 03:01PM
Boost WiFi Signal [none:none: 100] Jun 4, 2020 02:27PM
BAJA TUS COSTOS FIJOS CON PERSONAL [none:none: 154] Jun 4, 2020 01:02PM
Speak 38 Languages Instantly [none:none: 29] Jun 4, 2020 08:50AM
Wrinkle Remove [none:none: 600] Jun 4, 2020 06:56AM
Payment after Ranking Results? Wish Granted! [none:none: 64] Jun 4, 2020 01:45AM
per hour jobs on Facebook, now hiring [none:none: 265] Jun 3, 2020 06:21PM
a Sign of Alzheimer [none:none: 189] Jun 3, 2020 08:19AM
Why GRS Ultra is changing people's live [none:none: 35] Jun 3, 2020 06:54AM
Ultra Efficient and Super Easy to Use [none:none: 144] Jun 3, 2020 03:14AM
wie man 5.000 euro verdient [none:none: 33] Jun 2, 2020 10:23PM
brauchst du geld [none:none: 48] Jun 2, 2020 10:00PM
Scored a Great Deal [none:none: 885] Jun 2, 2020 04:20PM
Feeling Lucky? [none:none: 132] Jun 2, 2020 04:19PM
Selling your home? [none:none: 739] Jun 2, 2020 11:43AM
Llegue a la palma de la mano de sus clientes [none:none: 275] Jun 2, 2020 09:19AM
ADHD, Snoring, Stroked Related? YES... [none:none: 51] Jun 2, 2020 06:11AM
First Access Credit Solution [none:none: 85] Jun 2, 2020 04:11AM
Security Alert. Your account was compromissed [none:none: 1084] Jun 2, 2020 02:25AM
Your personal data is threatened! [none:none: 2697] Jun 2, 2020 01:52AM
Security Alert. Your accounts was [none:none: 2311] Jun 2, 2020 01:51AM
Attack hackers to your account [none:none: 1725] Jun 2, 2020 01:45AM
Skinny Pill [none:none: 420] Jun 1, 2020 06:56PM
Brand boosting should not be costly [none:none: 65] Jun 1, 2020 11:51AM
Moskinator is helping you to take back control [none:none: 66] Jun 1, 2020 07:22AM
your moles [none:none: 2002] May 31, 2020 11:17PM
Prepare for Allergy Season Now [none:none: 33] May 31, 2020 10:45AM
List Of Best Real Estate Agents in Your City [none:none: 179] May 31, 2020 07:25AM
The Opioid Crisis Solution [none:none: 507] May 31, 2020 07:01AM
Ear Doctors and Health Scientists Call [none:none: 178] May 29, 2020 03:11PM
conoce otra piel,tal vez tu amante [none:none: 191] May 29, 2020 11:02AM
Your Heavenly Protection [none:none: 110] May 29, 2020 08:49AM
RegEX=^\shola$ [none:none: 252] May 29, 2020 12:50AM
TV FREE CARD [none:none: 218] May 28, 2020 05:25PM
kannst du mich morgen treffen [none:none: 176] May 28, 2020 01:38PM
Herbs Clinically Shown to [none:none: 206] May 28, 2020 08:32AM
Earn Cash in the New Year [none:none: 38] May 28, 2020 02:29AM
If You're Sitting Open This Right Now [none:none: 1094] May 27, 2020 01:45PM
You deserve the best [none:none: 455] May 27, 2020 01:00PM
Portable UV Sanitizer [none:none: 107] May 27, 2020 08:37AM
Drone720 [none:none: 48] May 27, 2020 05:18AM
view her photos [none:none: 65] May 26, 2020 06:44PM
Herpes [none:none: 4672] May 26, 2020 02:39AM
Your opérating systém has béen hackéd by [none:none: 64] May 25, 2020 11:49PM
lbs. In your first month [none:none: 2566] May 25, 2020 08:54AM
biggest promotion, best selection of food ever! [none:none: 37] May 25, 2020 08:20AM
ChargeBoost [none:none: 287] May 25, 2020 07:02AM
Don't spend a ton of money on a faster home internet line [none:none: 125] May 25, 2020 05:49AM
hot women [none:none: 40] May 24, 2020 10:56PM
Save our eyesight [none:none: 31] May 24, 2020 05:42AM
Loans made easy. [none:none: 57] May 23, 2020 09:13PM
naughty gals [none:none: 46] May 23, 2020 04:02PM
USA: Why People Are Snapping Up This New Face Mask? [none:none: 199] May 22, 2020 05:10PM
Alquiler de Autos Servicios Para Empresas Renting [none:none: 153] May 21, 2020 09:46PM
Major Medical Plans Crafted for You [none:none: 37] May 21, 2020 08:26PM
Buy This Face Mask [none:none: 273] May 21, 2020 06:25PM
RE: Business Leads [none:none: 188] May 21, 2020 06:03PM
Nutrisystem's BOGO [none:none: 153] May 21, 2020 04:04PM
Clean Moist Air Anywhere [none:none: 159] May 21, 2020 02:01PM
The Inexpensive Way To [none:none: 83] May 21, 2020 01:57PM
Lose up to 18 pounds with Nutrisystem BOGO sale [none:none: 47] May 21, 2020 12:49PM
Best WiFi Booster on the Market [none:none: 93] May 21, 2020 11:10AM
FlightSimDownload [none:none: 201] May 21, 2020 04:16AM
Don't Go To Public Places Without This Face Mask [none:none: 231] May 20, 2020 10:11PM
Anti Virus & Flu Face Mask [none:none: 274] May 20, 2020 10:11PM
New Nano Tech Face Mask [none:none: 249] May 20, 2020 10:11PM
As Seen On TV + 1 Month FREE [none:none: 834] May 20, 2020 06:09AM
ARQUITECTURA, CONSTRUCCIÓN, HABILITACIÓN, [none:none: 32] May 20, 2020 03:27AM
Safe Stairlifts For Your Home [none:none: 36] May 19, 2020 11:24PM
Can Wearing a Face Mask Protect You From Catching [none:none: 439] May 19, 2020 09:12PM
Was sind deine [none:none: 225] May 19, 2020 02:57PM
secretly obsessed with [none:none: 194] May 19, 2020 01:27PM
New Amazon Survey Reward Ready to [none:none: 34] May 19, 2020 11:26AM
Try Hard Preppers [none:none: 108] May 18, 2020 07:54AM
Te invitamos a que pruebes nuestras capsulas de cafe [none:none: 46] May 18, 2020 07:53AM
planen wir ein Treffen [none:none: 67] May 17, 2020 12:27AM
Corona Is Spinning Out of Control [none:none: 33] May 16, 2020 05:47PM
FlightSimulation [none:none: 100] May 16, 2020 04:44AM
SPRING CLEANING SALE [none:none: 407] May 15, 2020 08:05AM
100.000 Euro [none:none: 47] May 15, 2020 12:35AM
Download latest movies from elitetorrent1.com [none:none: 222] May 14, 2020 11:08PM
CanvasPrints Promo [none:none: 87] May 14, 2020 04:11PM
CanvasPrints Partner [none:none: 45] May 14, 2020 04:03PM
CanvasPrints Affiliate [none:none: 47] May 14, 2020 04:02PM
RegEX=^\d+\.\d+\.\d+\ Euro$ [none:none: 220] May 14, 2020 11:00AM
You May Qualify to Borrow From [none:none: 146] May 14, 2020 06:11AM
007 Would Be Proud [none:none: 563] May 14, 2020 05:53AM
The Best Stretch To Do [none:none: 1543] May 14, 2020 04:18AM
The Perfect Charge [none:none: 69] May 14, 2020 03:54AM
Proven to work, it has been giving partners a good night sleep and improved the breathing of habitual snorers for a long time [none:none: 43] May 13, 2020 05:25AM
Virus Mask [none:none: 339] May 13, 2020 01:52AM
FREE Breathing Masks For USA [none:none: 182] May 12, 2020 03:37PM
Overpaying on Medigap Insurance [none:none: 1055] May 12, 2020 01:59PM
SoniClean [none:none: 79] May 11, 2020 07:54PM
The ultrasonic dental cleaner is really effective [none:none: 79] May 11, 2020 07:51PM
CORONAVIRUS ALERT: FREE Breathing Masks [none:none: 145] May 11, 2020 06:33PM
This Mask Adds An Extra Layer [none:none: 199] May 11, 2020 11:14AM
monitoring with ADT [none:none: 210] May 11, 2020 09:11AM
chicas jovenes [none:none: 175] May 11, 2020 07:10AM
Re: Diamond Ring Settings Supplier. [none:none: 94] May 11, 2020 02:53AM
Welcome To most affordable Family Insurance [none:none: 451] May 10, 2020 12:52PM
Bring Vegas to you with this [none:none: 40] May 9, 2020 08:53PM
It's Perfect for bird bath [none:none: 171] May 9, 2020 03:15PM
WARNING! You're wasting $ on pet deposits [none:none: 57] May 9, 2020 05:23AM
Landlords Can't Do Anything About This [none:none: 43] May 9, 2020 05:13AM
Could Help Against Deadly Virus [none:none: 59] May 8, 2020 01:48PM
WILL BECOME YOUR [none:none: 40] May 8, 2020 11:32AM
BestFlightSimGame [none:none: 88] May 8, 2020 10:44AM
SaniTron [none:none: 39] May 8, 2020 08:30AM
Capture HD Recording At Night With This Camera [none:none: 142] May 7, 2020 12:51PM
For Director [none:none: 112] May 7, 2020 10:16AM
Less than perfect credit [none:none: 624] May 7, 2020 06:46AM
Life does not stop at 50 [none:none: 1210] May 6, 2020 11:00PM
A Natural Solution To Fight Against Spreading Sickness [none:none: 36] May 6, 2020 03:06PM
Not Worried About a New Virus Infecting Her Family [none:none: 36] May 6, 2020 12:24PM
Add an Extra Layer of Protecti [none:none: 130] May 6, 2020 08:12AM
Ultraviolet Smartphone and Jewellery Sanitizer [none:none: 112] May 6, 2020 07:22AM
chte dich treffen [none:none: 103] May 5, 2020 11:19PM
Virus Warning: Safety Masks Available [none:none: 51] May 5, 2020 01:00PM
Revolutionary Invention Eliminates [none:none: 71] May 5, 2020 11:26AM
Protective mask and Diagnostic kit [none:none: 41] May 5, 2020 10:10AM
Point this thermometer [none:none: 229] May 4, 2020 10:24AM
touchless thermometer [none:none: 127] May 4, 2020 10:23AM
black ops shooting skills leaked to civilians [none:none: 297] May 4, 2020 09:42AM
sign up bonus is yours [none:none: 80] May 4, 2020 07:00AM
Welcome to Most Affordable Insurance Without Exam [none:none: 444] May 4, 2020 03:13AM
SoniClean cleans the mouth [none:none: 47] May 3, 2020 11:29AM
Funeral & Burial Plans, Guaranteed Acceptance. [none:none: 301] May 3, 2020 03:15AM
Got Your Future Covered [none:none: 308] May 3, 2020 03:12AM
ErgoRelax [none:none: 50] May 2, 2020 11:53AM
4 Foods [none:none: 182] May 2, 2020 04:20AM
Factory direct clothing hanger [none:none: 61] May 1, 2020 03:38PM
Have You Given Asian Dating a Try [none:none: 401] May 1, 2020 05:09AM
Fabricamos e importamos Termotanques y Calderas [none:none: 79] May 1, 2020 03:15AM
Help your body eliminate toxic proteins [none:none: 62] May 1, 2020 02:59AM
Walk In Bath [none:none: 234] Apr 30, 2020 05:13AM
Sexual Enhancement [none:none: 40] Apr 30, 2020 04:03AM
Non Toxic Hand Soap [none:none: 253] Apr 29, 2020 01:19PM
BE ACTIVE [none:none: 117] Apr 29, 2020 09:27AM
Last minute flight [none:none: 200] Apr 29, 2020 06:19AM
RegEX=.com expiration$ [none:none: 237] Apr 28, 2020 10:30AM
Virus Do this before it's too late [none:none: 74] Apr 27, 2020 02:32PM
Get your CCW Permit [none:none: 350] Apr 27, 2020 10:46AM
this beverage causes ED [none:none: 57] Apr 27, 2020 02:53AM
Oral Jelly [none:none: 489] Apr 25, 2020 02:10PM
Cialis Soft [none:none: 2068] Apr 25, 2020 11:16AM
Window Deals on [none:none: 122] Apr 25, 2020 08:23AM
Frauders known your old passwords [none:none: 1166] Apr 25, 2020 07:53AM
High danger. Your account was attacked [none:none: 1290] Apr 25, 2020 06:44AM
The Mask that helps fight Corona virus [none:none: 95] Apr 25, 2020 03:07AM
Cialis Brand [none:none: 1384] Apr 24, 2020 10:32PM
Cialis Super Active [none:none: 655] Apr 24, 2020 05:04PM
Brand Cialis [none:none: 871] Apr 24, 2020 03:50PM
garyline [none:none: 127] Apr 24, 2020 07:52AM
Feel too old for [none:none: 102] Apr 24, 2020 07:33AM
Medical Grade UV Sanitizer [none:none: 48] Apr 24, 2020 07:05AM
coronavirus.mascarilla de proteccion facial [none:none: 52] Apr 23, 2020 12:38PM
The best protection against viruses and air pollution [none:none: 394] Apr 23, 2020 12:19PM
De_rmaCorrect [none:none: 42] Apr 23, 2020 11:47AM
mask that protects you from colds [none:none: 73] Apr 23, 2020 10:49AM
kannst du mich am Wochenende treffen? [none:none: 140] Apr 23, 2020 09:28AM
to fight coronavirus [none:none: 97] Apr 23, 2020 03:57AM
Are You Fully Covered? [none:none: 38] Apr 22, 2020 06:24PM
Overwhelmed by Medicare? [none:none: 40] Apr 22, 2020 06:24PM
Effective As Antibacterial Soap [none:none: 130] Apr 22, 2020 01:22PM
Face mask that protects against air pollution [none:none: 329] Apr 22, 2020 01:14PM
Important Warning About Your Ears [none:none: 461] Apr 22, 2020 09:48AM
CleaniX [none:none: 391] Apr 22, 2020 08:20AM
Making Sense of Medicare [none:none: 45] Apr 21, 2020 05:12PM
biggest lie [none:none: 507] Apr 21, 2020 04:02PM
A New Way To Combat Germs [none:none: 44] Apr 21, 2020 03:42PM
Common household items can carry up to [none:none: 89] Apr 21, 2020 03:41PM
This unbelievable cure [none:none: 156] Apr 21, 2020 01:06PM
Germs Are Everywhere. See What You Can Do [none:none: 111] Apr 21, 2020 12:35PM
Check Out This New UV Ray based Sanitizer [none:none: 48] Apr 21, 2020 12:35PM
RegEX=\w+ Easy deposits and instant withdrawals [none:none: 136] Apr 21, 2020 11:00AM
Premium Face Mask [none:none: 58] Apr 21, 2020 10:45AM
OxyBreath [none:none: 388] Apr 21, 2020 08:48AM
No Contact Multi Fnctional Digital Thermometer [none:none: 470] Apr 21, 2020 07:53AM
Face Mask to Protect [none:none: 118] Apr 21, 2020 07:50AM
With this device, you'll be able to zoom [none:none: 81] Apr 21, 2020 06:54AM
Hospital Grade disinfection device [none:none: 44] Apr 21, 2020 05:13AM
portable oxygen concentrator [none:none: 593] Apr 21, 2020 04:55AM
Try The InogenOne [none:none: 147] Apr 21, 2020 04:30AM
Protecting Yourself and Your Family Is Vital [none:none: 203] Apr 21, 2020 04:08AM
not the only risk that we encounter in our daily lives. [none:none: 55] Apr 21, 2020 04:02AM
AutoTrack REALTIME GPS CAR TRACKER [none:none: 470] Apr 21, 2020 02:01AM
Kannst du mich morgen treffen? [none:none: 72] Apr 20, 2020 04:24PM
Truly Free Non Toxic Aloe Hand Soap, On Sale For A Limited Time! [none:none: 123] Apr 20, 2020 02:27PM
The Natural Hand Soap You Never Knew You Needed... [none:none: 128] Apr 20, 2020 11:56AM
Everyone's Saying It: Wash Your Hands! Here's Why... [none:none: 50] Apr 20, 2020 11:26AM
Full Nose and Mouth Cover Maximum Protection [none:none: 121] Apr 20, 2020 11:14AM
Dust Free Air Filter [none:none: 167] Apr 20, 2020 11:13AM
Wash Your Hands (CDC Warning) [none:none: 97] Apr 20, 2020 11:01AM
Newest Gear Came From an Almost [none:none: 784] Apr 20, 2020 10:00AM
RE: Lead responses [none:none: 56] Apr 20, 2020 06:38AM
anti pollution breathing mask [none:none: 84] Apr 20, 2020 05:25AM
triple layered filtration system [none:none: 73] Apr 20, 2020 04:22AM
Why spend another day in pain? [none:none: 40] Apr 19, 2020 09:49AM
Mask That Will Keep Your Mind [none:none: 38] Apr 19, 2020 06:53AM
Special Deal For You: Breathe Easy [none:none: 40] Apr 18, 2020 04:04PM
Do You Recognize this Tree? [All Parts are Edible] [none:none: 547] Apr 18, 2020 05:30AM
Transformed Her Gut [none:none: 140] Apr 18, 2020 05:22AM
Finally find financial freedom [none:none: 81] Apr 18, 2020 02:11AM
Keep Vi_rus Out Of Your Lungs [none:none: 71] Apr 16, 2020 01:38PM
The perfect smartwatch [none:none: 267] Apr 16, 2020 01:23PM
Shop loans to pay down high interest debt fast [none:none: 167] Apr 16, 2020 01:11PM
Making You Fat [none:none: 492] Apr 16, 2020 06:59AM
Stay Clean and Safe [none:none: 100] Apr 15, 2020 08:31PM
KILLS GERMS & VIRUSES [none:none: 60] Apr 15, 2020 12:52PM
KILL BACTERIA ON HOUSEHOLD ITEMS [none:none: 133] Apr 15, 2020 12:42PM
micro dirt particles [none:none: 134] Apr 15, 2020 11:59AM
Hygiene and protection for surviving a pandemic [none:none: 75] Apr 15, 2020 09:46AM
This tiny pill changes everything [none:none: 76] Apr 14, 2020 05:19PM
Drowning in your own bodily fluids [none:none: 99] Apr 14, 2020 03:37AM
Thermosense Is Ideal for Families [none:none: 87] Apr 13, 2020 04:24PM
Your Family At Risk [none:none: 257] Apr 13, 2020 10:49AM
RegEX=^How\ to\ make\ \$\d+\,\d+\ [none:none: 130] Apr 10, 2020 02:53PM
RegEX=^ch$ [none:none: 496] Apr 10, 2020 11:47AM
RegEX=^mwagnon$ [none:none: 56] Apr 10, 2020 06:55AM
RegEX=^manderson$ [none:none: 42] Apr 9, 2020 11:01AM
Ich habe die verdammte Nachricht verpasst [none:none: 2819] Apr 8, 2020 07:17AM
Fuckbuddy [none:none: 52965] Apr 8, 2020 04:41AM
Magic "Money Wand" [none:none: 98] Apr 8, 2020 04:05AM
Capacitate en lo que el mercado anda buscando [none:none: 102] Apr 8, 2020 12:29AM
Brauche dringend eine Beziehung [none:none: 541] Apr 7, 2020 06:35PM
Warten auf eine Beziehung [none:none: 759] Apr 7, 2020 05:21PM
Auf der Suche nach einer Beziehung [none:none: 637] Apr 7, 2020 04:08PM
nstacheat [none:none: 7718] Apr 7, 2020 02:59PM
RegEX=^heinz\ \:\ R\d+$ [none:none: 156] Apr 7, 2020 02:23PM
ethan : lifeisgood [none:none: 217] Apr 7, 2020 02:14PM
Home & Business Cleaning Services [none:none: 56] Apr 7, 2020 11:16AM
Hunger nach Mann [none:none: 437] Apr 6, 2020 02:56PM
Ich habe den Anruf verpasst [none:none: 833] Apr 6, 2020 10:37AM
ber die Beziehung vermisst [none:none: 526] Apr 6, 2020 02:12AM
InstaFuck [none:none: 8013] Apr 5, 2020 05:34PM
Scientists agree on THIS about the coronavirus [none:none: 43] Apr 3, 2020 03:02PM
Corona is not “controllable” [none:none: 58] Apr 2, 2020 09:33AM
Corona Virus Special Report [none:none: 48] Apr 1, 2020 06:51PM
NASA Can't Hide This [none:none: 453] Apr 1, 2020 04:09PM
Help Protect with this [none:none: 92] Apr 1, 2020 05:12AM
Your Exclusive Access To 2019 Realtor Rankings [none:none: 162] Mar 31, 2020 11:48AM
Liberty Mutual has coverage [none:none: 81] Mar 31, 2020 11:16AM
Auto Savings and Discounts Get a Complimentary Quote [none:none: 46] Mar 31, 2020 11:15AM
fungus quickly [none:none: 74] Mar 31, 2020 04:57AM
ready to search for Medicare? [none:none: 195] Mar 31, 2020 02:31AM
Get Medicare now [none:none: 226] Mar 31, 2020 02:30AM
New plans for Medicare [none:none: 183] Mar 31, 2020 02:28AM
Take the short survey and save [none:none: 739] Mar 30, 2020 11:07AM
save with Liberty Mutual [none:none: 78] Mar 30, 2020 05:25AM
Don't settle for average insurance [none:none: 97] Mar 30, 2020 05:15AM
End of Year Blowout Sale [none:none: 45] Mar 29, 2020 12:45PM
Celebrate your golden years with [none:none: 49] Mar 29, 2020 10:10AM
New "Twin Engine" Fire Starter [none:none: 248] Mar 28, 2020 07:25AM
Want customized insurance coverage [none:none: 54] Mar 28, 2020 06:16AM
Weird New Pocket Sized Device [none:none: 41] Mar 28, 2020 05:42AM
Update Your Profile [none:none: 290] Mar 27, 2020 05:14PM
Imprimi a bajo costo [none:none: 208] Mar 27, 2020 04:04AM
top Deals + Discounts for Seniors ONLY [none:none: 75] Mar 26, 2020 06:09PM
Personal DNA test for anonymous diagnosis [none:none: 44] Mar 26, 2020 12:16PM
Wireless Small Camera Hide [none:none: 185] Mar 26, 2020 10:41AM
Sleep Safely Alarm Special [none:none: 61] Mar 25, 2020 02:27PM
Loan information enclosed [none:none: 1307] Mar 25, 2020 11:11AM
INFECTED YOUR PC! [none:none: 131] Mar 25, 2020 12:07AM
SI RECIBES ESTE CORREO ES PORQUE FUNCIONA [none:none: 60] Mar 24, 2020 10:06PM
I Laughed When My Attacker Pulled Out A Gun. [none:none: 99] Mar 24, 2020 03:08PM
Do THIS When A Gun Is Pointed At Your Head [none:none: 83] Mar 24, 2020 02:51PM
drop 10 [none:none: 1227] Mar 24, 2020 12:39AM
I GOT EVERYTHING! [none:none: 393] Mar 24, 2020 12:27AM
Dental coverage [none:none: 640] Mar 23, 2020 10:57AM
You deserve this and more! Get your special discount [none:none: 108] Mar 23, 2020 05:11AM
I Missed hookup Message [none:none: 6606] Mar 23, 2020 12:37AM
I Missed hookup Call [none:none: 9037] Mar 23, 2020 12:10AM
This health Plan May Be For You [none:none: 169] Mar 22, 2020 11:41PM
in your bed [none:none: 2782] Mar 22, 2020 11:10AM
Sex Pill [none:none: 267] Mar 21, 2020 01:20PM
floating LED Globe [none:none: 63] Mar 21, 2020 10:55AM
pilules [none:none: 106] Mar 21, 2020 02:37AM
RegEX=^RE: Direct Leads$ [none:none: 67] Mar 20, 2020 08:37PM
Relieves Your Spine and Back Problems Fast [none:none: 281] Mar 19, 2020 06:02AM
Shed Extra Pounds [none:none: 114] Mar 19, 2020 02:27AM
Foods Causing Your Fatigue [none:none: 123] Mar 19, 2020 02:18AM
Male Pills [none:none: 60] Mar 19, 2020 02:03AM
Fabricantes de maquinas [none:none: 239] Mar 18, 2020 10:34PM
Loans to payoff Credit Debt [none:none: 160] Mar 18, 2020 02:10AM
super small foldable [none:none: 102] Mar 18, 2020 01:24AM
Servicio Tecnico de Aire Acondicionado [none:none: 86] Mar 17, 2020 04:04PM
Breaking News CORONA VIRUS [none:none: 196] Mar 17, 2020 09:33AM
PIC Shocked Me To The Core [none:none: 338] Mar 17, 2020 05:54AM
Targeted Leads at [none:none: 526] Mar 17, 2020 05:34AM
You got recorded [none:none: 2059] Mar 16, 2020 08:56PM
Spring Cleaning Blowout Sale [none:none: 796] Mar 16, 2020 11:13AM
Queres aprender Idioma Chino Mandarin [none:none: 79] Mar 15, 2020 01:26PM
Request your Future Predictions [none:none: 44] Mar 15, 2020 02:11AM
Home monitoring offer [none:none: 78] Mar 13, 2020 01:27PM
Estudia Chino Mandarin [none:none: 52] Mar 12, 2020 01:57PM
Must try local restaurants that just opened [none:none: 157] Mar 12, 2020 11:44AM
Criminal Justice Programs [none:none: 52] Mar 12, 2020 09:53AM
SCORE Workshop [none:none: 1122] Mar 12, 2020 09:33AM
M life Rewards has the perfect [none:none: 220] Mar 11, 2020 12:52PM
Custom Canvas Prints [none:none: 17416] Mar 11, 2020 11:14AM
Unlimited Canvas Prints [none:none: 150] Mar 11, 2020 11:13AM
RegEX=^Personalize\ your\ Valentine\'s\ Day\ gift\.\ Unlimited\ \d+x\d+\ Canvas\ Prints\ only\ \$\d+\.\d+\!$ [none:none: 69] Mar 11, 2020 11:12AM
for a lot less [none:none: 192] Mar 11, 2020 11:04AM
Help Digestion, Energy, and Focus [none:none: 94] Mar 11, 2020 05:53AM
ll Want to Read This [none:none: 85] Mar 11, 2020 05:53AM
I hacked you [none:none: 189] Mar 10, 2020 08:39AM
Upcoming at the Muckenthaler [none:none: 76] Mar 9, 2020 12:00PM
Ready to start saving [none:none: 69] Mar 9, 2020 06:20AM
Vast Platinum [none:none: 775] Mar 9, 2020 04:52AM
_Disponibilidad Inmediata para Particulare [none:none: 51] Mar 7, 2020 07:34PM
Best USB flash drives [none:none: 139] Mar 7, 2020 05:44PM
no te separes [none:none: 335] Mar 7, 2020 09:59AM
You MISSED These Deals Today [none:none: 216] Mar 6, 2020 05:07PM
stairlift [none:none: 67] Mar 6, 2020 09:34AM
Read on Stress [none:none: 118] Mar 5, 2020 11:41AM
Kamagra Oral Jelly [none:none: 837] Mar 5, 2020 08:01AM
Pet Coverage [none:none: 74] Mar 4, 2020 08:18AM
Manifest A Financial Blessing [none:none: 164] Mar 4, 2020 05:13AM
Mittwochmorgen kompakt [none:none: 50] Mar 3, 2020 10:37PM
In Less Than 2 Minutes, You Can Cover Your Families Future [none:none: 205] Mar 3, 2020 04:29PM
Is Your Family Protected [none:none: 153] Mar 3, 2020 03:55PM
Fly for half [none:none: 157] Mar 3, 2020 09:04AM
In Shock After Seeing This [none:none: 496] Mar 3, 2020 03:09AM
your Bachelors [none:none: 180] Mar 2, 2020 11:14AM
Online Bachelor [none:none: 258] Mar 2, 2020 11:01AM
leave your family buried in debt [none:none: 322] Mar 2, 2020 09:58AM
Credit One Bank [none:none: 160] Mar 1, 2020 08:24PM
Newest Mini GPS Tracker [none:none: 132] Mar 1, 2020 08:23AM
Trump Announces Shocking Global Decision [none:none: 156] Mar 1, 2020 07:59AM
Glasses based on state of the art sliding lens technology [none:none: 72] Mar 1, 2020 03:47AM
bvintage1420 [none:none: 1087] Feb 29, 2020 01:01PM
RegEX=^Giveaway$ [none:none: 48] Feb 29, 2020 07:42AM
million email addresses. [none:none: 66] Feb 29, 2020 05:54AM
Here's Your Free Knife [none:none: 57] Feb 28, 2020 10:07PM
Ease Your Home Defence Method [none:none: 344] Feb 28, 2020 02:10PM
Get the body you've always desired [none:none: 108] Feb 28, 2020 01:05PM
Roofing Installation [none:none: 4420] Feb 28, 2020 09:12AM
unsold seats [none:none: 131] Feb 28, 2020 07:40AM
5 night cruise [none:none: 197] Feb 28, 2020 07:23AM
unsold Cruise Rooms [none:none: 190] Feb 28, 2020 07:23AM
Five Night Cruise [none:none: 138] Feb 28, 2020 07:22AM
Multifunctional USB product Order [none:none: 1089] Feb 27, 2020 08:42PM
Let Us Worry About Your Families Future [none:none: 263] Feb 27, 2020 11:59AM
Grandma goes wild [none:none: 102] Feb 27, 2020 10:46AM
smartwatch with great features [none:none: 83] Feb 26, 2020 11:59PM
This smartwatch for under $100 [none:none: 102] Feb 26, 2020 11:52PM
perfect looking toes [none:none: 253] Feb 26, 2020 06:06PM
You'll never need another pedicure, ever again! [none:none: 257] Feb 26, 2020 06:03PM
Safety on the road is never guaranteed, with accidents frequently happening. [none:none: 84] Feb 25, 2020 03:53PM
diet everybody [none:none: 132] Feb 25, 2020 01:17PM
Cruise packages [none:none: 182] Feb 25, 2020 08:00AM
Tickets to See What You Love [none:none: 92] Feb 24, 2020 09:43AM
to The Bathroom [none:none: 619] Feb 24, 2020 01:09AM
Is HDCube the world's smallest drone? [none:none: 59] Feb 23, 2020 10:15PM
Diet Craze [none:none: 885] Feb 22, 2020 01:39PM
incredible trick [none:none: 1332] Feb 21, 2020 09:42AM
hearing device industry [none:none: 189] Feb 21, 2020 02:44AM
insanely Cool Products [none:none: 166] Feb 21, 2020 01:56AM
[[[[ TV FREE CAS3 [none:none: 366] Feb 21, 2020 01:03AM
ellas son cuentapropistas [none:none: 106] Feb 20, 2020 07:29PM
Watch the entire video [none:none: 513] Feb 20, 2020 03:36PM
RegEX=spice\ burns\ \d+lb\ a\ day [none:none: 615] Feb 20, 2020 11:00AM
America's Next Big Bankruptcy [none:none: 467] Feb 20, 2020 10:37AM
Choose your destination [none:none: 100] Feb 20, 2020 09:02AM
Guess Who Is About To Go Bankrupt in America Next [none:none: 163] Feb 20, 2020 06:39AM
ocialist Scheme [none:none: 95] Feb 20, 2020 05:28AM
Surprising Look At Who's Going Bankrupt [none:none: 152] Feb 19, 2020 11:22AM
defeat is written in history [none:none: 3596] Feb 19, 2020 11:15AM
these matches [none:none: 1044] Feb 19, 2020 05:11AM
Healthy Report Secured Deal for Its Reader [none:none: 262] Feb 19, 2020 02:43AM
Barnes & Noble [none:none: 80] Feb 18, 2020 10:50AM
Benefits from CBD [none:none: 395] Feb 18, 2020 04:57AM
to DVD [none:none: 4142] Feb 16, 2020 05:01PM
Get Ready for Medicare Annual Election Perio [none:none: 210] Feb 15, 2020 11:08AM
Get Medicare with Low Rates [none:none: 207] Feb 15, 2020 11:05AM
Applying for Medicare just got Easier [none:none: 214] Feb 15, 2020 08:57AM
Purchase Moskinator at half price with free worldwide shipping. [none:none: 188] Feb 15, 2020 03:15AM
your stiffy [none:none: 136] Feb 13, 2020 01:06PM
Survival Body Bag [none:none: 118] Feb 13, 2020 03:23AM
minute survey might save you money [none:none: 851] Feb 13, 2020 02:25AM
will Your Heating System [none:none: 255] Feb 12, 2020 07:34AM
Need a new Plan for Medicare? [none:none: 221] Feb 11, 2020 02:04PM
The shocking truth about ED [none:none: 297] Feb 10, 2020 04:47PM
perform for her anymore [none:none: 776] Feb 10, 2020 03:53PM
amigos con derechos [none:none: 250] Feb 10, 2020 10:39AM
GreenFlamingo RedBull Giveaway [none:none: 234] Feb 9, 2020 08:01AM
Enjoy More Sights This Season [none:none: 59] Feb 9, 2020 04:36AM
New Low rates for Medicare [none:none: 174] Feb 5, 2020 11:18AM
New Lowest Medicare cost [none:none: 57] Feb 4, 2020 11:04AM
Go Platinum [none:none: 176] Feb 4, 2020 02:54AM
Making Smart Homes Smarter [none:none: 61] Feb 2, 2020 07:57PM
with this fruit [none:none: 97] Feb 2, 2020 05:23AM
Wrinkle Reduction [none:none: 289] Jan 31, 2020 04:10PM
Newest Equipment Videos [none:none: 149] Jan 31, 2020 09:00AM
Get perfect toes [none:none: 112] Jan 29, 2020 12:48PM
Someone has access to your system! Security Notice [none:none: 64] Jan 29, 2020 06:16AM
Last chance to [none:none: 3963] Jan 28, 2020 09:47AM
E mail Marketing Database [none:none: 172] Jan 27, 2020 10:17PM
Direct Marketing Database [none:none: 227] Jan 27, 2020 08:10PM
Companies database [LIMITED OFFER [none:none: 100] Jan 27, 2020 07:41PM
RegEX= in\ few\ minutes\:\ \d+\%\ discount [none:none: 177] Jan 27, 2020 01:59PM
[LARGEST E MAILS DB [none:none: 58] Jan 27, 2020 10:28AM
E MAILS DATABASE [none:none: 213] Jan 27, 2020 04:54AM
How I Almost Lost My Ears [none:none: 125] Jan 26, 2020 03:01AM
Pass The Potatoes [none:none: 53] Jan 24, 2020 03:00PM
Last chance? Don't miss this out [none:none: 721] Jan 24, 2020 11:20AM
ringing sound [none:none: 956] Jan 23, 2020 02:25PM
Need A NEW Oxygen Concentrator [none:none: 92] Jan 22, 2020 08:12AM
Take Oyxgen With Yo [none:none: 104] Jan 21, 2020 09:14AM
UltraCarCam [none:none: 239] Jan 20, 2020 12:25PM
I'm keeping an eye on you [none:none: 113] Jan 20, 2020 09:41AM
how you lost it [none:none: 750] Jan 20, 2020 09:28AM
I was able to hack you [none:none: 64] Jan 20, 2020 12:12AM
Itching In This Part of Your Body [none:none: 77] Jan 19, 2020 10:15AM
Oxygen.Anytime.Anywhere [none:none: 84] Jan 19, 2020 03:13AM
stiffies [none:none: 103] Jan 17, 2020 02:25PM
Veteran Or Active Duty? Claim These Discounts [none:none: 204] Jan 17, 2020 02:22AM
The Miracle that Scares Big Pharma [none:none: 200] Jan 17, 2020 01:08AM
Complete our 30 second marketing survey [none:none: 1156] Jan 16, 2020 08:06AM
Phonex [none:none: 55] Jan 15, 2020 05:58AM
complete the survey and you get a chance to win [none:none: 755] Jan 14, 2020 11:00PM
your smile with [none:none: 125] Jan 14, 2020 09:41AM
Cialis Soft Tab [none:none: 254] Jan 14, 2020 08:15AM
Fall is Here. Prepare Your Home For Winter Now [none:none: 183] Jan 13, 2020 09:10AM
Hottest Trend Are You In [none:none: 518] Jan 13, 2020 02:11AM
about your Thyroid [none:none: 92] Jan 12, 2020 06:37AM
2nd Amendment Gun Cleaning Mat [none:none: 153] Jan 10, 2020 04:31AM
Complete 3D Creation Software Suite [none:none: 245] Jan 9, 2020 10:17AM
For your Leader [none:none: 101] Jan 9, 2020 12:46AM
Security alert! Review the sign in details. [none:none: 274] Jan 8, 2020 08:29PM
Get snappy with the Tactic AIR Drone [none:none: 57] Jan 8, 2020 08:56AM
For your Director [none:none: 255] Jan 8, 2020 06:24AM
For your Chief [none:none: 118] Jan 8, 2020 05:01AM
Sěcuříty ňøtícě [none:none: 125] Jan 7, 2020 09:17PM
Yøuř åccøuňt wås uňděř åttåck [none:none: 111] Jan 7, 2020 03:36PM
håckěřs [none:none: 113] Jan 7, 2020 03:33PM
No man should ever have to live this way [none:none: 281] Jan 7, 2020 02:34PM
Sěcuříty ålěřt [none:none: 110] Jan 7, 2020 02:25PM
dating website [none:none: 134] Jan 3, 2020 01:25AM
RegEX=^\w+\.\w+ Final Notice [none:none: 4421] Dec 31, 2019 09:51AM
Medical Company your stock portfolio is screaming out for [none:none: 1403] Dec 31, 2019 03:31AM
The Cops Are On Their Way [none:none: 60] Dec 31, 2019 12:08AM
The supplier of choice globally [none:none: 119] Dec 30, 2019 05:27PM
Imagine investing in the fastest growing sport in the world on the ground floor... [none:none: 267] Dec 30, 2019 04:27PM
Major Acquisitions to Become a Key Provider [none:none: 109] Dec 30, 2019 03:57PM
Ready to Become a Mega Profit Machine [none:none: 94] Dec 30, 2019 01:51PM
Honey I Shrunk My Prostate [none:none: 128] Dec 30, 2019 07:27AM
HIPH increasing to [none:none: 1631] Dec 30, 2019 04:26AM
18 Curious Finds That Make Perfect Gifts [none:none: 89] Dec 28, 2019 08:03AM
18 Brilliant Products You Should Get First [none:none: 119] Dec 28, 2019 02:00AM
Get younger skin [none:none: 195] Dec 27, 2019 08:27PM
you have got a Greeting Mail from [none:none: 463] Dec 27, 2019 05:16PM
Natural and Organic Jobs Update [none:none: 188] Dec 26, 2019 10:19PM
Gold/rhodium plated jewelry [none:none: 69] Dec 25, 2019 05:09PM
latest spy technology [none:none: 66] Dec 25, 2019 07:52AM
Look in my eyes. [none:none: 93] Dec 25, 2019 06:41AM
My apology and peace offering [none:none: 153] Dec 25, 2019 02:39AM
Singles are waiting and ready to mingle [none:none: 321] Dec 25, 2019 12:40AM
Eat carbs [none:none: 165] Dec 24, 2019 08:42AM
This Device Can Save Your Money [none:none: 215] Dec 22, 2019 10:28PM
Dick Pill [none:none: 66] Dec 21, 2019 10:41AM
Stop squirming or it will break [none:none: 814] Dec 21, 2019 07:04AM
was hacked! Change your password now [none:none: 406] Dec 20, 2019 10:47AM
More Pleasure And Inches to Measure [none:none: 325] Dec 19, 2019 02:44AM
Get visibly younger skin in just 1 week [none:none: 142] Dec 19, 2019 12:13AM
gets it stiff [none:none: 112] Dec 18, 2019 07:58PM
Men How you can D0 [none:none: 113] Dec 18, 2019 07:53PM
ou will never get a mole [none:none: 252] Dec 18, 2019 06:21PM
Never get another mole again [none:none: 379] Dec 18, 2019 06:16PM
feel the best man on earth [none:none: 130] Dec 17, 2019 08:36PM
got stiff in [none:none: 893] Dec 16, 2019 01:10PM
Watch the craziest video clip ever [none:none: 421] Dec 16, 2019 01:08PM
Is A Big Prostate Making Your Limp [none:none: 230] Dec 15, 2019 12:43PM
Secret To Getting BIG [none:none: 606] Dec 15, 2019 05:23AM
Answer your front door from anywhere [none:none: 112] Dec 15, 2019 03:42AM
ClearView Glasses [none:none: 96] Dec 12, 2019 08:29AM
ClearView Are Perfect For Night Driving [none:none: 85] Dec 12, 2019 08:21AM
Ice Cream [1/2 the calories] [none:none: 173] Dec 12, 2019 02:16AM
Grow your size by [none:none: 545] Dec 11, 2019 04:47PM
THIS will give you free_electricity [none:none: 865] Dec 11, 2019 07:56AM
{\*\expandedcolortbl;;} [none:none: 83] Dec 11, 2019 06:08AM
Convert your hidden house wiring into [none:none: 215] Dec 11, 2019 12:24AM
confirm your warranty extension. [none:none: 879] Dec 10, 2019 03:35PM
{\colortbl;\red255\green255\blue255;} [none:none: 73] Dec 10, 2019 02:39PM
{\rtf1\ansi\ansicpg1252\cocoartf1671\cocoasubrtf600 [none:none: 257] Dec 10, 2019 02:31PM
{\fonttbl\f0\froman\fcharset0 Times Roman;} [none:none: 128] Dec 9, 2019 12:07PM
RegEX=^\\deftab\d+$ [none:none: 429] Dec 9, 2019 11:28AM
RegEX=^\\f\d+\\fs\d+\ \\cf\d+\ \\expnd\d+\\expndtw\d+\\kerning\d+$ [none:none: 168] Dec 9, 2019 11:23AM
RegEX=^\{\\\*\\expandedcolortbl\;\;\\cssrgb\\c\d+\\c\d+\\c\d+\;\}$ [none:none: 341] Dec 9, 2019 08:23AM
RegEX=^\{\\colortbl\;\\red\d+\\green\d+\\blue\d+\;\\red\d+\\green\d+\\blue\d+\;\}$ [none:none: 158] Dec 9, 2019 08:04AM
Draining Your Energy [none:none: 86] Dec 9, 2019 06:55AM
your IQ [none:none: 1219] Dec 4, 2019 10:48PM
% off Nutrisystem [none:none: 193] Dec 4, 2019 03:51PM
Medical Coffee [none:none: 146] Dec 4, 2019 03:10AM
Toenail and finger fungus destroyer [none:none: 233] Dec 3, 2019 07:12PM
About To Die of a HeartAttack [none:none: 268] Dec 3, 2019 12:54PM
Claim your reward now [none:none: 121] Dec 3, 2019 11:07AM
Any Wood Working Project [none:none: 679] Dec 3, 2019 09:23AM
Find your discreet date today [none:none: 88] Dec 2, 2019 11:32PM
want discreet dating [none:none: 2444] Dec 2, 2019 11:30PM
pilule [none:none: 295] Dec 2, 2019 11:21AM
Meet women for a secret date [none:none: 2405] Dec 2, 2019 09:35AM
FWD: Delete This After Watching *The Most Disturbing Documentary [none:none: 115] Dec 2, 2019 04:56AM
Who's texting my spouse [none:none: 209] Dec 1, 2019 03:13AM
This Innocent Tric [none:none: 661] Nov 30, 2019 07:23AM
scores a record IQ [none:none: 192] Nov 28, 2019 10:51PM
Male Diabetes [none:none: 142] Nov 28, 2019 04:04AM
BASTA DE ESTAR SOLOS [none:none: 393] Nov 27, 2019 04:42PM
Madness Savings [none:none: 79] Nov 27, 2019 05:58AM
Stop Running in Circles [none:none: 158] Nov 27, 2019 03:48AM
Track the owner of any phone [none:none: 333] Nov 27, 2019 02:44AM
dirty h a r d on [none:none: 117] Nov 26, 2019 05:46PM
bored women who want to meet [none:none: 2486] Nov 26, 2019 11:40AM
1000 Trump Bill [none:none: 108] Nov 26, 2019 01:04AM
gorgeous ladies [none:none: 145] Nov 23, 2019 09:14AM
Advanced Technology LiveWave Antenn [none:none: 236] Nov 22, 2019 10:58PM
Social Media Marketing Immersive [none:none: 130] Nov 20, 2019 09:02AM
nouveaux appartements à Cugy [none:none: 172] Nov 19, 2019 10:18PM
Magia y Humor.El mejor Show para Eventos [none:none: 132] Nov 19, 2019 09:30AM
Get your prick hard! [none:none: 140] Nov 18, 2019 09:33PM
Do her like you used to [none:none: 130] Nov 18, 2019 09:13PM
ellas son independientes [none:none: 120] Nov 16, 2019 06:00AM
Browse and meet new women right now [none:none: 95] Nov 15, 2019 04:19PM
Arthritis breakthrough [none:none: 108] Nov 14, 2019 09:05AM
reverses arthritis [none:none: 114] Nov 14, 2019 09:05AM
VENTA DE CARTUCHOS DE TONER ALTERNATIVOS [none:none: 193] Nov 13, 2019 03:00PM
Last Few Days Exclusive 7 Day Access Pass [none:none: 160] Nov 13, 2019 02:08PM
week plan to drop [none:none: 371] Nov 12, 2019 11:54AM
partial occupation [none:none: 69] Nov 12, 2019 09:56AM
coverage No medical exam [none:none: 72] Nov 12, 2019 07:30AM
gorgeous icebreaker [none:none: 225] Nov 11, 2019 09:20AM
is waiting to hear from you... [none:none: 240] Nov 11, 2019 09:20AM
voice via Love Call [none:none: 10260] Nov 11, 2019 12:22AM
Last Chance... [none:none: 77] Nov 10, 2019 11:34AM
Almost AEP? Come Check us out [none:none: 164] Nov 9, 2019 10:19AM
sent you a letter. Check Now [none:none: 236] Nov 9, 2019 09:17AM
RegEX=^The\ \#\d+\ WORST\ exercise\ for\ aging\ \(stop\ doing\ it\!\)$ [none:none: 143] Nov 9, 2019 07:18AM
Feel like a man again [none:none: 116] Nov 8, 2019 02:20PM
The Greatest Trading Book Ever Written [none:none: 98] Nov 8, 2019 08:09AM
Seleccion de Personal [none:none: 84] Nov 7, 2019 03:01PM
Must Read Book [none:none: 175] Nov 5, 2019 09:19PM
Descuento importante en Sommier + Colchon [none:none: 70] Nov 5, 2019 09:18PM
SCORE No Charge Saturday Business Mentor Available [none:none: 163] Nov 5, 2019 11:10AM
RegEX=^HOOVER\\xAE\ ONEPWR\\x\d+\ FloorMate\ JET\\x\d+$ [none:none: 172] Nov 2, 2019 01:18PM
Need a Medical Alert System For You or Loved One? See [none:none: 71] Nov 2, 2019 09:53AM
Summer Sale: Unlimited 16x20s for [none:none: 116] Nov 2, 2019 09:10AM
Tiger Woods Drops Bombshell On Live Television [none:none: 88] Oct 31, 2019 10:03AM
Relive Your Best Times [none:none: 89] Oct 30, 2019 06:15PM
Vacuum While Washing [none:none: 79] Oct 30, 2019 06:38AM
OInline tutoring Courses [none:none: 136] Oct 28, 2019 09:34PM
For Veteran Eyes Only [none:none: 276] Oct 28, 2019 12:50PM
Roadside Safety Discs Are Here [none:none: 144] Oct 28, 2019 01:40AM
Have you heard of Medicinal Coffee [none:none: 157] Oct 27, 2019 12:11PM
RE: Promote Your Business Today [none:none: 82] Oct 24, 2019 09:46AM
Sistema AntiSarro Electronico para el Hogar [none:none: 128] Oct 22, 2019 11:29PM
Fast Approval Life Coverage [none:none: 73] Oct 21, 2019 07:31AM
Generate Income in Retirement [none:none: 93] Oct 21, 2019 07:04AM
The gift to offer or receive [none:none: 71] Oct 18, 2019 11:21PM
We can solve your IRS problems [none:none: 74] Oct 18, 2019 11:02AM
RapidX Debuts 3 in 1 Wireless Charging System perfect [none:none: 105] Oct 17, 2019 01:12PM
You've been nominated [none:none: 265] Oct 17, 2019 12:28PM
Feel Good In Your Own Home [none:none: 79] Oct 17, 2019 07:57AM
Technology that cools your entire home [none:none: 302] Oct 17, 2019 07:56AM
Sort Order By Filter By Number of Hits By Most Recent By Today's Hits